<?xml version="1.0" encoding="UTF-8" standalone="no" ?><gpx xmlns="http://www.topografix.com/GPX/1/1" xmlns:gpxx="http://www.garmin.com/xmlschemas/GpxExtensions/v3" xmlns:wptx1="http://www.garmin.com/xmlschemas/WaypointExtension/v1" xmlns:gpxtpx="http://www.garmin.com/xmlschemas/TrackPointExtension/v1" creator="GuideVTT.com" version="1.1" xmlns:xsi="http://www.w3.org/2001/XMLSchema-instance" xsi:schemaLocation="http://www.topografix.com/GPX/1/1 http://www.topografix.com/GPX/1/1/gpx.xsd http://www.garmin.com/xmlschemas/GpxExtensions/v3 http://www8.garmin.com/xmlschemas/GpxExtensionsv3.xsd http://www.garmin.com/xmlschemas/WaypointExtension/v1 http://www8.garmin.com/xmlschemas/WaypointExtensionv1.xsd http://www.garmin.com/xmlschemas/TrackPointExtension/v1 http://www.garmin.com/xmlschemas/TrackPointExtensionv1.xsd">
<metadata><link href="http://www.garmin.com"><text>Garmin International</text></link><time>2013-06-22T15:13:50Z</time></metadata>
<trk><name>activity_328504480.gpx</name><extensions><gpxx:TrackExtension><gpxx:DisplayColor>Cyan</gpxx:DisplayColor></gpxx:TrackExtension></extensions><trkseg>
<trkpt lat="46.308006048202515" lon="6.172209111973643"><ele></ele><time>2013-7-29T2:41:27Z</time></trkpt>
<trkpt lat="46.30795106291771" lon="6.172100063413382"><ele></ele><time>2013-7-29T2:41:30Z</time></trkpt>
<trkpt lat="46.30792675539851" lon="6.172063937410712"><ele></ele><time>2013-7-29T2:41:33Z</time></trkpt>
<trkpt lat="46.3078979216516" lon="6.172023117542267"><ele></ele><time>2013-7-29T2:41:36Z</time></trkpt>
<trkpt lat="46.30780999548733" lon="6.171902669593692"><ele></ele><time>2013-7-29T2:41:39Z</time></trkpt>
<trkpt lat="46.307753920555115" lon="6.1718141566962"><ele></ele><time>2013-7-29T2:41:42Z</time></trkpt>
<trkpt lat="46.30766557529569" lon="6.171680884435773"><ele></ele><time>2013-7-29T2:41:45Z</time></trkpt>
<trkpt lat="46.30750933662057" lon="6.171462200582027"><ele></ele><time>2013-7-29T2:41:48Z</time></trkpt>
<trkpt lat="46.307475892826915" lon="6.171418614685535"><ele></ele><time>2013-7-29T2:41:51Z</time></trkpt>
<trkpt lat="46.307443622499704" lon="6.171373855322599"><ele></ele><time>2013-7-29T2:41:54Z</time></trkpt>
<trkpt lat="46.30741210654378" lon="6.171331778168678"><ele></ele><time>2013-7-29T2:41:57Z</time></trkpt>
<trkpt lat="46.30738444626331" lon="6.171286767348647"><ele></ele><time>2013-7-29T2:42:0Z</time></trkpt>
<trkpt lat="46.30723373964429" lon="6.171066574752331"><ele></ele><time>2013-7-29T2:42:3Z</time></trkpt>
<trkpt lat="46.30714229308069" lon="6.170930368825793"><ele></ele><time>2013-7-29T2:42:6Z</time></trkpt>
<trkpt lat="46.30710088647902" lon="6.170818638056517"><ele></ele><time>2013-7-29T2:42:9Z</time></trkpt>
<trkpt lat="46.307112788781524" lon="6.170756779611111"><ele></ele><time>2013-7-29T2:42:12Z</time></trkpt>
<trkpt lat="46.307135755196214" lon="6.17070347070694"><ele></ele><time>2013-7-29T2:42:15Z</time></trkpt>
<trkpt lat="46.30715704523027" lon="6.170645970851183"><ele></ele><time>2013-7-29T2:42:18Z</time></trkpt>
<trkpt lat="46.30717825144529" lon="6.1705883871763945"><ele></ele><time>2013-7-29T2:42:21Z</time></trkpt>
<trkpt lat="46.307260394096375" lon="6.170348832383752"><ele></ele><time>2013-7-29T2:42:24Z</time></trkpt>
<trkpt lat="46.30730423144996" lon="6.170222098007798"><ele></ele><time>2013-7-29T2:42:27Z</time></trkpt>
<trkpt lat="46.30744781345129" lon="6.169844074174762"><ele></ele><time>2013-7-29T2:42:30Z</time></trkpt>
<trkpt lat="46.307495925575495" lon="6.169712562114"><ele></ele><time>2013-7-29T2:42:33Z</time></trkpt>
<trkpt lat="46.30751830525696" lon="6.169647770002484"><ele></ele><time>2013-7-29T2:42:36Z</time></trkpt>
<trkpt lat="46.307542193681" lon="6.169580798596144"><ele></ele><time>2013-7-29T2:42:39Z</time></trkpt>
<trkpt lat="46.30756541155279" lon="6.169513743370771"><ele></ele><time>2013-7-29T2:42:42Z</time></trkpt>
<trkpt lat="46.307589216157794" lon="6.169447777792811"><ele></ele><time>2013-7-29T2:42:45Z</time></trkpt>
<trkpt lat="46.30765987560153" lon="6.1692495457828045"><ele></ele><time>2013-7-29T2:42:48Z</time></trkpt>
<trkpt lat="46.307850731536746" lon="6.1687265150249"><ele></ele><time>2013-7-29T2:42:51Z</time></trkpt>
<trkpt lat="46.307876128703356" lon="6.168663818389177"><ele></ele><time>2013-7-29T2:42:54Z</time></trkpt>
<trkpt lat="46.3078997656703" lon="6.168594332411885"><ele></ele><time>2013-7-29T2:42:57Z</time></trkpt>
<trkpt lat="46.30792323499918" lon="6.168526438996196"><ele></ele><time>2013-7-29T2:43:0Z</time></trkpt>
<trkpt lat="46.30794754251838" lon="6.168461563065648"><ele></ele><time>2013-7-29T2:43:3Z</time></trkpt>
<trkpt lat="46.3080570101738" lon="6.168133579194546"><ele></ele><time>2013-7-29T2:43:6Z</time></trkpt>
<trkpt lat="46.308068577200174" lon="6.168061578646302"><ele></ele><time>2013-7-29T2:43:9Z</time></trkpt>
<trkpt lat="46.30802993662655" lon="6.167832417413592"><ele></ele><time>2013-7-29T2:43:12Z</time></trkpt>
<trkpt lat="46.307972772046924" lon="6.167617170140147"><ele></ele><time>2013-7-29T2:43:15Z</time></trkpt>
<trkpt lat="46.30796053446829" lon="6.167511222884059"><ele></ele><time>2013-7-29T2:43:18Z</time></trkpt>
<trkpt lat="46.30799666047096" lon="6.167483814060688"><ele></ele><time>2013-7-29T2:43:21Z</time></trkpt>
<trkpt lat="46.30803119391203" lon="6.167459087446332"><ele></ele><time>2013-7-29T2:43:24Z</time></trkpt>
<trkpt lat="46.30812850780785" lon="6.167414076626301"><ele></ele><time>2013-7-29T2:43:27Z</time></trkpt>
<trkpt lat="46.3082277495414" lon="6.167368059977889"><ele></ele><time>2013-7-29T2:43:30Z</time></trkpt>
<trkpt lat="46.30833461880684" lon="6.167316511273384"><ele></ele><time>2013-7-29T2:43:33Z</time></trkpt>
<trkpt lat="46.30854710005224" lon="6.167210396379232"><ele></ele><time>2013-7-29T2:43:36Z</time></trkpt>
<trkpt lat="46.30860107950866" lon="6.167179886251688"><ele></ele><time>2013-7-29T2:43:39Z</time></trkpt>
<trkpt lat="46.308847758919" lon="6.167026497423649"><ele></ele><time>2013-7-29T2:43:42Z</time></trkpt>
<trkpt lat="46.30890592932701" lon="6.166997998952866"><ele></ele><time>2013-7-29T2:43:45Z</time></trkpt>
<trkpt lat="46.30900793708861" lon="6.166962375864387"><ele></ele><time>2013-7-29T2:43:48Z</time></trkpt>
<trkpt lat="46.309158308431506" lon="6.166896829381585"><ele></ele><time>2013-7-29T2:43:51Z</time></trkpt>
<trkpt lat="46.30920449271798" lon="6.166871935129166"><ele></ele><time>2013-7-29T2:43:54Z</time></trkpt>
<trkpt lat="46.309255957603455" lon="6.166843771934509"><ele></ele><time>2013-7-29T2:43:57Z</time></trkpt>
<trkpt lat="46.30930448882282" lon="6.1668195482343435"><ele></ele><time>2013-7-29T2:44:0Z</time></trkpt>
<trkpt lat="46.30935302004218" lon="6.166798006743193"><ele></ele><time>2013-7-29T2:44:3Z</time></trkpt>
<trkpt lat="46.3094920758158" lon="6.16673531010747"><ele></ele><time>2013-7-29T2:44:6Z</time></trkpt>
<trkpt lat="46.30953767336905" lon="6.166716450825334"><ele></ele><time>2013-7-29T2:44:9Z</time></trkpt>
<trkpt lat="46.30958159454167" lon="6.166701195761561"><ele></ele><time>2013-7-29T2:44:12Z</time></trkpt>
<trkpt lat="46.3096316345036" lon="6.166684767231345"><ele></ele><time>2013-7-29T2:44:15Z</time></trkpt>
<trkpt lat="46.30967580713332" lon="6.166677558794618"><ele></ele><time>2013-7-29T2:44:18Z</time></trkpt>
<trkpt lat="46.30984495393932" lon="6.16663321852684"><ele></ele><time>2013-7-29T2:44:21Z</time></trkpt>
<trkpt lat="46.309887785464525" lon="6.166613018140197"><ele></ele><time>2013-7-29T2:44:24Z</time></trkpt>
<trkpt lat="46.3099220674485" lon="6.166570438072085"><ele></ele><time>2013-7-29T2:44:27Z</time></trkpt>
<trkpt lat="46.309943944215775" lon="6.166512183845043"><ele></ele><time>2013-7-29T2:44:30Z</time></trkpt>
<trkpt lat="46.30995693616569" lon="6.166449571028352"><ele></ele><time>2013-7-29T2:44:33Z</time></trkpt>
<trkpt lat="46.30996288731694" lon="6.166382934898138"><ele></ele><time>2013-7-29T2:44:36Z</time></trkpt>
<trkpt lat="46.309994235634804" lon="6.166229462251067"><ele></ele><time>2013-7-29T2:44:39Z</time></trkpt>
<trkpt lat="46.31002466194332" lon="6.166066266596317"><ele></ele><time>2013-7-29T2:44:42Z</time></trkpt>
<trkpt lat="46.31008484400809" lon="6.165745155885816"><ele></ele><time>2013-7-29T2:44:45Z</time></trkpt>
<trkpt lat="46.31019967608154" lon="6.165160853415728"><ele></ele><time>2013-7-29T2:44:48Z</time></trkpt>
<trkpt lat="46.31021769717336" lon="6.165078626945615"><ele></ele><time>2013-7-29T2:44:51Z</time></trkpt>
<trkpt lat="46.310234712436795" lon="6.1649971548467875"><ele></ele><time>2013-7-29T2:44:54Z</time></trkpt>
<trkpt lat="46.3102516438812" lon="6.164914760738611"><ele></ele><time>2013-7-29T2:44:57Z</time></trkpt>
<trkpt lat="46.3102688267827" lon="6.164828427135944"><ele></ele><time>2013-7-29T2:45:0Z</time></trkpt>
<trkpt lat="46.31036454811692" lon="6.164423665031791"><ele></ele><time>2013-7-29T2:45:3Z</time></trkpt>
<trkpt lat="46.31038676016033" lon="6.1643515806645155"><ele></ele><time>2013-7-29T2:45:6Z</time></trkpt>
<trkpt lat="46.31045348010957" lon="6.164228953421116"><ele></ele><time>2013-7-29T2:45:9Z</time></trkpt>
<trkpt lat="46.31053461693227" lon="6.164120826870203"><ele></ele><time>2013-7-29T2:45:12Z</time></trkpt>
<trkpt lat="46.31059111095965" lon="6.163981519639492"><ele></ele><time>2013-7-29T2:45:15Z</time></trkpt>
<trkpt lat="46.31064534187317" lon="6.163838859647512"><ele></ele><time>2013-7-29T2:45:18Z</time></trkpt>
<trkpt lat="46.31067333742976" lon="6.163766020908952"><ele></ele><time>2013-7-29T2:45:21Z</time></trkpt>
<trkpt lat="46.31086570210755" lon="6.163279032334685"><ele></ele><time>2013-7-29T2:45:24Z</time></trkpt>
<trkpt lat="46.310893865302205" lon="6.163210887461901"><ele></ele><time>2013-7-29T2:45:27Z</time></trkpt>
<trkpt lat="46.31092035211623" lon="6.1631393898278475"><ele></ele><time>2013-7-29T2:45:30Z</time></trkpt>
<trkpt lat="46.31094943732023" lon="6.163069065660238"><ele></ele><time>2013-7-29T2:45:33Z</time></trkpt>
<trkpt lat="46.31097919307649" lon="6.162998825311661"><ele></ele><time>2013-7-29T2:45:36Z</time></trkpt>
<trkpt lat="46.311005763709545" lon="6.162929004058242"><ele></ele><time>2013-7-29T2:45:39Z</time></trkpt>
<trkpt lat="46.31118044257164" lon="6.162517787888646"><ele></ele><time>2013-7-29T2:45:42Z</time></trkpt>
<trkpt lat="46.3114226795733" lon="6.1621801648288965"><ele></ele><time>2013-7-29T2:45:45Z</time></trkpt>
<trkpt lat="46.311463667079806" lon="6.162132387980819"><ele></ele><time>2013-7-29T2:45:48Z</time></trkpt>
<trkpt lat="46.31150390021503" lon="6.16208603605628"><ele></ele><time>2013-7-29T2:45:51Z</time></trkpt>
<trkpt lat="46.31154354661703" lon="6.162041025236249"><ele></ele><time>2013-7-29T2:45:54Z</time></trkpt>
<trkpt lat="46.31174152716994" lon="6.161826951429248"><ele></ele><time>2013-7-29T2:45:57Z</time></trkpt>
<trkpt lat="46.31177647970617" lon="6.161785125732422"><ele></ele><time>2013-7-29T2:46:0Z</time></trkpt>
<trkpt lat="46.311810091137886" lon="6.161745898425579"><ele></ele><time>2013-7-29T2:46:3Z</time></trkpt>
<trkpt lat="46.31184445694089" lon="6.161708096042275"><ele></ele><time>2013-7-29T2:46:6Z</time></trkpt>
<trkpt lat="46.31188158877194" lon="6.161665264517069"><ele></ele><time>2013-7-29T2:46:9Z</time></trkpt>
<trkpt lat="46.312021818012" lon="6.1615075170993805"><ele></ele><time>2013-7-29T2:46:12Z</time></trkpt>
<trkpt lat="46.31205375306308" lon="6.1614633444696665"><ele></ele><time>2013-7-29T2:46:15Z</time></trkpt>
<trkpt lat="46.31211410276592" lon="6.161384554579854"><ele></ele><time>2013-7-29T2:46:18Z</time></trkpt>
<trkpt lat="46.31214402616024" lon="6.161344908177853"><ele></ele><time>2013-7-29T2:46:21Z</time></trkpt>
<trkpt lat="46.31216363981366" lon="6.161295957863331"><ele></ele><time>2013-7-29T2:46:24Z</time></trkpt>
<trkpt lat="46.312183421105146" lon="6.161257652565837"><ele></ele><time>2013-7-29T2:46:27Z</time></trkpt>
<trkpt lat="46.3122031185776" lon="6.16121188737452"><ele></ele><time>2013-7-29T2:46:30Z</time></trkpt>
<trkpt lat="46.312249302864075" lon="6.161122536286712"><ele></ele><time>2013-7-29T2:46:33Z</time></trkpt>
<trkpt lat="46.31227293983102" lon="6.161084482446313"><ele></ele><time>2013-7-29T2:46:36Z</time></trkpt>
<trkpt lat="46.31229364313185" lon="6.161040058359504"><ele></ele><time>2013-7-29T2:46:39Z</time></trkpt>
<trkpt lat="46.312313843518496" lon="6.160990269854665"><ele></ele><time>2013-7-29T2:46:42Z</time></trkpt>
<trkpt lat="46.31233312189579" lon="6.160933692008257"><ele></ele><time>2013-7-29T2:46:45Z</time></trkpt>
<trkpt lat="46.31239908747375" lon="6.160750295966864"><ele></ele><time>2013-7-29T2:46:48Z</time></trkpt>
<trkpt lat="46.312421299517155" lon="6.160710649564862"><ele></ele><time>2013-7-29T2:46:51Z</time></trkpt>
<trkpt lat="46.3124465290457" lon="6.160673266276717"><ele></ele><time>2013-7-29T2:46:54Z</time></trkpt>
<trkpt lat="46.31247142329812" lon="6.160630518570542"><ele></ele><time>2013-7-29T2:46:57Z</time></trkpt>
<trkpt lat="46.3124967366457" lon="6.160584585741162"><ele></ele><time>2013-7-29T2:47:0Z</time></trkpt>
<trkpt lat="46.31256245076656" lon="6.160445949062705"><ele></ele><time>2013-7-29T2:47:3Z</time></trkpt>
<trkpt lat="46.31260444410145" lon="6.160345366224647"><ele></ele><time>2013-7-29T2:47:6Z</time></trkpt>
<trkpt lat="46.31270988844335" lon="6.160222319886088"><ele></ele><time>2013-7-29T2:47:9Z</time></trkpt>
<trkpt lat="46.312850285321474" lon="6.160327596589923"><ele></ele><time>2013-7-29T2:47:12Z</time></trkpt>
<trkpt lat="46.312892865389585" lon="6.160370009019971"><ele></ele><time>2013-7-29T2:47:15Z</time></trkpt>
<trkpt lat="46.31293955259025" lon="6.1604128405451775"><ele></ele><time>2013-7-29T2:47:18Z</time></trkpt>
<trkpt lat="46.31298582069576" lon="6.160451313480735"><ele></ele><time>2013-7-29T2:47:21Z</time></trkpt>
<trkpt lat="46.31317994557321" lon="6.160576622933149"><ele></ele><time>2013-7-29T2:47:24Z</time></trkpt>
<trkpt lat="46.313551515340805" lon="6.16074183024466"><ele></ele><time>2013-7-29T2:47:27Z</time></trkpt>
<trkpt lat="46.31364254280925" lon="6.160777118057013"><ele></ele><time>2013-7-29T2:47:30Z</time></trkpt>
<trkpt lat="46.31372862495482" lon="6.160812322050333"><ele></ele><time>2013-7-29T2:47:33Z</time></trkpt>
<trkpt lat="46.313783107325435" lon="6.160834701731801"><ele></ele><time>2013-7-29T2:47:36Z</time></trkpt>
<trkpt lat="46.313825687393546" lon="6.1608631163835526"><ele></ele><time>2013-7-29T2:47:39Z</time></trkpt>
<trkpt lat="46.313868183642626" lon="6.160845933482051"><ele></ele><time>2013-7-29T2:47:42Z</time></trkpt>
<trkpt lat="46.31390799768269" lon="6.1608119029551744"><ele></ele><time>2013-7-29T2:47:45Z</time></trkpt>
<trkpt lat="46.31405317224562" lon="6.160743003711104"><ele></ele><time>2013-7-29T2:47:48Z</time></trkpt>
<trkpt lat="46.314150150865316" lon="6.160706877708435"><ele></ele><time>2013-7-29T2:47:51Z</time></trkpt>
<trkpt lat="46.31433145143092" lon="6.160621466115117"><ele></ele><time>2013-7-29T2:47:54Z</time></trkpt>
<trkpt lat="46.31440605036914" lon="6.160551561042666"><ele></ele><time>2013-7-29T2:47:57Z</time></trkpt>
<trkpt lat="46.31447293795645" lon="6.160471849143505"><ele></ele><time>2013-7-29T2:48:0Z</time></trkpt>
<trkpt lat="46.314541501924396" lon="6.160387946292758"><ele></ele><time>2013-7-29T2:48:3Z</time></trkpt>
<trkpt lat="46.31460193544626" lon="6.160306055098772"><ele></ele><time>2013-7-29T2:48:6Z</time></trkpt>
<trkpt lat="46.31465566344559" lon="6.16022240370512"><ele></ele><time>2013-7-29T2:48:9Z</time></trkpt>
<trkpt lat="46.3147397339344" lon="6.160063985735178"><ele></ele><time>2013-7-29T2:48:12Z</time></trkpt>
<trkpt lat="46.31477912887931" lon="6.160031044855714"><ele></ele><time>2013-7-29T2:48:15Z</time></trkpt>
<trkpt lat="46.314922124147415" lon="6.159975556656718"><ele></ele><time>2013-7-29T2:48:18Z</time></trkpt>
<trkpt lat="46.31496772170067" lon="6.159952087327838"><ele></ele><time>2013-7-29T2:48:21Z</time></trkpt>
<trkpt lat="46.315220184624195" lon="6.159840691834688"><ele></ele><time>2013-7-29T2:48:24Z</time></trkpt>
<trkpt lat="46.315255304798484" lon="6.159822251647711"><ele></ele><time>2013-7-29T2:48:27Z</time></trkpt>
<trkpt lat="46.315310625359416" lon="6.159820659086108"><ele></ele><time>2013-7-29T2:48:30Z</time></trkpt>
<trkpt lat="46.315322779119015" lon="6.159810936078429"><ele></ele><time>2013-7-29T2:48:33Z</time></trkpt>
<trkpt lat="46.315397042781115" lon="6.1597572080791"><ele></ele><time>2013-7-29T2:48:36Z</time></trkpt>
<trkpt lat="46.315435180440545" lon="6.1597419530153275"><ele></ele><time>2013-7-29T2:48:39Z</time></trkpt>
<trkpt lat="46.31561270914972" lon="6.159661151468754"><ele></ele><time>2013-7-29T2:48:42Z</time></trkpt>
<trkpt lat="46.315909177064896" lon="6.15954028442502"><ele></ele><time>2013-7-29T2:48:45Z</time></trkpt>
<trkpt lat="46.31601529195905" lon="6.159520922228694"><ele></ele><time>2013-7-29T2:48:48Z</time></trkpt>
<trkpt lat="46.31609466858208" lon="6.159521425142884"><ele></ele><time>2013-7-29T2:48:51Z</time></trkpt>
<trkpt lat="46.31636925972998" lon="6.159524023532867"><ele></ele><time>2013-7-29T2:48:54Z</time></trkpt>
<trkpt lat="46.31645265966654" lon="6.159533830359578"><ele></ele><time>2013-7-29T2:48:57Z</time></trkpt>
<trkpt lat="46.316567324101925" lon="6.1595298908650875"><ele></ele><time>2013-7-29T2:49:0Z</time></trkpt>
<trkpt lat="46.31673705764115" lon="6.159530812874436"><ele></ele><time>2013-7-29T2:49:3Z</time></trkpt>
<trkpt lat="46.31681333296001" lon="6.159521592780948"><ele></ele><time>2013-7-29T2:49:6Z</time></trkpt>
<trkpt lat="46.3168518897146" lon="6.159522263333201"><ele></ele><time>2013-7-29T2:49:9Z</time></trkpt>
<trkpt lat="46.31689019501209" lon="6.159527208656073"><ele></ele><time>2013-7-29T2:49:12Z</time></trkpt>
<trkpt lat="46.31693160161376" lon="6.1595275439321995"><ele></ele><time>2013-7-29T2:49:15Z</time></trkpt>
<trkpt lat="46.31697376258671" lon="6.159523604437709"><ele></ele><time>2013-7-29T2:49:18Z</time></trkpt>
<trkpt lat="46.31701625883579" lon="6.159525029361248"><ele></ele><time>2013-7-29T2:49:21Z</time></trkpt>
<trkpt lat="46.3170556537807" lon="6.159524861723185"><ele></ele><time>2013-7-29T2:49:24Z</time></trkpt>
<trkpt lat="46.317422362044454" lon="6.15952611900866"><ele></ele><time>2013-7-29T2:49:27Z</time></trkpt>
<trkpt lat="46.317686727270484" lon="6.159535422921181"><ele></ele><time>2013-7-29T2:49:30Z</time></trkpt>
<trkpt lat="46.31777507252991" lon="6.159527376294136"><ele></ele><time>2013-7-29T2:49:33Z</time></trkpt>
<trkpt lat="46.31775705143809" lon="6.159511199221015"><ele></ele><time>2013-7-29T2:49:36Z</time></trkpt>
<trkpt lat="46.317637441679835" lon="6.159512456506491"><ele></ele><time>2013-7-29T2:49:39Z</time></trkpt>
<trkpt lat="46.317465947940946" lon="6.159531148150563"><ele></ele><time>2013-7-29T2:49:42Z</time></trkpt>
<trkpt lat="46.317322785034776" lon="6.159535422921181"><ele></ele><time>2013-7-29T2:49:45Z</time></trkpt>
<trkpt lat="46.31718657910824" lon="6.15952804684639"><ele></ele><time>2013-7-29T2:49:48Z</time></trkpt>
<trkpt lat="46.3170609343797" lon="6.159520419314504"><ele></ele><time>2013-7-29T2:49:51Z</time></trkpt>
<trkpt lat="46.31666757166386" lon="6.15950801409781"><ele></ele><time>2013-7-29T2:49:54Z</time></trkpt>
<trkpt lat="46.31651879288256" lon="6.159520335495472"><ele></ele><time>2013-7-29T2:49:57Z</time></trkpt>
<trkpt lat="46.316470513120294" lon="6.159524358808994"><ele></ele><time>2013-7-29T2:50:0Z</time></trkpt>
<trkpt lat="46.31641837768257" lon="6.159530142322183"><ele></ele><time>2013-7-29T2:50:3Z</time></trkpt>
<trkpt lat="46.31636171601713" lon="6.159525867551565"><ele></ele><time>2013-7-29T2:50:6Z</time></trkpt>
<trkpt lat="46.31630874238908" lon="6.159531231969595"><ele></ele><time>2013-7-29T2:50:9Z</time></trkpt>
<trkpt lat="46.31592937745154" lon="6.159542966634035"><ele></ele><time>2013-7-29T2:50:12Z</time></trkpt>
<trkpt lat="46.315630562603474" lon="6.159646734595299"><ele></ele><time>2013-7-29T2:50:15Z</time></trkpt>
<trkpt lat="46.31536913104355" lon="6.159768607467413"><ele></ele><time>2013-7-29T2:50:18Z</time></trkpt>
<trkpt lat="46.31533233448863" lon="6.159799871966243"><ele></ele><time>2013-7-29T2:50:21Z</time></trkpt>
<trkpt lat="46.315230997279286" lon="6.159837422892451"><ele></ele><time>2013-7-29T2:50:24Z</time></trkpt>
<trkpt lat="46.31514290347695" lon="6.15986323915422"><ele></ele><time>2013-7-29T2:50:27Z</time></trkpt>
<trkpt lat="46.315043829381466" lon="6.159899868071079"><ele></ele><time>2013-7-29T2:50:30Z</time></trkpt>
<trkpt lat="46.314994459971786" lon="6.1599271930754185"><ele></ele><time>2013-7-29T2:50:33Z</time></trkpt>
<trkpt lat="46.314791701734066" lon="6.159973880276084"><ele></ele><time>2013-7-29T2:50:36Z</time></trkpt>
<trkpt lat="46.314753480255604" lon="6.159846559166908"><ele></ele><time>2013-7-29T2:50:39Z</time></trkpt>
<trkpt lat="46.31475230678916" lon="6.159688225015998"><ele></ele><time>2013-7-29T2:50:42Z</time></trkpt>
<trkpt lat="46.31474358960986" lon="6.159524442628026"><ele></ele><time>2013-7-29T2:50:45Z</time></trkpt>
<trkpt lat="46.31472690962255" lon="6.159443641081452"><ele></ele><time>2013-7-29T2:50:48Z</time></trkpt>
<trkpt lat="46.31468776613474" lon="6.159188831225038"><ele></ele><time>2013-7-29T2:50:51Z</time></trkpt>
<trkpt lat="46.314655328169465" lon="6.1590247973799706"><ele></ele><time>2013-7-29T2:50:54Z</time></trkpt>
<trkpt lat="46.314627919346094" lon="6.158854309469461"><ele></ele><time>2013-7-29T2:50:57Z</time></trkpt>
<trkpt lat="46.31456279195845" lon="6.158386683091521"><ele></ele><time>2013-7-29T2:51:0Z</time></trkpt>
<trkpt lat="46.31452255882323" lon="6.157742869108915"><ele></ele><time>2013-7-29T2:51:3Z</time></trkpt>
<trkpt lat="46.314510237425566" lon="6.157560311257839"><ele></ele><time>2013-7-29T2:51:6Z</time></trkpt>
<trkpt lat="46.31449565291405" lon="6.157278260216117"><ele></ele><time>2013-7-29T2:51:9Z</time></trkpt>
<trkpt lat="46.31446287967265" lon="6.156822871416807"><ele></ele><time>2013-7-29T2:51:12Z</time></trkpt>
<trkpt lat="46.31442826241255" lon="6.156564373522997"><ele></ele><time>2013-7-29T2:51:15Z</time></trkpt>
<trkpt lat="46.31434637121856" lon="6.156139327213168"><ele></ele><time>2013-7-29T2:51:18Z</time></trkpt>
<trkpt lat="46.314258612692356" lon="6.155795669183135"><ele></ele><time>2013-7-29T2:51:21Z</time></trkpt>
<trkpt lat="46.31423715502024" lon="6.155703384429216"><ele></ele><time>2013-7-29T2:51:24Z</time></trkpt>
<trkpt lat="46.31421837955713" lon="6.1556158773601055"><ele></ele><time>2013-7-29T2:51:27Z</time></trkpt>
<trkpt lat="46.31421033293009" lon="6.155525017529726"><ele></ele><time>2013-7-29T2:51:30Z</time></trkpt>
<trkpt lat="46.31420354358852" lon="6.155432565137744"><ele></ele><time>2013-7-29T2:51:33Z</time></trkpt>
<trkpt lat="46.314144283533096" lon="6.155068706721067"><ele></ele><time>2013-7-29T2:51:36Z</time></trkpt>
<trkpt lat="46.31410287693143" lon="6.154421204701066"><ele></ele><time>2013-7-29T2:51:39Z</time></trkpt>
<trkpt lat="46.31410731934011" lon="6.154329339042306"><ele></ele><time>2013-7-29T2:51:42Z</time></trkpt>
<trkpt lat="46.31411234848201" lon="6.154243508353829"><ele></ele><time>2013-7-29T2:51:45Z</time></trkpt>
<trkpt lat="46.31411938928068" lon="6.154158432036638"><ele></ele><time>2013-7-29T2:51:48Z</time></trkpt>
<trkpt lat="46.31412643007934" lon="6.154073607176542"><ele></ele><time>2013-7-29T2:51:51Z</time></trkpt>
<trkpt lat="46.31416096352041" lon="6.1538394168019295"><ele></ele><time>2013-7-29T2:51:54Z</time></trkpt>
<trkpt lat="46.31421728990972" lon="6.153612853959203"><ele></ele><time>2013-7-29T2:51:57Z</time></trkpt>
<trkpt lat="46.31424654275179" lon="6.153549151495099"><ele></ele><time>2013-7-29T2:52:0Z</time></trkpt>
<trkpt lat="46.314277639612556" lon="6.153482934460044"><ele></ele><time>2013-7-29T2:52:3Z</time></trkpt>
<trkpt lat="46.31430186331272" lon="6.153417136520147"><ele></ele><time>2013-7-29T2:52:6Z</time></trkpt>
<trkpt lat="46.31432960741222" lon="6.153352847322822"><ele></ele><time>2013-7-29T2:52:9Z</time></trkpt>
<trkpt lat="46.314355842769146" lon="6.1532883904874325"><ele></ele><time>2013-7-29T2:52:12Z</time></trkpt>
<trkpt lat="46.31446053273976" lon="6.153036849573255"><ele></ele><time>2013-7-29T2:52:15Z</time></trkpt>
<trkpt lat="46.31448358297348" lon="6.152979517355561"><ele></ele><time>2013-7-29T2:52:18Z</time></trkpt>
<trkpt lat="46.31450562737882" lon="6.152924532070756"><ele></ele><time>2013-7-29T2:52:21Z</time></trkpt>
<trkpt lat="46.31453228183091" lon="6.152868876233697"><ele></ele><time>2013-7-29T2:52:24Z</time></trkpt>
<trkpt lat="46.31470545195043" lon="6.152473250404"><ele></ele><time>2013-7-29T2:52:27Z</time></trkpt>
<trkpt lat="46.31472632288933" lon="6.1524175107479095"><ele></ele><time>2013-7-29T2:52:30Z</time></trkpt>
<trkpt lat="46.31474543362856" lon="6.152359927073121"><ele></ele><time>2013-7-29T2:52:33Z</time></trkpt>
<trkpt lat="46.3147640414536" lon="6.1523067858070135"><ele></ele><time>2013-7-29T2:52:36Z</time></trkpt>
<trkpt lat="46.314786253497005" lon="6.152252135798335"><ele></ele><time>2013-7-29T2:52:39Z</time></trkpt>
<trkpt lat="46.31491516716778" lon="6.151923984289169"><ele></ele><time>2013-7-29T2:52:42Z</time></trkpt>
<trkpt lat="46.314937798306346" lon="6.151867490261793"><ele></ele><time>2013-7-29T2:52:45Z</time></trkpt>
<trkpt lat="46.31495263427496" lon="6.151809487491846"><ele></ele><time>2013-7-29T2:52:48Z</time></trkpt>
<trkpt lat="46.314973002299666" lon="6.1517545860260725"><ele></ele><time>2013-7-29T2:52:51Z</time></trkpt>
<trkpt lat="46.31499563343823" lon="6.151700019836426"><ele></ele><time>2013-7-29T2:52:54Z</time></trkpt>
<trkpt lat="46.31510795094073" lon="6.151356780901551"><ele></ele><time>2013-7-29T2:52:57Z</time></trkpt>
<trkpt lat="46.31514013744891" lon="6.151239601895213"><ele></ele><time>2013-7-29T2:53:0Z</time></trkpt>
<trkpt lat="46.315160086378455" lon="6.151178078725934"><ele></ele><time>2013-7-29T2:53:3Z</time></trkpt>
<trkpt lat="46.31517852656543" lon="6.15111923776567"><ele></ele><time>2013-7-29T2:53:6Z</time></trkpt>
<trkpt lat="46.31519512273371" lon="6.151060229167342"><ele></ele><time>2013-7-29T2:53:9Z</time></trkpt>
<trkpt lat="46.31521406583488" lon="6.151005243882537"><ele></ele><time>2013-7-29T2:53:12Z</time></trkpt>
<trkpt lat="46.31525153294206" lon="6.15088663995266"><ele></ele><time>2013-7-29T2:53:15Z</time></trkpt>
<trkpt lat="46.31529570557177" lon="6.15077524445951"><ele></ele><time>2013-7-29T2:53:18Z</time></trkpt>
<trkpt lat="46.31531531922519" lon="6.150719756260514"><ele></ele><time>2013-7-29T2:53:21Z</time></trkpt>
<trkpt lat="46.31533518433571" lon="6.150661585852504"><ele></ele><time>2013-7-29T2:53:24Z</time></trkpt>
<trkpt lat="46.315347170457244" lon="6.150593608617783"><ele></ele><time>2013-7-29T2:53:27Z</time></trkpt>
<trkpt lat="46.31536879576743" lon="6.150532169267535"><ele></ele><time>2013-7-29T2:53:30Z</time></trkpt>
<trkpt lat="46.31538514047861" lon="6.150465700775385"><ele></ele><time>2013-7-29T2:53:33Z</time></trkpt>
<trkpt lat="46.31544046103954" lon="6.150276185944676"><ele></ele><time>2013-7-29T2:53:36Z</time></trkpt>
<trkpt lat="46.31558840163052" lon="6.149737145751715"><ele></ele><time>2013-7-29T2:53:39Z</time></trkpt>
<trkpt lat="46.31560885347426" lon="6.14966263063252"><ele></ele><time>2013-7-29T2:53:42Z</time></trkpt>
<trkpt lat="46.31563123315573" lon="6.149592474102974"><ele></ele><time>2013-7-29T2:53:45Z</time></trkpt>
<trkpt lat="46.315654534846544" lon="6.149529777467251"><ele></ele><time>2013-7-29T2:53:48Z</time></trkpt>
<trkpt lat="46.31567188538611" lon="6.149465572088957"><ele></ele><time>2013-7-29T2:53:51Z</time></trkpt>
<trkpt lat="46.315685799345374" lon="6.1493949964642525"><ele></ele><time>2013-7-29T2:53:54Z</time></trkpt>
<trkpt lat="46.315709771588445" lon="6.149326851591468"><ele></ele><time>2013-7-29T2:53:57Z</time></trkpt>
<trkpt lat="46.31583692505956" lon="6.148787392303348"><ele></ele><time>2013-7-29T2:54:0Z</time></trkpt>
<trkpt lat="46.31597992032766" lon="6.148286405950785"><ele></ele><time>2013-7-29T2:54:3Z</time></trkpt>
<trkpt lat="46.3160540163517" lon="6.148022711277008"><ele></ele><time>2013-7-29T2:54:6Z</time></trkpt>
<trkpt lat="46.31611126475036" lon="6.147849541157484"><ele></ele><time>2013-7-29T2:54:9Z</time></trkpt>
<trkpt lat="46.31614311598241" lon="6.1477684043347836"><ele></ele><time>2013-7-29T2:54:12Z</time></trkpt>
<trkpt lat="46.31628988310695" lon="6.147279404103756"><ele></ele><time>2013-7-29T2:54:15Z</time></trkpt>
<trkpt lat="46.31645559333265" lon="6.146785458549857"><ele></ele><time>2013-7-29T2:54:18Z</time></trkpt>
<trkpt lat="46.31653907708824" lon="6.146585047245026"><ele></ele><time>2013-7-29T2:54:21Z</time></trkpt>
<trkpt lat="46.31657822057605" lon="6.146485470235348"><ele></ele><time>2013-7-29T2:54:24Z</time></trkpt>
<trkpt lat="46.316663045436144" lon="6.1462855618447065"><ele></ele><time>2013-7-29T2:54:27Z</time></trkpt>
<trkpt lat="46.3167932163924" lon="6.145989848300815"><ele></ele><time>2013-7-29T2:54:30Z</time></trkpt>
<trkpt lat="46.31688214838505" lon="6.145788598805666"><ele></ele><time>2013-7-29T2:54:33Z</time></trkpt>
<trkpt lat="46.316921627148986" lon="6.145688686519861"><ele></ele><time>2013-7-29T2:54:36Z</time></trkpt>
<trkpt lat="46.31695666350424" lon="6.145584415644407"><ele></ele><time>2013-7-29T2:54:39Z</time></trkpt>
<trkpt lat="46.31699086166918" lon="6.145482575520873"><ele></ele><time>2013-7-29T2:54:42Z</time></trkpt>
<trkpt lat="46.317025227472186" lon="6.145380986854434"><ele></ele><time>2013-7-29T2:54:45Z</time></trkpt>
<trkpt lat="46.31706512533128" lon="6.145293144509196"><ele></ele><time>2013-7-29T2:54:48Z</time></trkpt>
<trkpt lat="46.31723502650857" lon="6.144955437630415"><ele></ele><time>2013-7-29T2:54:51Z</time></trkpt>
<trkpt lat="46.31751741282642" lon="6.144393095746636"><ele></ele><time>2013-7-29T2:54:54Z</time></trkpt>
<trkpt lat="46.31758983246982" lon="6.1442412994802"><ele></ele><time>2013-7-29T2:54:57Z</time></trkpt>
<trkpt lat="46.31776610389352" lon="6.143863946199417"><ele></ele><time>2013-7-29T2:55:0Z</time></trkpt>
<trkpt lat="46.31783123128116" lon="6.143717262893915"><ele></ele><time>2013-7-29T2:55:3Z</time></trkpt>
<trkpt lat="46.31786450743675" lon="6.143644927069545"><ele></ele><time>2013-7-29T2:55:6Z</time></trkpt>
<trkpt lat="46.318022506311536" lon="6.1432912945747375"><ele></ele><time>2013-7-29T2:55:9Z</time></trkpt>
<trkpt lat="46.3181418646127" lon="6.143021145835519"><ele></ele><time>2013-7-29T2:55:12Z</time></trkpt>
<trkpt lat="46.31817237474024" lon="6.142958952113986"><ele></ele><time>2013-7-29T2:55:15Z</time></trkpt>
<trkpt lat="46.318200789391994" lon="6.142896506935358"><ele></ele><time>2013-7-29T2:55:18Z</time></trkpt>
<trkpt lat="46.31822895258665" lon="6.142835821956396"><ele></ele><time>2013-7-29T2:55:21Z</time></trkpt>
<trkpt lat="46.3182573672384" lon="6.1427768133580685"><ele></ele><time>2013-7-29T2:55:24Z</time></trkpt>
<trkpt lat="46.31831428036094" lon="6.142649995163083"><ele></ele><time>2013-7-29T2:55:27Z</time></trkpt>
<trkpt lat="46.3184595387429" lon="6.142347576096654"><ele></ele><time>2013-7-29T2:55:30Z</time></trkpt>
<trkpt lat="46.31848946213722" lon="6.142292506992817"><ele></ele><time>2013-7-29T2:55:33Z</time></trkpt>
<trkpt lat="46.31851913407445" lon="6.1422378569841385"><ele></ele><time>2013-7-29T2:55:36Z</time></trkpt>
<trkpt lat="46.318549728021026" lon="6.142183542251587"><ele></ele><time>2013-7-29T2:55:39Z</time></trkpt>
<trkpt lat="46.31872893311083" lon="6.141842817887664"><ele></ele><time>2013-7-29T2:55:42Z</time></trkpt>
<trkpt lat="46.31876153871417" lon="6.141790011897683"><ele></ele><time>2013-7-29T2:55:45Z</time></trkpt>
<trkpt lat="46.31879238411784" lon="6.14173511043191"><ele></ele><time>2013-7-29T2:55:48Z</time></trkpt>
<trkpt lat="46.318825241178274" lon="6.141679538413882"><ele></ele><time>2013-7-29T2:55:51Z</time></trkpt>
<trkpt lat="46.31885667331517" lon="6.141628324985504"><ele></ele><time>2013-7-29T2:55:54Z</time></trkpt>
<trkpt lat="46.319055408239365" lon="6.141327414661646"><ele></ele><time>2013-7-29T2:55:57Z</time></trkpt>
<trkpt lat="46.319088181480765" lon="6.141279889270663"><ele></ele><time>2013-7-29T2:56:0Z</time></trkpt>
<trkpt lat="46.31912196055055" lon="6.1412303522229195"><ele></ele><time>2013-7-29T2:56:3Z</time></trkpt>
<trkpt lat="46.31915682926774" lon="6.1411805637180805"><ele></ele><time>2013-7-29T2:56:6Z</time></trkpt>
<trkpt lat="46.3191916141659" lon="6.14113362506032"><ele></ele><time>2013-7-29T2:56:9Z</time></trkpt>
<trkpt lat="46.31932673044503" lon="6.140941260382533"><ele></ele><time>2013-7-29T2:56:12Z</time></trkpt>
<trkpt lat="46.31939479149878" lon="6.140841096639633"><ele></ele><time>2013-7-29T2:56:15Z</time></trkpt>
<trkpt lat="46.319429744035006" lon="6.14079256542027"><ele></ele><time>2013-7-29T2:56:18Z</time></trkpt>
<trkpt lat="46.31946478039026" lon="6.140746548771858"><ele></ele><time>2013-7-29T2:56:21Z</time></trkpt>
<trkpt lat="46.31950023584068" lon="6.140700448304415"><ele></ele><time>2013-7-29T2:56:24Z</time></trkpt>
<trkpt lat="46.319535272195935" lon="6.140652000904083"><ele></ele><time>2013-7-29T2:56:27Z</time></trkpt>
<trkpt lat="46.319636860862374" lon="6.14050573669374"><ele></ele><time>2013-7-29T2:56:30Z</time></trkpt>
<trkpt lat="46.31973534822464" lon="6.140364585444331"><ele></ele><time>2013-7-29T2:56:33Z</time></trkpt>
<trkpt lat="46.31976703181863" lon="6.140319406986237"><ele></ele><time>2013-7-29T2:56:36Z</time></trkpt>
<trkpt lat="46.319799637421966" lon="6.140275653451681"><ele></ele><time>2013-7-29T2:56:39Z</time></trkpt>
<trkpt lat="46.31983551196754" lon="6.140230055898428"><ele></ele><time>2013-7-29T2:56:42Z</time></trkpt>
<trkpt lat="46.31986862048507" lon="6.140184123069048"><ele></ele><time>2013-7-29T2:56:45Z</time></trkpt>
<trkpt lat="46.31990089081228" lon="6.140136597678065"><ele></ele><time>2013-7-29T2:56:48Z</time></trkpt>
<trkpt lat="46.32012820802629" lon="6.139811547473073"><ele></ele><time>2013-7-29T2:56:51Z</time></trkpt>
<trkpt lat="46.320161148905754" lon="6.139769051223993"><ele></ele><time>2013-7-29T2:56:54Z</time></trkpt>
<trkpt lat="46.32019316777587" lon="6.13972638733685"><ele></ele><time>2013-7-29T2:56:57Z</time></trkpt>
<trkpt lat="46.32022334262729" lon="6.139681627973914"><ele></ele><time>2013-7-29T2:57:0Z</time></trkpt>
<trkpt lat="46.32047899067402" lon="6.139308549463749"><ele></ele><time>2013-7-29T2:57:3Z</time></trkpt>
<trkpt lat="46.32051235064864" lon="6.139262700453401"><ele></ele><time>2013-7-29T2:57:6Z</time></trkpt>
<trkpt lat="46.32054638117552" lon="6.139211403205991"><ele></ele><time>2013-7-29T2:57:9Z</time></trkpt>
<trkpt lat="46.32057957351208" lon="6.13916396163404"><ele></ele><time>2013-7-29T2:57:12Z</time></trkpt>
<trkpt lat="46.32061377167702" lon="6.1391169391572475"><ele></ele><time>2013-7-29T2:57:15Z</time></trkpt>
<trkpt lat="46.32071209140122" lon="6.138976877555251"><ele></ele><time>2013-7-29T2:57:18Z</time></trkpt>
<trkpt lat="46.32083320990205" lon="6.138780154287815"><ele></ele><time>2013-7-29T2:57:21Z</time></trkpt>
<trkpt lat="46.32086464203894" lon="6.138733886182308"><ele></ele><time>2013-7-29T2:57:24Z</time></trkpt>
<trkpt lat="46.32089406251907" lon="6.13868753425777"><ele></ele><time>2013-7-29T2:57:27Z</time></trkpt>
<trkpt lat="46.32092775776982" lon="6.138643193989992"><ele></ele><time>2013-7-29T2:57:30Z</time></trkpt>
<trkpt lat="46.32096069864929" lon="6.138596590608358"><ele></ele><time>2013-7-29T2:57:33Z</time></trkpt>
<trkpt lat="46.32099213078618" lon="6.138547640293837"><ele></ele><time>2013-7-29T2:57:36Z</time></trkpt>
<trkpt lat="46.32123151794076" lon="6.138146985322237"><ele></ele><time>2013-7-29T2:57:39Z</time></trkpt>
<trkpt lat="46.321262614801526" lon="6.138095436617732"><ele></ele><time>2013-7-29T2:57:42Z</time></trkpt>
<trkpt lat="46.3212934602052" lon="6.138044893741608"><ele></ele><time>2013-7-29T2:57:45Z</time></trkpt>
<trkpt lat="46.32132480852306" lon="6.137994350865483"><ele></ele><time>2013-7-29T2:57:48Z</time></trkpt>
<trkpt lat="46.32135766558349" lon="6.1379430536180735"><ele></ele><time>2013-7-29T2:57:51Z</time></trkpt>
<trkpt lat="46.32156034000218" lon="6.13762428984046"><ele></ele><time>2013-7-29T2:57:54Z</time></trkpt>
<trkpt lat="46.32169998250902" lon="6.137406360358"><ele></ele><time>2013-7-29T2:57:57Z</time></trkpt>
<trkpt lat="46.32173711434007" lon="6.1373496148735285"><ele></ele><time>2013-7-29T2:58:0Z</time></trkpt>
<trkpt lat="46.32177189923823" lon="6.137294294312596"><ele></ele><time>2013-7-29T2:58:3Z</time></trkpt>
<trkpt lat="46.32180819287896" lon="6.137238973751664"><ele></ele><time>2013-7-29T2:58:6Z</time></trkpt>
<trkpt lat="46.32184524089098" lon="6.137188682332635"><ele></ele><time>2013-7-29T2:58:9Z</time></trkpt>
<trkpt lat="46.32192327640951" lon="6.13709463737905"><ele></ele><time>2013-7-29T2:58:12Z</time></trkpt>
<trkpt lat="46.3220220990479" lon="6.137051386758685"><ele></ele><time>2013-7-29T2:58:15Z</time></trkpt>
<trkpt lat="46.322162160649896" lon="6.13714643754065"><ele></ele><time>2013-7-29T2:58:18Z</time></trkpt>
<trkpt lat="46.32220633327961" lon="6.1371982377022505"><ele></ele><time>2013-7-29T2:58:21Z</time></trkpt>
<trkpt lat="46.32248930633068" lon="6.137509206309915"><ele></ele><time>2013-7-29T2:58:24Z</time></trkpt>
<trkpt lat="46.322537334635854" lon="6.137561090290546"><ele></ele><time>2013-7-29T2:58:27Z</time></trkpt>
<trkpt lat="46.32258494384587" lon="6.137614566832781"><ele></ele><time>2013-7-29T2:58:30Z</time></trkpt>
<trkpt lat="46.32263305597007" lon="6.137667708098888"><ele></ele><time>2013-7-29T2:58:33Z</time></trkpt>
<trkpt lat="46.32268267683685" lon="6.137721939012408"><ele></ele><time>2013-7-29T2:58:36Z</time></trkpt>
<trkpt lat="46.32283338345587" lon="6.137885805219412"><ele></ele><time>2013-7-29T2:58:39Z</time></trkpt>
<trkpt lat="46.323194559663534" lon="6.138272965326905"><ele></ele><time>2013-7-29T2:58:42Z</time></trkpt>
<trkpt lat="46.32324619218707" lon="6.138329710811377"><ele></ele><time>2013-7-29T2:58:45Z</time></trkpt>
<trkpt lat="46.32366327568889" lon="6.138828098773956"><ele></ele><time>2013-7-29T2:58:48Z</time></trkpt>
<trkpt lat="46.32398690097034" lon="6.139345513656735"><ele></ele><time>2013-7-29T2:58:51Z</time></trkpt>
<trkpt lat="46.32417348213494" lon="6.139655644074082"><ele></ele><time>2013-7-29T2:58:54Z</time></trkpt>
<trkpt lat="46.32434606552124" lon="6.139854295179248"><ele></ele><time>2013-7-29T2:58:57Z</time></trkpt>
<trkpt lat="46.32440666668117" lon="6.13990617915988"><ele></ele><time>2013-7-29T2:59:0Z</time></trkpt>
<trkpt lat="46.324605820700526" lon="6.140039032325149"><ele></ele><time>2013-7-29T2:59:3Z</time></trkpt>
<trkpt lat="46.32508032023907" lon="6.140363831073046"><ele></ele><time>2013-7-29T2:59:6Z</time></trkpt>
<trkpt lat="46.32564777508378" lon="6.140723079442978"><ele></ele><time>2013-7-29T2:59:9Z</time></trkpt>
<trkpt lat="46.3257228769362" lon="6.140760630369186"><ele></ele><time>2013-7-29T2:59:12Z</time></trkpt>
<trkpt lat="46.32625211030245" lon="6.1409757938236"><ele></ele><time>2013-7-29T2:59:15Z</time></trkpt>
<trkpt lat="46.326328217983246" lon="6.141006555408239"><ele></ele><time>2013-7-29T2:59:18Z</time></trkpt>
<trkpt lat="46.32655117660761" lon="6.14111308939755"><ele></ele><time>2013-7-29T2:59:21Z</time></trkpt>
<trkpt lat="46.3266222551465" lon="6.141151981428266"><ele></ele><time>2013-7-29T2:59:24Z</time></trkpt>
<trkpt lat="46.32669542916119" lon="6.141195232048631"><ele></ele><time>2013-7-29T2:59:27Z</time></trkpt>
<trkpt lat="46.326765501871705" lon="6.141242841258645"><ele></ele><time>2013-7-29T2:59:30Z</time></trkpt>
<trkpt lat="46.326835323125124" lon="6.141295982524753"><ele></ele><time>2013-7-29T2:59:33Z</time></trkpt>
<trkpt lat="46.32689969614148" lon="6.141349291428924"><ele></ele><time>2013-7-29T2:59:36Z</time></trkpt>
<trkpt lat="46.326960464939475" lon="6.141409641131759"><ele></ele><time>2013-7-29T2:59:39Z</time></trkpt>
<trkpt lat="46.327139250934124" lon="6.141605777665973"><ele></ele><time>2013-7-29T2:59:42Z</time></trkpt>
<trkpt lat="46.3275271654129" lon="6.142039205878973"><ele></ele><time>2013-7-29T2:59:45Z</time></trkpt>
<trkpt lat="46.32793108932674" lon="6.142411949113011"><ele></ele><time>2013-7-29T2:59:48Z</time></trkpt>
<trkpt lat="46.32841841317713" lon="6.142726605758071"><ele></ele><time>2013-7-29T2:59:51Z</time></trkpt>
<trkpt lat="46.3284960296005" lon="6.142771365121007"><ele></ele><time>2013-7-29T2:59:54Z</time></trkpt>
<trkpt lat="46.3289759773761" lon="6.143030449748039"><ele></ele><time>2013-7-29T2:59:57Z</time></trkpt>
<trkpt lat="46.32913841865957" lon="6.143114101141691"><ele></ele><time>2013-7-29T3:0:0Z</time></trkpt>
<trkpt lat="46.3292212318629" lon="6.143160117790103"><ele></ele><time>2013-7-29T3:0:3Z</time></trkpt>
<trkpt lat="46.32930823601782" lon="6.143207559362054"><ele></ele><time>2013-7-29T3:0:6Z</time></trkpt>
<trkpt lat="46.32939012721181" lon="6.143252402544022"><ele></ele><time>2013-7-29T3:0:9Z</time></trkpt>
<trkpt lat="46.329472940415144" lon="6.14329825155437"><ele></ele><time>2013-7-29T3:0:12Z</time></trkpt>
<trkpt lat="46.32972439751029" lon="6.143435714766383"><ele></ele><time>2013-7-29T3:0:15Z</time></trkpt>
<trkpt lat="46.32989530451596" lon="6.143525568768382"><ele></ele><time>2013-7-29T3:0:18Z</time></trkpt>
<trkpt lat="46.330061769112945" lon="6.14361341111362"><ele></ele><time>2013-7-29T3:0:21Z</time></trkpt>
<trkpt lat="46.33014659397304" lon="6.143658170476556"><ele></ele><time>2013-7-29T3:0:24Z</time></trkpt>
<trkpt lat="46.33023141883314" lon="6.143700918182731"><ele></ele><time>2013-7-29T3:0:27Z</time></trkpt>
<trkpt lat="46.33031649515033" lon="6.143742743879557"><ele></ele><time>2013-7-29T3:0:30Z</time></trkpt>
<trkpt lat="46.330402325838804" lon="6.143784653395414"><ele></ele><time>2013-7-29T3:0:33Z</time></trkpt>
<trkpt lat="46.33090700022876" lon="6.144079444929957"><ele></ele><time>2013-7-29T3:0:36Z</time></trkpt>
<trkpt lat="46.3311312161386" lon="6.144284214824438"><ele></ele><time>2013-7-29T3:0:39Z</time></trkpt>
<trkpt lat="46.33119919337332" lon="6.144360406324267"><ele></ele><time>2013-7-29T3:0:42Z</time></trkpt>
<trkpt lat="46.331263817846775" lon="6.144439866766334"><ele></ele><time>2013-7-29T3:0:45Z</time></trkpt>
<trkpt lat="46.331433299928904" lon="6.144682941958308"><ele></ele><time>2013-7-29T3:0:48Z</time></trkpt>
<trkpt lat="46.33152407594025" lon="6.144858878105879"><ele></ele><time>2013-7-29T3:0:51Z</time></trkpt>
<trkpt lat="46.331606889143586" lon="6.145034311339259"><ele></ele><time>2013-7-29T3:0:54Z</time></trkpt>
<trkpt lat="46.33164620026946" lon="6.145115867257118"><ele></ele><time>2013-7-29T3:0:57Z</time></trkpt>
<trkpt lat="46.33168534375727" lon="6.14519608207047"><ele></ele><time>2013-7-29T3:1:0Z</time></trkpt>
<trkpt lat="46.331727001816034" lon="6.145274955779314"><ele></ele><time>2013-7-29T3:1:3Z</time></trkpt>
<trkpt lat="46.33177042007446" lon="6.14534754306078"><ele></ele><time>2013-7-29T3:1:6Z</time></trkpt>
<trkpt lat="46.332075940445065" lon="6.145717268809676"><ele></ele><time>2013-7-29T3:1:9Z</time></trkpt>
<trkpt lat="46.33247148245573" lon="6.146044749766588"><ele></ele><time>2013-7-29T3:1:12Z</time></trkpt>
<trkpt lat="46.332694943994284" lon="6.146244322881103"><ele></ele><time>2013-7-29T3:1:15Z</time></trkpt>
<trkpt lat="46.33277197368443" lon="6.146316910162568"><ele></ele><time>2013-7-29T3:1:18Z</time></trkpt>
<trkpt lat="46.332920752465725" lon="6.146483793854713"><ele></ele><time>2013-7-29T3:1:21Z</time></trkpt>
<trkpt lat="46.33323079906404" lon="6.146967094391584"><ele></ele><time>2013-7-29T3:1:24Z</time></trkpt>
<trkpt lat="46.33328737691045" lon="6.147067844867706"><ele></ele><time>2013-7-29T3:1:27Z</time></trkpt>
<trkpt lat="46.333343451842666" lon="6.1471732053905725"><ele></ele><time>2013-7-29T3:1:30Z</time></trkpt>
<trkpt lat="46.33339458145201" lon="6.147273704409599"><ele></ele><time>2013-7-29T3:1:33Z</time></trkpt>
<trkpt lat="46.333445543423295" lon="6.1473737843334675"><ele></ele><time>2013-7-29T3:1:36Z</time></trkpt>
<trkpt lat="46.333601446822286" lon="6.147660445421934"><ele></ele><time>2013-7-29T3:1:39Z</time></trkpt>
<trkpt lat="46.33394862525165" lon="6.148290932178497"><ele></ele><time>2013-7-29T3:1:42Z</time></trkpt>
<trkpt lat="46.33400168269873" lon="6.14837508648634"><ele></ele><time>2013-7-29T3:1:45Z</time></trkpt>
<trkpt lat="46.33415666408837" lon="6.148631824180484"><ele></ele><time>2013-7-29T3:1:48Z</time></trkpt>
<trkpt lat="46.33431248366833" lon="6.148871211335063"><ele></ele><time>2013-7-29T3:1:51Z</time></trkpt>
<trkpt lat="46.334525467827916" lon="6.149199195206165"><ele></ele><time>2013-7-29T3:1:54Z</time></trkpt>
<trkpt lat="46.33458296768367" lon="6.149280332028866"><ele></ele><time>2013-7-29T3:1:57Z</time></trkpt>
<trkpt lat="46.33463862352073" lon="6.149363815784454"><ele></ele><time>2013-7-29T3:2:0Z</time></trkpt>
<trkpt lat="46.33474750444293" lon="6.149535980075598"><ele></ele><time>2013-7-29T3:2:3Z</time></trkpt>
<trkpt lat="46.334863509982824" lon="6.149708395823836"><ele></ele><time>2013-7-29T3:2:6Z</time></trkpt>
<trkpt lat="46.33492100983858" lon="6.1497934721410275"><ele></ele><time>2013-7-29T3:2:9Z</time></trkpt>
<trkpt lat="46.33526793681085" lon="6.150301164016128"><ele></ele><time>2013-7-29T3:2:12Z</time></trkpt>
<trkpt lat="46.335328202694654" lon="6.150389006361365"><ele></ele><time>2013-7-29T3:2:15Z</time></trkpt>
<trkpt lat="46.33538578636944" lon="6.150472993031144"><ele></ele><time>2013-7-29T3:2:18Z</time></trkpt>
<trkpt lat="46.33544119074941" lon="6.150559242814779"><ele></ele><time>2013-7-29T3:2:21Z</time></trkpt>
<trkpt lat="46.3358542509377" lon="6.151172295212746"><ele></ele><time>2013-7-29T3:2:24Z</time></trkpt>
<trkpt lat="46.336142756044865" lon="6.151574794203043"><ele></ele><time>2013-7-29T3:2:27Z</time></trkpt>
<trkpt lat="46.336526311933994" lon="6.151991877704859"><ele></ele><time>2013-7-29T3:2:30Z</time></trkpt>
<trkpt lat="46.336888913065195" lon="6.152443327009678"><ele></ele><time>2013-7-29T3:2:33Z</time></trkpt>
<trkpt lat="46.33728780783713" lon="6.152953617274761"><ele></ele><time>2013-7-29T3:2:36Z</time></trkpt>
<trkpt lat="46.33756558410823" lon="6.153322085738182"><ele></ele><time>2013-7-29T3:2:39Z</time></trkpt>
<trkpt lat="46.33773950859904" lon="6.1535413563251495"><ele></ele><time>2013-7-29T3:2:42Z</time></trkpt>
<trkpt lat="46.33800990879536" lon="6.153935976326466"><ele></ele><time>2013-7-29T3:2:45Z</time></trkpt>
<trkpt lat="46.33805466815829" lon="6.154034631326795"><ele></ele><time>2013-7-29T3:2:48Z</time></trkpt>
<trkpt lat="46.338100265711546" lon="6.154111996293068"><ele></ele><time>2013-7-29T3:2:51Z</time></trkpt>
<trkpt lat="46.33822984993458" lon="6.15422741509974"><ele></ele><time>2013-7-29T3:2:54Z</time></trkpt>
<trkpt lat="46.3384220469743" lon="6.15441894158721"><ele></ele><time>2013-7-29T3:2:57Z</time></trkpt>
<trkpt lat="46.338481809943914" lon="6.154491696506739"><ele></ele><time>2013-7-29T3:3:0Z</time></trkpt>
<trkpt lat="46.338902497664094" lon="6.155033083632588"><ele></ele><time>2013-7-29T3:3:3Z</time></trkpt>
<trkpt lat="46.33909025229514" lon="6.15526576526463"><ele></ele><time>2013-7-29T3:3:6Z</time></trkpt>
<trkpt lat="46.33934698998928" lon="6.155581260100007"><ele></ele><time>2013-7-29T3:3:9Z</time></trkpt>
<trkpt lat="46.33941102772951" lon="6.1556612234562635"><ele></ele><time>2013-7-29T3:3:12Z</time></trkpt>
<trkpt lat="46.33947514928877" lon="6.155739678069949"><ele></ele><time>2013-7-29T3:3:15Z</time></trkpt>
<trkpt lat="46.339539187029004" lon="6.155818132683635"><ele></ele><time>2013-7-29T3:3:18Z</time></trkpt>
<trkpt lat="46.33960213512182" lon="6.15589658729732"><ele></ele><time>2013-7-29T3:3:21Z</time></trkpt>
<trkpt lat="46.33973498828709" lon="6.156049640849233"><ele></ele><time>2013-7-29T3:3:24Z</time></trkpt>
<trkpt lat="46.34012717753649" lon="6.156493378803134"><ele></ele><time>2013-7-29T3:3:27Z</time></trkpt>
<trkpt lat="46.340194987133145" lon="6.156570157036185"><ele></ele><time>2013-7-29T3:3:30Z</time></trkpt>
<trkpt lat="46.34025877341628" lon="6.1566410679370165"><ele></ele><time>2013-7-29T3:3:33Z</time></trkpt>
<trkpt lat="46.34032138623297" lon="6.156710973009467"><ele></ele><time>2013-7-29T3:3:36Z</time></trkpt>
<trkpt lat="46.34057250805199" lon="6.1569891683757305"><ele></ele><time>2013-7-29T3:3:39Z</time></trkpt>
<trkpt lat="46.340942569077015" lon="6.157403569668531"><ele></ele><time>2013-7-29T3:3:42Z</time></trkpt>
<trkpt lat="46.341425282880664" lon="6.15793758071959"><ele></ele><time>2013-7-29T3:3:45Z</time></trkpt>
<trkpt lat="46.34148336946964" lon="6.158005893230438"><ele></ele><time>2013-7-29T3:3:48Z</time></trkpt>
<trkpt lat="46.341600716114044" lon="6.1581421829760075"><ele></ele><time>2013-7-29T3:3:51Z</time></trkpt>
<trkpt lat="46.34165880270302" lon="6.158209154382348"><ele></ele><time>2013-7-29T3:3:54Z</time></trkpt>
<trkpt lat="46.341958874836564" lon="6.1585418321192265"><ele></ele><time>2013-7-29T3:3:57Z</time></trkpt>
<trkpt lat="46.34232549928129" lon="6.1589134857058525"><ele></ele><time>2013-7-29T3:4:0Z</time></trkpt>
<trkpt lat="46.34265935048461" lon="6.159143233671784"><ele></ele><time>2013-7-29T3:4:3Z</time></trkpt>
<trkpt lat="46.34278256446123" lon="6.159261921420693"><ele></ele><time>2013-7-29T3:4:6Z</time></trkpt>
<trkpt lat="46.34292664937675" lon="6.159329395741224"><ele></ele><time>2013-7-29T3:4:9Z</time></trkpt>
<trkpt lat="46.34322077035904" lon="6.1594341695308685"><ele></ele><time>2013-7-29T3:4:12Z</time></trkpt>
<trkpt lat="46.34329394437373" lon="6.159459231421351"><ele></ele><time>2013-7-29T3:4:15Z</time></trkpt>
<trkpt lat="46.34351204149425" lon="6.1595505103468895"><ele></ele><time>2013-7-29T3:4:18Z</time></trkpt>
<trkpt lat="46.34384958073497" lon="6.1596898175776005"><ele></ele><time>2013-7-29T3:4:21Z</time></trkpt>
<trkpt lat="46.343900710344315" lon="6.159743294119835"><ele></ele><time>2013-7-29T3:4:24Z</time></trkpt>
<trkpt lat="46.34393457323313" lon="6.159919900819659"><ele></ele><time>2013-7-29T3:4:27Z</time></trkpt>
<trkpt lat="46.34392091073096" lon="6.160007994621992"><ele></ele><time>2013-7-29T3:4:30Z</time></trkpt>
<trkpt lat="46.34390582330525" lon="6.160094663500786"><ele></ele><time>2013-7-29T3:4:33Z</time></trkpt>
<trkpt lat="46.343870451673865" lon="6.160261379554868"><ele></ele><time>2013-7-29T3:4:36Z</time></trkpt>
<trkpt lat="46.34383533149958" lon="6.160430358722806"><ele></ele><time>2013-7-29T3:4:39Z</time></trkpt>
<trkpt lat="46.34382133372128" lon="6.160515351220965"><ele></ele><time>2013-7-29T3:4:42Z</time></trkpt>
<trkpt lat="46.343768779188395" lon="6.1608292534947395"><ele></ele><time>2013-7-29T3:4:45Z</time></trkpt>
<trkpt lat="46.343753105029464" lon="6.1609031818807125"><ele></ele><time>2013-7-29T3:4:48Z</time></trkpt>
<trkpt lat="46.343721337616444" lon="6.161057325080037"><ele></ele><time>2013-7-29T3:4:51Z</time></trkpt>
<trkpt lat="46.34370356798172" lon="6.161130079999566"><ele></ele><time>2013-7-29T3:4:54Z</time></trkpt>
<trkpt lat="46.343687642365694" lon="6.161196883767843"><ele></ele><time>2013-7-29T3:4:57Z</time></trkpt>
<trkpt lat="46.34367213584483" lon="6.161263519898057"><ele></ele><time>2013-7-29T3:5:0Z</time></trkpt>
<trkpt lat="46.343661323189735" lon="6.16132965311408"><ele></ele><time>2013-7-29T3:5:3Z</time></trkpt>
<trkpt lat="46.34365084581077" lon="6.161398468539119"><ele></ele><time>2013-7-29T3:5:6Z</time></trkpt>
<trkpt lat="46.34359401650727" lon="6.161751346662641"><ele></ele><time>2013-7-29T3:5:9Z</time></trkpt>
<trkpt lat="46.34358027018607" lon="6.16182267665863"><ele></ele><time>2013-7-29T3:5:12Z</time></trkpt>
<trkpt lat="46.34356685914099" lon="6.1618915759027"><ele></ele><time>2013-7-29T3:5:15Z</time></trkpt>
<trkpt lat="46.343555711209774" lon="6.16195703856647"><ele></ele><time>2013-7-29T3:5:18Z</time></trkpt>
<trkpt lat="46.34354338981211" lon="6.16202300414443"><ele></ele><time>2013-7-29T3:5:21Z</time></trkpt>
<trkpt lat="46.34353777393699" lon="6.162077905610204"><ele></ele><time>2013-7-29T3:5:24Z</time></trkpt>
<trkpt lat="46.34355026297271" lon="6.162170022726059"><ele></ele><time>2013-7-29T3:5:27Z</time></trkpt>
<trkpt lat="46.343585131689906" lon="6.162200029939413"><ele></ele><time>2013-7-29T3:5:30Z</time></trkpt>
<trkpt lat="46.34368311613798" lon="6.162222744897008"><ele></ele><time>2013-7-29T3:5:33Z</time></trkpt>
<trkpt lat="46.34374086745083" lon="6.162240598350763"><ele></ele><time>2013-7-29T3:5:36Z</time></trkpt>
<trkpt lat="46.34398469701409" lon="6.162320896983147"><ele></ele><time>2013-7-29T3:5:39Z</time></trkpt>
<trkpt lat="46.34411168284714" lon="6.162366410717368"><ele></ele><time>2013-7-29T3:5:42Z</time></trkpt>
<trkpt lat="46.34444729425013" lon="6.162488618865609"><ele></ele><time>2013-7-29T3:5:45Z</time></trkpt>
<trkpt lat="46.344516444951296" lon="6.1625126749277115"><ele></ele><time>2013-7-29T3:5:48Z</time></trkpt>
<trkpt lat="46.34465826675296" lon="6.162560451775789"><ele></ele><time>2013-7-29T3:5:51Z</time></trkpt>
<trkpt lat="46.34501642547548" lon="6.162691880017519"><ele></ele><time>2013-7-29T3:5:54Z</time></trkpt>
<trkpt lat="46.34544985368848" lon="6.1628298461437225"><ele></ele><time>2013-7-29T3:5:57Z</time></trkpt>
<trkpt lat="46.34559226222336" lon="6.162886759266257"><ele></ele><time>2013-7-29T3:6:0Z</time></trkpt>
<trkpt lat="46.34587951004505" lon="6.163003351539373"><ele></ele><time>2013-7-29T3:6:3Z</time></trkpt>
<trkpt lat="46.346228113397956" lon="6.16318104788661"><ele></ele><time>2013-7-29T3:6:6Z</time></trkpt>
<trkpt lat="46.34630388580263" lon="6.163219856098294"><ele></ele><time>2013-7-29T3:6:9Z</time></trkpt>
<trkpt lat="46.34666179306805" lon="6.16347961127758"><ele></ele><time>2013-7-29T3:6:12Z</time></trkpt>
<trkpt lat="46.346907718107104" lon="6.1638118699193"><ele></ele><time>2013-7-29T3:6:15Z</time></trkpt>
<trkpt lat="46.34696454741061" lon="6.163899041712284"><ele></ele><time>2013-7-29T3:6:18Z</time></trkpt>
<trkpt lat="46.347151547670364" lon="6.164145302027464"><ele></ele><time>2013-7-29T3:6:21Z</time></trkpt>
<trkpt lat="46.3472914416343" lon="6.164288967847824"><ele></ele><time>2013-7-29T3:6:24Z</time></trkpt>
<trkpt lat="46.34766971692443" lon="6.164553165435791"><ele></ele><time>2013-7-29T3:6:27Z</time></trkpt>
<trkpt lat="46.34808814153075" lon="6.164668081328273"><ele></ele><time>2013-7-29T3:6:30Z</time></trkpt>
<trkpt lat="46.34860144928098" lon="6.164764305576682"><ele></ele><time>2013-7-29T3:6:33Z</time></trkpt>
<trkpt lat="46.34911970235407" lon="6.164951724931598"><ele></ele><time>2013-7-29T3:6:36Z</time></trkpt>
<trkpt lat="46.349378703162074" lon="6.165048871189356"><ele></ele><time>2013-7-29T3:6:39Z</time></trkpt>
<trkpt lat="46.34946319274604" lon="6.165082398802042"><ele></ele><time>2013-7-29T3:6:42Z</time></trkpt>
<trkpt lat="46.34954893961549" lon="6.165115004405379"><ele></ele><time>2013-7-29T3:6:45Z</time></trkpt>
<trkpt lat="46.349634351208806" lon="6.165146939456463"><ele></ele><time>2013-7-29T3:6:48Z</time></trkpt>
<trkpt lat="46.349722193554044" lon="6.165176527574658"><ele></ele><time>2013-7-29T3:6:51Z</time></trkpt>
<trkpt lat="46.34980944916606" lon="6.165203936398029"><ele></ele><time>2013-7-29T3:6:54Z</time></trkpt>
<trkpt lat="46.349983122199774" lon="6.165241235867143"><ele></ele><time>2013-7-29T3:6:57Z</time></trkpt>
<trkpt lat="46.35040791705251" lon="6.165245678275824"><ele></ele><time>2013-7-29T3:7:0Z</time></trkpt>
<trkpt lat="46.350917369127274" lon="6.165169570595026"><ele></ele><time>2013-7-29T3:7:3Z</time></trkpt>
<trkpt lat="46.35118156671524" lon="6.165145095437765"><ele></ele><time>2013-7-29T3:7:6Z</time></trkpt>
<trkpt lat="46.35126898996532" lon="6.165136964991689"><ele></ele><time>2013-7-29T3:7:9Z</time></trkpt>
<trkpt lat="46.351354820653796" lon="6.165130091831088"><ele></ele><time>2013-7-29T3:7:12Z</time></trkpt>
<trkpt lat="46.351443165913224" lon="6.16512531414628"><ele></ele><time>2013-7-29T3:7:15Z</time></trkpt>
<trkpt lat="46.351531678810716" lon="6.165126152336597"><ele></ele><time>2013-7-29T3:7:18Z</time></trkpt>
<trkpt lat="46.351716835051775" lon="6.165145179256797"><ele></ele><time>2013-7-29T3:7:21Z</time></trkpt>
<trkpt lat="46.3521680328995" lon="6.165301334112883"><ele></ele><time>2013-7-29T3:7:24Z</time></trkpt>
<trkpt lat="46.35225553996861" lon="6.165340896695852"><ele></ele><time>2013-7-29T3:7:27Z</time></trkpt>
<trkpt lat="46.3523474894464" lon="6.165386913344264"><ele></ele><time>2013-7-29T3:7:30Z</time></trkpt>
<trkpt lat="46.35243005119264" lon="6.165439048781991"><ele></ele><time>2013-7-29T3:7:33Z</time></trkpt>
<trkpt lat="46.352511774748564" lon="6.165506020188332"><ele></ele><time>2013-7-29T3:7:36Z</time></trkpt>
<trkpt lat="46.352588972076774" lon="6.165585480630398"><ele></ele><time>2013-7-29T3:7:39Z</time></trkpt>
<trkpt lat="46.3527653273195" lon="6.165894269943237"><ele></ele><time>2013-7-29T3:7:42Z</time></trkpt>
<trkpt lat="46.353049809113145" lon="6.166394669562578"><ele></ele><time>2013-7-29T3:7:45Z</time></trkpt>
<trkpt lat="46.35313446633518" lon="6.166430963203311"><ele></ele><time>2013-7-29T3:7:48Z</time></trkpt>
<trkpt lat="46.35331501252949" lon="6.1663860362023115"><ele></ele><time>2013-7-29T3:7:51Z</time></trkpt>
<trkpt lat="46.35345566086471" lon="6.166217140853405"><ele></ele><time>2013-7-29T3:7:54Z</time></trkpt>
<trkpt lat="46.353521374985576" lon="6.166127035394311"><ele></ele><time>2013-7-29T3:7:57Z</time></trkpt>
<trkpt lat="46.35358180850744" lon="6.166032655164599"><ele></ele><time>2013-7-29T3:8:0Z</time></trkpt>
<trkpt lat="46.3536445889622" lon="6.16594129242003"><ele></ele><time>2013-7-29T3:8:3Z</time></trkpt>
<trkpt lat="46.353709464892745" lon="6.1658521089702845"><ele></ele><time>2013-7-29T3:8:6Z</time></trkpt>
<trkpt lat="46.35384986177087" lon="6.165694864466786"><ele></ele><time>2013-7-29T3:8:9Z</time></trkpt>
<trkpt lat="46.35401850566268" lon="6.165652284398675"><ele></ele><time>2013-7-29T3:8:12Z</time></trkpt>
<trkpt lat="46.35410115122795" lon="6.1656904220581055"><ele></ele><time>2013-7-29T3:8:15Z</time></trkpt>
<trkpt lat="46.354176588356495" lon="6.165742892771959"><ele></ele><time>2013-7-29T3:8:18Z</time></trkpt>
<trkpt lat="46.35425127111375" lon="6.165794609114528"><ele></ele><time>2013-7-29T3:8:21Z</time></trkpt>
<trkpt lat="46.35432503186166" lon="6.1658412124961615"><ele></ele><time>2013-7-29T3:8:24Z</time></trkpt>
<trkpt lat="46.354478085413575" lon="6.165910782292485"><ele></ele><time>2013-7-29T3:8:27Z</time></trkpt>
<trkpt lat="46.35455025359988" lon="6.1659336648881435"><ele></ele><time>2013-7-29T3:8:30Z</time></trkpt>
<trkpt lat="46.35462116450071" lon="6.165955206379294"><ele></ele><time>2013-7-29T3:8:33Z</time></trkpt>
<trkpt lat="46.35476030409336" lon="6.1659961100667715"><ele></ele><time>2013-7-29T3:8:36Z</time></trkpt>
<trkpt lat="46.35482769459486" lon="6.166014466434717"><ele></ele><time>2013-7-29T3:8:39Z</time></trkpt>
<trkpt lat="46.35489164851606" lon="6.166049167513847"><ele></ele><time>2013-7-29T3:8:42Z</time></trkpt>
<trkpt lat="46.354955015704036" lon="6.166084874421358"><ele></ele><time>2013-7-29T3:8:45Z</time></trkpt>
<trkpt lat="46.35502131655812" lon="6.166110523045063"><ele></ele><time>2013-7-29T3:8:48Z</time></trkpt>
<trkpt lat="46.35508912615478" lon="6.166123263537884"><ele></ele><time>2013-7-29T3:8:51Z</time></trkpt>
<trkpt lat="46.355221308767796" lon="6.166127203032374"><ele></ele><time>2013-7-29T3:8:54Z</time></trkpt>
<trkpt lat="46.355284759774804" lon="6.166109684854746"><ele></ele><time>2013-7-29T3:8:57Z</time></trkpt>
<trkpt lat="46.35534510947764" lon="6.166077330708504"><ele></ele><time>2013-7-29T3:9:0Z</time></trkpt>
<trkpt lat="46.355398921296" lon="6.166028715670109"><ele></ele><time>2013-7-29T3:9:3Z</time></trkpt>
<trkpt lat="46.355448458343744" lon="6.165963336825371"><ele></ele><time>2013-7-29T3:9:6Z</time></trkpt>
<trkpt lat="46.35549170896411" lon="6.165892761200666"><ele></ele><time>2013-7-29T3:9:9Z</time></trkpt>
<trkpt lat="46.35553269647062" lon="6.165817491710186"><ele></ele><time>2013-7-29T3:9:12Z</time></trkpt>
<trkpt lat="46.355572091415524" lon="6.165742389857769"><ele></ele><time>2013-7-29T3:9:15Z</time></trkpt>
<trkpt lat="46.35561182163656" lon="6.165666868910193"><ele></ele><time>2013-7-29T3:9:18Z</time></trkpt>
<trkpt lat="46.35569748468697" lon="6.165521023795009"><ele></ele><time>2013-7-29T3:9:21Z</time></trkpt>
<trkpt lat="46.35592019185424" lon="6.165322121232748"><ele></ele><time>2013-7-29T3:9:24Z</time></trkpt>
<trkpt lat="46.356125213205814" lon="6.1653315089643"><ele></ele><time>2013-7-29T3:9:27Z</time></trkpt>
<trkpt lat="46.35619352571666" lon="6.165353050455451"><ele></ele><time>2013-7-29T3:9:30Z</time></trkpt>
<trkpt lat="46.356257731094956" lon="6.165369227528572"><ele></ele><time>2013-7-29T3:9:33Z</time></trkpt>
<trkpt lat="46.35632176883519" lon="6.1653929483145475"><ele></ele><time>2013-7-29T3:9:36Z</time></trkpt>
<trkpt lat="46.35638580657542" lon="6.165418345481157"><ele></ele><time>2013-7-29T3:9:39Z</time></trkpt>
<trkpt lat="46.35645001195371" lon="6.165436198934913"><ele></ele><time>2013-7-29T3:9:42Z</time></trkpt>
<trkpt lat="46.356757963076234" lon="6.165531249716878"><ele></ele><time>2013-7-29T3:9:45Z</time></trkpt>
<trkpt lat="46.35681412182748" lon="6.165541727095842"><ele></ele><time>2013-7-29T3:9:48Z</time></trkpt>
<trkpt lat="46.35687145404518" lon="6.165556730702519"><ele></ele><time>2013-7-29T3:9:51Z</time></trkpt>
<trkpt lat="46.35692819952965" lon="6.165571818128228"><ele></ele><time>2013-7-29T3:9:54Z</time></trkpt>
<trkpt lat="46.35698486119509" lon="6.1655843909829855"><ele></ele><time>2013-7-29T3:9:57Z</time></trkpt>
<trkpt lat="46.35711234994233" lon="6.1656061839312315"><ele></ele><time>2013-7-29T3:10:0Z</time></trkpt>
<trkpt lat="46.35717169381678" lon="6.165616828948259"><ele></ele><time>2013-7-29T3:10:3Z</time></trkpt>
<trkpt lat="46.35736514814198" lon="6.165659409016371"><ele></ele><time>2013-7-29T3:10:6Z</time></trkpt>
<trkpt lat="46.35743044316769" lon="6.165675586089492"><ele></ele><time>2013-7-29T3:10:9Z</time></trkpt>
<trkpt lat="46.35749909095466" lon="6.165693774819374"><ele></ele><time>2013-7-29T3:10:12Z</time></trkpt>
<trkpt lat="46.357567738741636" lon="6.165710622444749"><ele></ele><time>2013-7-29T3:10:15Z</time></trkpt>
<trkpt lat="46.3576421700418" lon="6.165731744840741"><ele></ele><time>2013-7-29T3:10:18Z</time></trkpt>
<trkpt lat="46.35807459242642" lon="6.165896700695157"><ele></ele><time>2013-7-29T3:10:21Z</time></trkpt>
<trkpt lat="46.358221024274826" lon="6.165972640737891"><ele></ele><time>2013-7-29T3:10:24Z</time></trkpt>
<trkpt lat="46.358363097533584" lon="6.166058136150241"><ele></ele><time>2013-7-29T3:10:27Z</time></trkpt>
<trkpt lat="46.35843241587281" lon="6.166103649884462"><ele></ele><time>2013-7-29T3:10:30Z</time></trkpt>
<trkpt lat="46.358571387827396" lon="6.166204484179616"><ele></ele><time>2013-7-29T3:10:33Z</time></trkpt>
<trkpt lat="46.35904270224273" lon="6.166627518832684"><ele></ele><time>2013-7-29T3:10:36Z</time></trkpt>
<trkpt lat="46.35924579575658" lon="6.16682717576623"><ele></ele><time>2013-7-29T3:10:39Z</time></trkpt>
<trkpt lat="46.35931469500065" lon="6.16689314134419"><ele></ele><time>2013-7-29T3:10:42Z</time></trkpt>
<trkpt lat="46.3593811634928" lon="6.166959526017308"><ele></ele><time>2013-7-29T3:10:45Z</time></trkpt>
<trkpt lat="46.359654162079096" lon="6.167223639786243"><ele></ele><time>2013-7-29T3:10:48Z</time></trkpt>
<trkpt lat="46.359858345240355" lon="6.1674147471785545"><ele></ele><time>2013-7-29T3:10:51Z</time></trkpt>
<trkpt lat="46.3599303457886" lon="6.167476521804929"><ele></ele><time>2013-7-29T3:10:54Z</time></trkpt>
<trkpt lat="46.360003938898444" lon="6.167535781860352"><ele></ele><time>2013-7-29T3:10:57Z</time></trkpt>
<trkpt lat="46.360462345182896" lon="6.167814144864678"><ele></ele><time>2013-7-29T3:11:0Z</time></trkpt>
<trkpt lat="46.36076937429607" lon="6.167986309155822"><ele></ele><time>2013-7-29T3:11:3Z</time></trkpt>
<trkpt lat="46.360843889415264" lon="6.16802872158587"><ele></ele><time>2013-7-29T3:11:6Z</time></trkpt>
<trkpt lat="46.36114228516817" lon="6.168200382962823"><ele></ele><time>2013-7-29T3:11:9Z</time></trkpt>
<trkpt lat="46.361287627369165" lon="6.168284537270665"><ele></ele><time>2013-7-29T3:11:12Z</time></trkpt>
<trkpt lat="46.3616534974426" lon="6.168487714603543"><ele></ele><time>2013-7-29T3:11:15Z</time></trkpt>
<trkpt lat="46.361726922914386" lon="6.168529540300369"><ele></ele><time>2013-7-29T3:11:18Z</time></trkpt>
<trkpt lat="46.3618004322052" lon="6.168570863083005"><ele></ele><time>2013-7-29T3:11:21Z</time></trkpt>
<trkpt lat="46.3618762884289" lon="6.168615790084004"><ele></ele><time>2013-7-29T3:11:24Z</time></trkpt>
<trkpt lat="46.361948791891336" lon="6.168658118695021"><ele></ele><time>2013-7-29T3:11:27Z</time></trkpt>
<trkpt lat="46.36247618123889" lon="6.168942600488663"><ele></ele><time>2013-7-29T3:11:30Z</time></trkpt>
<trkpt lat="46.36262814514339" lon="6.169022563844919"><ele></ele><time>2013-7-29T3:11:33Z</time></trkpt>
<trkpt lat="46.362939197570086" lon="6.169193973764777"><ele></ele><time>2013-7-29T3:11:36Z</time></trkpt>
<trkpt lat="46.36302402243018" lon="6.169239738956094"><ele></ele><time>2013-7-29T3:11:39Z</time></trkpt>
<trkpt lat="46.36360983364284" lon="6.1695184372365475"><ele></ele><time>2013-7-29T3:11:42Z</time></trkpt>
<trkpt lat="46.36369775980711" lon="6.169558167457581"><ele></ele><time>2013-7-29T3:11:45Z</time></trkpt>
<trkpt lat="46.363871516659856" lon="6.169622289016843"><ele></ele><time>2013-7-29T3:11:48Z</time></trkpt>
<trkpt lat="46.36396078392863" lon="6.169652882963419"><ele></ele><time>2013-7-29T3:11:51Z</time></trkpt>
<trkpt lat="46.36413663625717" lon="6.169712562114"><ele></ele><time>2013-7-29T3:11:54Z</time></trkpt>
<trkpt lat="46.36422355659306" lon="6.16974039003253"><ele></ele><time>2013-7-29T3:11:57Z</time></trkpt>
<trkpt lat="46.36431240476668" lon="6.169769475236535"><ele></ele><time>2013-7-29T3:12:0Z</time></trkpt>
<trkpt lat="46.364397229626775" lon="6.169795710593462"><ele></ele><time>2013-7-29T3:12:3Z</time></trkpt>
<trkpt lat="46.36448599398136" lon="6.169822281226516"><ele></ele><time>2013-7-29T3:12:6Z</time></trkpt>
<trkpt lat="46.36483191512525" lon="6.169905094429851"><ele></ele><time>2013-7-29T3:12:9Z</time></trkpt>
<trkpt lat="46.365096028894186" lon="6.169963600113988"><ele></ele><time>2013-7-29T3:12:12Z</time></trkpt>
<trkpt lat="46.36554538272321" lon="6.170064518228173"><ele></ele><time>2013-7-29T3:12:15Z</time></trkpt>
<trkpt lat="46.36563951149583" lon="6.170084970071912"><ele></ele><time>2013-7-29T3:12:18Z</time></trkpt>
<trkpt lat="46.365727353841066" lon="6.170104080811143"><ele></ele><time>2013-7-29T3:12:21Z</time></trkpt>
<trkpt lat="46.36599004268646" lon="6.170155545696616"><ele></ele><time>2013-7-29T3:12:24Z</time></trkpt>
<trkpt lat="46.36608039960265" lon="6.170170968398452"><ele></ele><time>2013-7-29T3:12:27Z</time></trkpt>
<trkpt lat="46.36616782285273" lon="6.170188821852207"><ele></ele><time>2013-7-29T3:12:30Z</time></trkpt>
<trkpt lat="46.366349793970585" lon="6.170223606750369"><ele></ele><time>2013-7-29T3:12:33Z</time></trkpt>
<trkpt lat="46.36689394712448" lon="6.170238358899951"><ele></ele><time>2013-7-29T3:12:36Z</time></trkpt>
<trkpt lat="46.367351515218616" lon="6.170131992548704"><ele></ele><time>2013-7-29T3:12:39Z</time></trkpt>
<trkpt lat="46.36743969283998" lon="6.170098884031177"><ele></ele><time>2013-7-29T3:12:42Z</time></trkpt>
<trkpt lat="46.36752803809941" lon="6.170060159638524"><ele></ele><time>2013-7-29T3:12:45Z</time></trkpt>
<trkpt lat="46.367617724463344" lon="6.170014310628176"><ele></ele><time>2013-7-29T3:12:48Z</time></trkpt>
<trkpt lat="46.367963226512074" lon="6.169798979535699"><ele></ele><time>2013-7-29T3:12:51Z</time></trkpt>
<trkpt lat="46.36845113709569" lon="6.169365970417857"><ele></ele><time>2013-7-29T3:12:54Z</time></trkpt>
<trkpt lat="46.36893150396645" lon="6.168904630467296"><ele></ele><time>2013-7-29T3:12:57Z</time></trkpt>
<trkpt lat="46.36901096440852" lon="6.1688298638910055"><ele></ele><time>2013-7-29T3:13:0Z</time></trkpt>
<trkpt lat="46.3690912630409" lon="6.168751576915383"><ele></ele><time>2013-7-29T3:13:3Z</time></trkpt>
<trkpt lat="46.36957054026425" lon="6.1682965233922005"><ele></ele><time>2013-7-29T3:13:6Z</time></trkpt>
<trkpt lat="46.36981378309429" lon="6.1680688709020615"><ele></ele><time>2013-7-29T3:13:9Z</time></trkpt>
<trkpt lat="46.3698925729841" lon="6.1679949425160885"><ele></ele><time>2013-7-29T3:13:12Z</time></trkpt>
<trkpt lat="46.37012810446322" lon="6.167776677757502"><ele></ele><time>2013-7-29T3:13:15Z</time></trkpt>
<trkpt lat="46.37044049799442" lon="6.167482221499085"><ele></ele><time>2013-7-29T3:13:18Z</time></trkpt>
<trkpt lat="46.370749957859516" lon="6.167188603430986"><ele></ele><time>2013-7-29T3:13:21Z</time></trkpt>
<trkpt lat="46.37113854289055" lon="6.166821392253041"><ele></ele><time>2013-7-29T3:13:24Z</time></trkpt>
<trkpt lat="46.37160030193627" lon="6.166383940726519"><ele></ele><time>2013-7-29T3:13:27Z</time></trkpt>
<trkpt lat="46.371914790943265" lon="6.166087556630373"><ele></ele><time>2013-7-29T3:13:30Z</time></trkpt>
<trkpt lat="46.372356936335564" lon="6.165577434003353"><ele></ele><time>2013-7-29T3:13:33Z</time></trkpt>
<trkpt lat="46.37242265045643" lon="6.165480287745595"><ele></ele><time>2013-7-29T3:13:36Z</time></trkpt>
<trkpt lat="46.37248677201569" lon="6.165380459278822"><ele></ele><time>2013-7-29T3:13:39Z</time></trkpt>
<trkpt lat="46.372549468651414" lon="6.165281301364303"><ele></ele><time>2013-7-29T3:13:42Z</time></trkpt>
<trkpt lat="46.37261090800166" lon="6.165179880335927"><ele></ele><time>2013-7-29T3:13:45Z</time></trkpt>
<trkpt lat="46.37267234735191" lon="6.165077788755298"><ele></ele><time>2013-7-29T3:13:48Z</time></trkpt>
<trkpt lat="46.37273252941668" lon="6.1649715062230825"><ele></ele><time>2013-7-29T3:13:51Z</time></trkpt>
<trkpt lat="46.3727936334908" lon="6.1648566741496325"><ele></ele><time>2013-7-29T3:13:54Z</time></trkpt>
<trkpt lat="46.37284920550883" lon="6.164746368303895"><ele></ele><time>2013-7-29T3:13:57Z</time></trkpt>
<trkpt lat="46.37319806031883" lon="6.16412359289825"><ele></ele><time>2013-7-29T3:14:0Z</time></trkpt>
<trkpt lat="46.37327148579061" lon="6.164044719189405"><ele></ele><time>2013-7-29T3:14:3Z</time></trkpt>
<trkpt lat="46.373497964814305" lon="6.163861155509949"><ele></ele><time>2013-7-29T3:14:6Z</time></trkpt>
<trkpt lat="46.37357541359961" lon="6.1638091038912535"><ele></ele><time>2013-7-29T3:14:9Z</time></trkpt>
<trkpt lat="46.37365587987006" lon="6.163763506338"><ele></ele><time>2013-7-29T3:14:12Z</time></trkpt>
<trkpt lat="46.37373358011246" lon="6.163706509396434"><ele></ele><time>2013-7-29T3:14:15Z</time></trkpt>
<trkpt lat="46.373804826289415" lon="6.163658816367388"><ele></ele><time>2013-7-29T3:14:18Z</time></trkpt>
<trkpt lat="46.37387732975185" lon="6.163612799718976"><ele></ele><time>2013-7-29T3:14:21Z</time></trkpt>
<trkpt lat="46.374080842360854" lon="6.163486735895276"><ele></ele><time>2013-7-29T3:14:24Z</time></trkpt>
<trkpt lat="46.37413834221661" lon="6.1634506937116385"><ele></ele><time>2013-7-29T3:14:27Z</time></trkpt>
<trkpt lat="46.3741943333298" lon="6.163411382585764"><ele></ele><time>2013-7-29T3:14:30Z</time></trkpt>
<trkpt lat="46.37431754730642" lon="6.1633137334138155"><ele></ele><time>2013-7-29T3:14:33Z</time></trkpt>
<trkpt lat="46.37441008351743" lon="6.163152968510985"><ele></ele><time>2013-7-29T3:14:36Z</time></trkpt>
<trkpt lat="46.37460974045098" lon="6.162707721814513"><ele></ele><time>2013-7-29T3:14:39Z</time></trkpt>
<trkpt lat="46.374691631644964" lon="6.162546956911683"><ele></ele><time>2013-7-29T3:14:42Z</time></trkpt>
<trkpt lat="46.3747311104089" lon="6.162473866716027"><ele></ele><time>2013-7-29T3:14:45Z</time></trkpt>
<trkpt lat="46.374779557809234" lon="6.162398345768452"><ele></ele><time>2013-7-29T3:14:48Z</time></trkpt>
<trkpt lat="46.37482574209571" lon="6.162321902811527"><ele></ele><time>2013-7-29T3:14:51Z</time></trkpt>
<trkpt lat="46.374872932210565" lon="6.162249064072967"><ele></ele><time>2013-7-29T3:14:54Z</time></trkpt>
<trkpt lat="46.375197395682335" lon="6.161865592002869"><ele></ele><time>2013-7-29T3:14:57Z</time></trkpt>
<trkpt lat="46.3752562366426" lon="6.161814713850617"><ele></ele><time>2013-7-29T3:15:0Z</time></trkpt>
<trkpt lat="46.37531792744994" lon="6.161765847355127"><ele></ele><time>2013-7-29T3:15:3Z</time></trkpt>
<trkpt lat="46.375379618257284" lon="6.161722093820572"><ele></ele><time>2013-7-29T3:15:6Z</time></trkpt>
<trkpt lat="46.37550417333841" lon="6.161651182919741"><ele></ele><time>2013-7-29T3:15:9Z</time></trkpt>
<trkpt lat="46.375882951542735" lon="6.161506678909063"><ele></ele><time>2013-7-29T3:15:12Z</time></trkpt>
<trkpt lat="46.375942127779126" lon="6.161485807970166"><ele></ele><time>2013-7-29T3:15:15Z</time></trkpt>
<trkpt lat="46.37599811889231" lon="6.1614668648689985"><ele></ele><time>2013-7-29T3:15:18Z</time></trkpt>
<trkpt lat="46.37605503201485" lon="6.161450436338782"><ele></ele><time>2013-7-29T3:15:21Z</time></trkpt>
<trkpt lat="46.37610993348062" lon="6.1614409647881985"><ele></ele><time>2013-7-29T3:15:24Z</time></trkpt>
<trkpt lat="46.376224933192134" lon="6.161418501287699"><ele></ele><time>2013-7-29T3:15:27Z</time></trkpt>
<trkpt lat="46.37638762593269" lon="6.161381537094712"><ele></ele><time>2013-7-29T3:15:30Z</time></trkpt>
<trkpt lat="46.37644110247493" lon="6.16137164644897"><ele></ele><time>2013-7-29T3:15:33Z</time></trkpt>
<trkpt lat="46.37649382464588" lon="6.161356307566166"><ele></ele><time>2013-7-29T3:15:36Z</time></trkpt>
<trkpt lat="46.37654487043619" lon="6.161341303959489"><ele></ele><time>2013-7-29T3:15:39Z</time></trkpt>
<trkpt lat="46.376598766073585" lon="6.161324707791209"><ele></ele><time>2013-7-29T3:15:42Z</time></trkpt>
<trkpt lat="46.37664386071265" lon="6.161308865994215"><ele></ele><time>2013-7-29T3:15:45Z</time></trkpt>
<trkpt lat="46.37692390009761" lon="6.161243906244636"><ele></ele><time>2013-7-29T3:15:48Z</time></trkpt>
<trkpt lat="46.37703043408692" lon="6.161220017820597"><ele></ele><time>2013-7-29T3:15:51Z</time></trkpt>
<trkpt lat="46.37708181515336" lon="6.161208366975188"><ele></ele><time>2013-7-29T3:15:54Z</time></trkpt>
<trkpt lat="46.37713051401079" lon="6.161194033920765"><ele></ele><time>2013-7-29T3:15:57Z</time></trkpt>
<trkpt lat="46.37718239799142" lon="6.161178862676024"><ele></ele><time>2013-7-29T3:16:0Z</time></trkpt>
<trkpt lat="46.37723285704851" lon="6.161164864897728"><ele></ele><time>2013-7-29T3:16:3Z</time></trkpt>
<trkpt lat="46.37733360752463" lon="6.161136534065008"><ele></ele><time>2013-7-29T3:16:6Z</time></trkpt>
<trkpt lat="46.377547765150666" lon="6.16108481772244"><ele></ele><time>2013-7-29T3:16:9Z</time></trkpt>
<trkpt lat="46.37760207988322" lon="6.161067970097065"><ele></ele><time>2013-7-29T3:16:12Z</time></trkpt>
<trkpt lat="46.37765639461577" lon="6.161052631214261"><ele></ele><time>2013-7-29T3:16:15Z</time></trkpt>
<trkpt lat="46.37771255336702" lon="6.161037543788552"><ele></ele><time>2013-7-29T3:16:18Z</time></trkpt>
<trkpt lat="46.37776653282344" lon="6.161022121086717"><ele></ele><time>2013-7-29T3:16:21Z</time></trkpt>
<trkpt lat="46.37813776731491" lon="6.160918604582548"><ele></ele><time>2013-7-29T3:16:24Z</time></trkpt>
<trkpt lat="46.378355948254466" lon="6.160853393375874"><ele></ele><time>2013-7-29T3:16:27Z</time></trkpt>
<trkpt lat="46.378412023186684" lon="6.1608366295695305"><ele></ele><time>2013-7-29T3:16:30Z</time></trkpt>
<trkpt lat="46.378466337919235" lon="6.1608274932950735"><ele></ele><time>2013-7-29T3:16:33Z</time></trkpt>
<trkpt lat="46.3785201497376" lon="6.160813411697745"><ele></ele><time>2013-7-29T3:16:36Z</time></trkpt>
<trkpt lat="46.37857647612691" lon="6.160800755023956"><ele></ele><time>2013-7-29T3:16:39Z</time></trkpt>
<trkpt lat="46.378633975982666" lon="6.160792205482721"><ele></ele><time>2013-7-29T3:16:42Z</time></trkpt>
<trkpt lat="46.37874134816229" lon="6.160761024802923"><ele></ele><time>2013-7-29T3:16:45Z</time></trkpt>
<trkpt lat="46.37906304560602" lon="6.160693382844329"><ele></ele><time>2013-7-29T3:16:48Z</time></trkpt>
<trkpt lat="46.3791192881763" lon="6.1606784630566835"><ele></ele><time>2013-7-29T3:16:51Z</time></trkpt>
<trkpt lat="46.37917494401336" lon="6.160660777240992"><ele></ele><time>2013-7-29T3:16:54Z</time></trkpt>
<trkpt lat="46.379229594022036" lon="6.160635966807604"><ele></ele><time>2013-7-29T3:16:57Z</time></trkpt>
<trkpt lat="46.379281310364604" lon="6.160606294870377"><ele></ele><time>2013-7-29T3:17:0Z</time></trkpt>
<trkpt lat="46.37933596037328" lon="6.160569917410612"><ele></ele><time>2013-7-29T3:17:3Z</time></trkpt>
<trkpt lat="46.379439728334546" lon="6.160485679283738"><ele></ele><time>2013-7-29T3:17:6Z</time></trkpt>
<trkpt lat="46.3795664627105" lon="6.160303456708789"><ele></ele><time>2013-7-29T3:17:9Z</time></trkpt>
<trkpt lat="46.37966226786375" lon="6.1600838508456945"><ele></ele><time>2013-7-29T3:17:12Z</time></trkpt>
<trkpt lat="46.379708452150226" lon="6.159927528351545"><ele></ele><time>2013-7-29T3:17:15Z</time></trkpt>
<trkpt lat="46.379855973646045" lon="6.15936728194356"><ele></ele><time>2013-7-29T3:17:18Z</time></trkpt>
<trkpt lat="46.37988061644137" lon="6.159294946119189"><ele></ele><time>2013-7-29T3:17:21Z</time></trkpt>
<trkpt lat="46.3799118809402" lon="6.159229567274451"><ele></ele><time>2013-7-29T3:17:24Z</time></trkpt>
<trkpt lat="46.379948761314154" lon="6.159166367724538"><ele></ele><time>2013-7-29T3:17:27Z</time></trkpt>
<trkpt lat="46.37998756952584" lon="6.159109454602003"><ele></ele><time>2013-7-29T3:17:30Z</time></trkpt>
<trkpt lat="46.38002872467041" lon="6.159064192324877"><ele></ele><time>2013-7-29T3:17:33Z</time></trkpt>
<trkpt lat="46.380244977772236" lon="6.158982384949923"><ele></ele><time>2013-7-29T3:17:36Z</time></trkpt>
<trkpt lat="46.38044438324869" lon="6.159041058272123"><ele></ele><time>2013-7-29T3:17:39Z</time></trkpt>
<trkpt lat="46.380528369918466" lon="6.159107023850083"><ele></ele><time>2013-7-29T3:17:42Z</time></trkpt>
<trkpt lat="46.38057254254818" lon="6.1591382045298815"><ele></ele><time>2013-7-29T3:17:45Z</time></trkpt>
<trkpt lat="46.38061713427305" lon="6.159165110439062"><ele></ele><time>2013-7-29T3:17:48Z</time></trkpt>
<trkpt lat="46.38066340237856" lon="6.1591858975589275"><ele></ele><time>2013-7-29T3:17:51Z</time></trkpt>
<trkpt lat="46.38070707209408" lon="6.159209702163935"><ele></ele><time>2013-7-29T3:17:54Z</time></trkpt>
<trkpt lat="46.380842104554176" lon="6.159278517588973"><ele></ele><time>2013-7-29T3:17:57Z</time></trkpt>
<trkpt lat="46.38088426552713" lon="6.159306764602661"><ele></ele><time>2013-7-29T3:18:0Z</time></trkpt>
<trkpt lat="46.38092617504299" lon="6.159336185082793"><ele></ele><time>2013-7-29T3:18:3Z</time></trkpt>
<trkpt lat="46.38096632435918" lon="6.1593664437532425"><ele></ele><time>2013-7-29T3:18:6Z</time></trkpt>
<trkpt lat="46.381004713475704" lon="6.159395864233375"><ele></ele><time>2013-7-29T3:18:9Z</time></trkpt>
<trkpt lat="46.38104318641126" lon="6.159426206722856"><ele></ele><time>2013-7-29T3:18:12Z</time></trkpt>
<trkpt lat="46.38119447976351" lon="6.1595431342720985"><ele></ele><time>2013-7-29T3:18:15Z</time></trkpt>
<trkpt lat="46.381234880536795" lon="6.159569453448057"><ele></ele><time>2013-7-29T3:18:18Z</time></trkpt>
<trkpt lat="46.381276370957494" lon="6.159596275538206"><ele></ele><time>2013-7-29T3:18:21Z</time></trkpt>
<trkpt lat="46.38131568208337" lon="6.15962334908545"><ele></ele><time>2013-7-29T3:18:24Z</time></trkpt>
<trkpt lat="46.381355579942465" lon="6.159650590270758"><ele></ele><time>2013-7-29T3:18:27Z</time></trkpt>
<trkpt lat="46.38152045197785" lon="6.159741785377264"><ele></ele><time>2013-7-29T3:18:30Z</time></trkpt>
<trkpt lat="46.38156018219888" lon="6.159763243049383"><ele></ele><time>2013-7-29T3:18:33Z</time></trkpt>
<trkpt lat="46.38160267844796" lon="6.159787215292454"><ele></ele><time>2013-7-29T3:18:36Z</time></trkpt>
<trkpt lat="46.381643414497375" lon="6.159808924421668"><ele></ele><time>2013-7-29T3:18:39Z</time></trkpt>
<trkpt lat="46.38168700039387" lon="6.159833902493119"><ele></ele><time>2013-7-29T3:18:42Z</time></trkpt>
<trkpt lat="46.38172916136682" lon="6.159860389307141"><ele></ele><time>2013-7-29T3:18:45Z</time></trkpt>
<trkpt lat="46.38177056796849" lon="6.159882266074419"><ele></ele><time>2013-7-29T3:18:48Z</time></trkpt>
<trkpt lat="46.38185723684728" lon="6.159926438704133"><ele></ele><time>2013-7-29T3:18:51Z</time></trkpt>
<trkpt lat="46.38193837366998" lon="6.159966755658388"><ele></ele><time>2013-7-29T3:18:54Z</time></trkpt>
<trkpt lat="46.38197818771005" lon="6.159993577748537"><ele></ele><time>2013-7-29T3:18:57Z</time></trkpt>
<trkpt lat="46.382018169388175" lon="6.160024842247367"><ele></ele><time>2013-7-29T3:19:0Z</time></trkpt>
<trkpt lat="46.382058234885335" lon="6.160053592175245"><ele></ele><time>2013-7-29T3:19:3Z</time></trkpt>
<trkpt lat="46.38209813274443" lon="6.160083599388599"><ele></ele><time>2013-7-29T3:19:6Z</time></trkpt>
<trkpt lat="46.38222059234977" lon="6.160173118114471"><ele></ele><time>2013-7-29T3:19:9Z</time></trkpt>
<trkpt lat="46.38238211162388" lon="6.160297337919474"><ele></ele><time>2013-7-29T3:19:12Z</time></trkpt>
<trkpt lat="46.382421338930726" lon="6.160330781713128"><ele></ele><time>2013-7-29T3:19:15Z</time></trkpt>
<trkpt lat="46.382461907342076" lon="6.1603624653071165"><ele></ele><time>2013-7-29T3:19:18Z</time></trkpt>
<trkpt lat="46.38250155374408" lon="6.160395992919803"><ele></ele><time>2013-7-29T3:19:21Z</time></trkpt>
<trkpt lat="46.38254136778414" lon="6.160426419228315"><ele></ele><time>2013-7-29T3:19:24Z</time></trkpt>
<trkpt lat="46.38262233696878" lon="6.1604914627969265"><ele></ele><time>2013-7-29T3:19:27Z</time></trkpt>
<trkpt lat="46.38269995339215" lon="6.160558769479394"><ele></ele><time>2013-7-29T3:19:30Z</time></trkpt>
<trkpt lat="46.38277773745358" lon="6.160621466115117"><ele></ele><time>2013-7-29T3:19:33Z</time></trkpt>
<trkpt lat="46.38281696476042" lon="6.160655664280057"><ele></ele><time>2013-7-29T3:19:36Z</time></trkpt>
<trkpt lat="46.38285929337144" lon="6.160694053396583"><ele></ele><time>2013-7-29T3:19:39Z</time></trkpt>
<trkpt lat="46.382897179573774" lon="6.1607311852276325"><ele></ele><time>2013-7-29T3:19:42Z</time></trkpt>
<trkpt lat="46.382937747985125" lon="6.160764126107097"><ele></ele><time>2013-7-29T3:19:45Z</time></trkpt>
<trkpt lat="46.383175207301974" lon="6.160976774990559"><ele></ele><time>2013-7-29T3:19:48Z</time></trkpt>
<trkpt lat="46.38321510516107" lon="6.161010134965181"><ele></ele><time>2013-7-29T3:19:51Z</time></trkpt>
<trkpt lat="46.38325089588761" lon="6.161045841872692"><ele></ele><time>2013-7-29T3:19:54Z</time></trkpt>
<trkpt lat="46.383290123194456" lon="6.161079201847315"><ele></ele><time>2013-7-29T3:19:57Z</time></trkpt>
<trkpt lat="46.38332951813936" lon="6.161112645640969"><ele></ele><time>2013-7-29T3:20:0Z</time></trkpt>
<trkpt lat="46.383367236703634" lon="6.161151872947812"><ele></ele><time>2013-7-29T3:20:3Z</time></trkpt>
<trkpt lat="46.3834900315851" lon="6.161266537383199"><ele></ele><time>2013-7-29T3:20:6Z</time></trkpt>
<trkpt lat="46.383614083752036" lon="6.161381034180522"><ele></ele><time>2013-7-29T3:20:9Z</time></trkpt>
<trkpt lat="46.38365674763918" lon="6.1614185851067305"><ele></ele><time>2013-7-29T3:20:12Z</time></trkpt>
<trkpt lat="46.38369924388826" lon="6.161455297842622"><ele></ele><time>2013-7-29T3:20:15Z</time></trkpt>
<trkpt lat="46.383741572499275" lon="6.16149527952075"><ele></ele><time>2013-7-29T3:20:18Z</time></trkpt>
<trkpt lat="46.383788427338004" lon="6.161533333361149"><ele></ele><time>2013-7-29T3:20:21Z</time></trkpt>
<trkpt lat="46.384014654904604" lon="6.161741372197866"><ele></ele><time>2013-7-29T3:20:24Z</time></trkpt>
<trkpt lat="46.384062096476555" lon="6.1617799289524555"><ele></ele><time>2013-7-29T3:20:27Z</time></trkpt>
<trkpt lat="46.384158320724964" lon="6.161864921450615"><ele></ele><time>2013-7-29T3:20:30Z</time></trkpt>
<trkpt lat="46.38453005813062" lon="6.162135070189834"><ele></ele><time>2013-7-29T3:20:33Z</time></trkpt>
<trkpt lat="46.38470331206918" lon="6.16222970187664"><ele></ele><time>2013-7-29T3:20:36Z</time></trkpt>
<trkpt lat="46.38476508669555" lon="6.162255350500345"><ele></ele><time>2013-7-29T3:20:39Z</time></trkpt>
<trkpt lat="46.384825352579355" lon="6.162279490381479"><ele></ele><time>2013-7-29T3:20:42Z</time></trkpt>
<trkpt lat="46.38488897122443" lon="6.162302624434233"><ele></ele><time>2013-7-29T3:20:45Z</time></trkpt>
<trkpt lat="46.384953344240785" lon="6.162325423210859"><ele></ele><time>2013-7-29T3:20:48Z</time></trkpt>
<trkpt lat="46.38546799309552" lon="6.16243346594274"><ele></ele><time>2013-7-29T3:20:51Z</time></trkpt>
<trkpt lat="46.385921370238066" lon="6.162406727671623"><ele></ele><time>2013-7-29T3:20:54Z</time></trkpt>
<trkpt lat="46.38623133301735" lon="6.1623286083340645"><ele></ele><time>2013-7-29T3:20:57Z</time></trkpt>
<trkpt lat="46.386294700205326" lon="6.162314610555768"><ele></ele><time>2013-7-29T3:21:0Z</time></trkpt>
<trkpt lat="46.38635580427945" lon="6.16229809820652"><ele></ele><time>2013-7-29T3:21:3Z</time></trkpt>
<trkpt lat="46.38642176985741" lon="6.162276556715369"><ele></ele><time>2013-7-29T3:21:6Z</time></trkpt>
<trkpt lat="46.386486226692796" lon="6.162258451804519"><ele></ele><time>2013-7-29T3:21:9Z</time></trkpt>
<trkpt lat="46.38654850423336" lon="6.162241101264954"><ele></ele><time>2013-7-29T3:21:12Z</time></trkpt>
<trkpt lat="46.3868123665452" lon="6.162211513146758"><ele></ele><time>2013-7-29T3:21:15Z</time></trkpt>
<trkpt lat="46.38727865181863" lon="6.162207238376141"><ele></ele><time>2013-7-29T3:21:18Z</time></trkpt>
<trkpt lat="46.38755056075752" lon="6.162263564765453"><ele></ele><time>2013-7-29T3:21:21Z</time></trkpt>
<trkpt lat="46.38761996291578" lon="6.162281250581145"><ele></ele><time>2013-7-29T3:21:24Z</time></trkpt>
<trkpt lat="46.387686263769865" lon="6.162306480109692"><ele></ele><time>2013-7-29T3:21:27Z</time></trkpt>
<trkpt lat="46.38775181025267" lon="6.162333469837904"><ele></ele><time>2013-7-29T3:21:30Z</time></trkpt>
<trkpt lat="46.387816267088056" lon="6.162360291928053"><ele></ele><time>2013-7-29T3:21:33Z</time></trkpt>
<trkpt lat="46.38833452016115" lon="6.162628177553415"><ele></ele><time>2013-7-29T3:21:36Z</time></trkpt>
<trkpt lat="46.388906417414546" lon="6.162948617711663"><ele></ele><time>2013-7-29T3:21:39Z</time></trkpt>
<trkpt lat="46.3889726344496" lon="6.162986671552062"><ele></ele><time>2013-7-29T3:21:42Z</time></trkpt>
<trkpt lat="46.38903809711337" lon="6.16302078589797"><ele></ele><time>2013-7-29T3:21:45Z</time></trkpt>
<trkpt lat="46.38910347595811" lon="6.163054816424847"><ele></ele><time>2013-7-29T3:21:48Z</time></trkpt>
<trkpt lat="46.38916558586061" lon="6.163090690970421"><ele></ele><time>2013-7-29T3:21:51Z</time></trkpt>
<trkpt lat="46.3892284501344" lon="6.163124972954392"><ele></ele><time>2013-7-29T3:21:54Z</time></trkpt>
<trkpt lat="46.38961276039481" lon="6.163334101438522"><ele></ele><time>2013-7-29T3:21:57Z</time></trkpt>
<trkpt lat="46.39000159688294" lon="6.163549767807126"><ele></ele><time>2013-7-29T3:22:0Z</time></trkpt>
<trkpt lat="46.39025364071131" lon="6.163696115836501"><ele></ele><time>2013-7-29T3:22:3Z</time></trkpt>
<trkpt lat="46.390644405037165" lon="6.163935922086239"><ele></ele><time>2013-7-29T3:22:6Z</time></trkpt>
<trkpt lat="46.390707017853856" lon="6.163976741954684"><ele></ele><time>2013-7-29T3:22:9Z</time></trkpt>
<trkpt lat="46.39077088795602" lon="6.164020160213113"><ele></ele><time>2013-7-29T3:22:12Z</time></trkpt>
<trkpt lat="46.39083341695368" lon="6.1640605609864"><ele></ele><time>2013-7-29T3:22:15Z</time></trkpt>
<trkpt lat="46.390896029770374" lon="6.164102302864194"><ele></ele><time>2013-7-29T3:22:18Z</time></trkpt>
<trkpt lat="46.39095696620643" lon="6.1641439609229565"><ele></ele><time>2013-7-29T3:22:21Z</time></trkpt>
<trkpt lat="46.391368014737964" lon="6.164434310048819"><ele></ele><time>2013-7-29T3:22:24Z</time></trkpt>
<trkpt lat="46.39142073690891" lon="6.164476471021771"><ele></ele><time>2013-7-29T3:22:27Z</time></trkpt>
<trkpt lat="46.39147588983178" lon="6.164519973099232"><ele></ele><time>2013-7-29T3:22:30Z</time></trkpt>
<trkpt lat="46.39169801026583" lon="6.164684509858489"><ele></ele><time>2013-7-29T3:22:33Z</time></trkpt>
<trkpt lat="46.39175383374095" lon="6.164729772135615"><ele></ele><time>2013-7-29T3:22:36Z</time></trkpt>
<trkpt lat="46.39180337078869" lon="6.164773944765329"><ele></ele><time>2013-7-29T3:22:39Z</time></trkpt>
<trkpt lat="46.391853746026754" lon="6.164818285033107"><ele></ele><time>2013-7-29T3:22:42Z</time></trkpt>
<trkpt lat="46.39190294779837" lon="6.16486145183444"><ele></ele><time>2013-7-29T3:22:45Z</time></trkpt>
<trkpt lat="46.39204896055162" lon="6.164999334141612"><ele></ele><time>2013-7-29T3:22:48Z</time></trkpt>
<trkpt lat="46.39214082621038" lon="6.165084997192025"><ele></ele><time>2013-7-29T3:22:51Z</time></trkpt>
<trkpt lat="46.39218742959201" lon="6.165117099881172"><ele></ele><time>2013-7-29T3:22:54Z</time></trkpt>
<trkpt lat="46.392232943326235" lon="6.165151633322239"><ele></ele><time>2013-7-29T3:22:57Z</time></trkpt>
<trkpt lat="46.392279379069805" lon="6.165192453190684"><ele></ele><time>2013-7-29T3:23:0Z</time></trkpt>
<trkpt lat="46.39232539571822" lon="6.165238218382001"><ele></ele><time>2013-7-29T3:23:3Z</time></trkpt>
<trkpt lat="46.392508540302515" lon="6.165416585281491"><ele></ele><time>2013-7-29T3:23:6Z</time></trkpt>
<trkpt lat="46.39256101101637" lon="6.165460171177983"><ele></ele><time>2013-7-29T3:23:9Z</time></trkpt>
<trkpt lat="46.39261054806411" lon="6.165502918884158"><ele></ele><time>2013-7-29T3:23:12Z</time></trkpt>
<trkpt lat="46.392658073455095" lon="6.165545163676143"><ele></ele><time>2013-7-29T3:23:15Z</time></trkpt>
<trkpt lat="46.39270585030317" lon="6.165589168667793"><ele></ele><time>2013-7-29T3:23:18Z</time></trkpt>
<trkpt lat="46.39275563880801" lon="6.165635855868459"><ele></ele><time>2013-7-29T3:23:21Z</time></trkpt>
<trkpt lat="46.392805678769946" lon="6.165681034326553"><ele></ele><time>2013-7-29T3:23:24Z</time></trkpt>
<trkpt lat="46.39295579865575" lon="6.16582503542304"><ele></ele><time>2013-7-29T3:23:27Z</time></trkpt>
<trkpt lat="46.393276154994965" lon="6.1661183182150126"><ele></ele><time>2013-7-29T3:23:30Z</time></trkpt>
<trkpt lat="46.39366733841598" lon="6.16648661904037"><ele></ele><time>2013-7-29T3:23:33Z</time></trkpt>
<trkpt lat="46.39416882768273" lon="6.166957430541515"><ele></ele><time>2013-7-29T3:23:36Z</time></trkpt>
<trkpt lat="46.39443730004132" lon="6.167215593159199"><ele></ele><time>2013-7-29T3:23:39Z</time></trkpt>
<trkpt lat="46.39449127949774" lon="6.167262867093086"><ele></ele><time>2013-7-29T3:23:42Z</time></trkpt>
<trkpt lat="46.39454450458288" lon="6.1673119850456715"><ele></ele><time>2013-7-29T3:23:45Z</time></trkpt>
<trkpt lat="46.39459563419223" lon="6.167365126311779"><ele></ele><time>2013-7-29T3:23:48Z</time></trkpt>
<trkpt lat="46.394650619477034" lon="6.167409969493747"><ele></ele><time>2013-7-29T3:23:51Z</time></trkpt>
<trkpt lat="46.394865196198225" lon="6.167614320293069"><ele></ele><time>2013-7-29T3:23:54Z</time></trkpt>
<trkpt lat="46.3953603990376" lon="6.16808395832777"><ele></ele><time>2013-7-29T3:23:57Z</time></trkpt>
<trkpt lat="46.39541504904628" lon="6.168135926127434"><ele></ele><time>2013-7-29T3:24:0Z</time></trkpt>
<trkpt lat="46.39546936377883" lon="6.168186217546463"><ele></ele><time>2013-7-29T3:24:3Z</time></trkpt>
<trkpt lat="46.3955245167017" lon="6.168236844241619"><ele></ele><time>2013-7-29T3:24:6Z</time></trkpt>
<trkpt lat="46.39558210037649" lon="6.168289566412568"><ele></ele><time>2013-7-29T3:24:9Z</time></trkpt>
<trkpt lat="46.3956368342042" lon="6.1683389358222485"><ele></ele><time>2013-7-29T3:24:12Z</time></trkpt>
<trkpt lat="46.39568989165127" lon="6.168392328545451"><ele></ele><time>2013-7-29T3:24:15Z</time></trkpt>
<trkpt lat="46.39574512839317" lon="6.168443877249956"><ele></ele><time>2013-7-29T3:24:18Z</time></trkpt>
<trkpt lat="46.39596448279917" lon="6.168658118695021"><ele></ele><time>2013-7-29T3:24:21Z</time></trkpt>
<trkpt lat="46.3964051194489" lon="6.169080650433898"><ele></ele><time>2013-7-29T3:24:24Z</time></trkpt>
<trkpt lat="46.396512407809496" lon="6.1691841669380665"><ele></ele><time>2013-7-29T3:24:27Z</time></trkpt>
<trkpt lat="46.396563956514" lon="6.169237643480301"><ele></ele><time>2013-7-29T3:24:30Z</time></trkpt>
<trkpt lat="46.396616008132696" lon="6.169290533289313"><ele></ele><time>2013-7-29T3:24:33Z</time></trkpt>
<trkpt lat="46.39666931703687" lon="6.16934266872704"><ele></ele><time>2013-7-29T3:24:36Z</time></trkpt>
<trkpt lat="46.39672379940748" lon="6.169397737830877"><ele></ele><time>2013-7-29T3:24:39Z</time></trkpt>
<trkpt lat="46.39677937142551" lon="6.169454399496317"><ele></ele><time>2013-7-29T3:24:42Z</time></trkpt>
<trkpt lat="46.39683159068227" lon="6.169507205486298"><ele></ele><time>2013-7-29T3:24:45Z</time></trkpt>
<trkpt lat="46.39687970280647" lon="6.169569147750735"><ele></ele><time>2013-7-29T3:24:48Z</time></trkpt>
<trkpt lat="46.397067457437515" lon="6.169808870181441"><ele></ele><time>2013-7-29T3:24:51Z</time></trkpt>
<trkpt lat="46.397171979770064" lon="6.169914985075593"><ele></ele><time>2013-7-29T3:24:54Z</time></trkpt>
<trkpt lat="46.39751781709492" lon="6.1703424621373415"><ele></ele><time>2013-7-29T3:24:57Z</time></trkpt>
<trkpt lat="46.39774915762246" lon="6.1706675961613655"><ele></ele><time>2013-7-29T3:25:0Z</time></trkpt>
<trkpt lat="46.39779827557504" lon="6.1707335617393255"><ele></ele><time>2013-7-29T3:25:3Z</time></trkpt>
<trkpt lat="46.39784756116569" lon="6.170801036059856"><ele></ele><time>2013-7-29T3:25:6Z</time></trkpt>
<trkpt lat="46.397896092385054" lon="6.170875048264861"><ele></ele><time>2013-7-29T3:25:9Z</time></trkpt>
<trkpt lat="46.39794412069023" lon="6.170944115146995"><ele></ele><time>2013-7-29T3:25:12Z</time></trkpt>
<trkpt lat="46.39799281954765" lon="6.171014942228794"><ele></ele><time>2013-7-29T3:25:15Z</time></trkpt>
<trkpt lat="46.3980904687196" lon="6.171154584735632"><ele></ele><time>2013-7-29T3:25:18Z</time></trkpt>
<trkpt lat="46.39823103323579" lon="6.171363042667508"><ele></ele><time>2013-7-29T3:25:21Z</time></trkpt>
<trkpt lat="46.39838207513094" lon="6.171578289940953"><ele></ele><time>2013-7-29T3:25:24Z</time></trkpt>
<trkpt lat="46.39858734793961" lon="6.171876015141606"><ele></ele><time>2013-7-29T3:25:27Z</time></trkpt>
<trkpt lat="46.39864157885313" lon="6.171956565231085"><ele></ele><time>2013-7-29T3:25:30Z</time></trkpt>
<trkpt lat="46.3986948877573" lon="6.172034600749612"><ele></ele><time>2013-7-29T3:25:33Z</time></trkpt>
<trkpt lat="46.39895422384143" lon="6.1724520195275545"><ele></ele><time>2013-7-29T3:25:36Z</time></trkpt>
<trkpt lat="46.399016585201025" lon="6.172524271532893"><ele></ele><time>2013-7-29T3:25:39Z</time></trkpt>
<trkpt lat="46.39925320632756" lon="6.172867342829704"><ele></ele><time>2013-7-29T3:25:42Z</time></trkpt>
<trkpt lat="46.39962024986744" lon="6.173411998897791"><ele></ele><time>2013-7-29T3:25:45Z</time></trkpt>
<trkpt lat="46.39979920350015" lon="6.173694469034672"><ele></ele><time>2013-7-29T3:25:48Z</time></trkpt>
<trkpt lat="46.40017881989479" lon="6.174346497282386"><ele></ele><time>2013-7-29T3:25:51Z</time></trkpt>
<trkpt lat="46.40022533945739" lon="6.174441883340478"><ele></ele><time>2013-7-29T3:25:54Z</time></trkpt>
<trkpt lat="46.40027588233352" lon="6.1745294742286205"><ele></ele><time>2013-7-29T3:25:57Z</time></trkpt>
<trkpt lat="46.40033405274153" lon="6.174615053460002"><ele></ele><time>2013-7-29T3:26:0Z</time></trkpt>
<trkpt lat="46.400390798226" lon="6.174686215817928"><ele></ele><time>2013-7-29T3:26:3Z</time></trkpt>
<trkpt lat="46.40044553205371" lon="6.174749247729778"><ele></ele><time>2013-7-29T3:26:6Z</time></trkpt>
<trkpt lat="46.400505881756544" lon="6.174779590219259"><ele></ele><time>2013-7-29T3:26:9Z</time></trkpt>
<trkpt lat="46.400636890903115" lon="6.174719659611583"><ele></ele><time>2013-7-29T3:26:12Z</time></trkpt>
<trkpt lat="46.400683745741844" lon="6.174663249403238"><ele></ele><time>2013-7-29T3:26:15Z</time></trkpt>
<trkpt lat="46.40073546208441" lon="6.174608767032623"><ele></ele><time>2013-7-29T3:26:18Z</time></trkpt>
<trkpt lat="46.40078583732247" lon="6.174542214721441"><ele></ele><time>2013-7-29T3:26:21Z</time></trkpt>
<trkpt lat="46.400833278894424" lon="6.174470549449325"><ele></ele><time>2013-7-29T3:26:24Z</time></trkpt>
<trkpt lat="46.400881139561534" lon="6.174399387091398"><ele></ele><time>2013-7-29T3:26:27Z</time></trkpt>
<trkpt lat="46.40101784840226" lon="6.174174835905433"><ele></ele><time>2013-7-29T3:26:30Z</time></trkpt>
<trkpt lat="46.40127148479223" lon="6.173696983605623"><ele></ele><time>2013-7-29T3:26:33Z</time></trkpt>
<trkpt lat="46.4014751650393" lon="6.173323066905141"><ele></ele><time>2013-7-29T3:26:36Z</time></trkpt>
<trkpt lat="46.40160072594881" lon="6.173289539292455"><ele></ele><time>2013-7-29T3:26:39Z</time></trkpt>
<trkpt lat="46.40179208479822" lon="6.1733997613191605"><ele></ele><time>2013-7-29T3:26:42Z</time></trkpt>
<trkpt lat="46.40185763128102" lon="6.173439994454384"><ele></ele><time>2013-7-29T3:26:45Z</time></trkpt>
<trkpt lat="46.40191697515547" lon="6.1734704207628965"><ele></ele><time>2013-7-29T3:26:48Z</time></trkpt>
<trkpt lat="46.40197883360088" lon="6.17350528948009"><ele></ele><time>2013-7-29T3:26:51Z</time></trkpt>
<trkpt lat="46.4020380936563" lon="6.173544432967901"><ele></ele><time>2013-7-29T3:26:54Z</time></trkpt>
<trkpt lat="46.402098862454295" lon="6.1735861748456955"><ele></ele><time>2013-7-29T3:26:57Z</time></trkpt>
<trkpt lat="46.40229030512273" lon="6.173704611137509"><ele></ele><time>2013-7-29T3:27:0Z</time></trkpt>
<trkpt lat="46.40274695120752" lon="6.1739687249064445"><ele></ele><time>2013-7-29T3:27:3Z</time></trkpt>
<trkpt lat="46.40281392261386" lon="6.1740087904036045"><ele></ele><time>2013-7-29T3:27:6Z</time></trkpt>
<trkpt lat="46.403023386374116" lon="6.174131501466036"><ele></ele><time>2013-7-29T3:27:9Z</time></trkpt>
<trkpt lat="46.40331817790866" lon="6.174300732091069"><ele></ele><time>2013-7-29T3:27:12Z</time></trkpt>
<trkpt lat="46.40377742238343" lon="6.174550848081708"><ele></ele><time>2013-7-29T3:27:15Z</time></trkpt>
<trkpt lat="46.404097359627485" lon="6.174663417041302"><ele></ele><time>2013-7-29T3:27:18Z</time></trkpt>
<trkpt lat="46.40417480841279" lon="6.174679007381201"><ele></ele><time>2013-7-29T3:27:21Z</time></trkpt>
<trkpt lat="46.404250329360366" lon="6.174690658226609"><ele></ele><time>2013-7-29T3:27:24Z</time></trkpt>
<trkpt lat="46.40432635322213" lon="6.174702225252986"><ele></ele><time>2013-7-29T3:27:27Z</time></trkpt>
<trkpt lat="46.40440313145518" lon="6.174712283536792"><ele></ele><time>2013-7-29T3:27:30Z</time></trkpt>
<trkpt lat="46.404776545241475" lon="6.174703063443303"><ele></ele><time>2013-7-29T3:27:33Z</time></trkpt>
<trkpt lat="46.40491803176701" lon="6.174691077321768"><ele></ele><time>2013-7-29T3:27:36Z</time></trkpt>
<trkpt lat="46.40518331900239" lon="6.174615975469351"><ele></ele><time>2013-7-29T3:27:39Z</time></trkpt>
<trkpt lat="46.40524190850556" lon="6.174609856680036"><ele></ele><time>2013-7-29T3:27:42Z</time></trkpt>
<trkpt lat="46.405368223786354" lon="6.174592170864344"><ele></ele><time>2013-7-29T3:27:45Z</time></trkpt>
<trkpt lat="46.40542605891824" lon="6.174591416493058"><ele></ele><time>2013-7-29T3:27:48Z</time></trkpt>
<trkpt lat="46.405486576259136" lon="6.1746101919561625"><ele></ele><time>2013-7-29T3:27:51Z</time></trkpt>
<trkpt lat="46.40559461899102" lon="6.174678336828947"><ele></ele><time>2013-7-29T3:27:54Z</time></trkpt>
<trkpt lat="46.40564122237265" lon="6.174715384840965"><ele></ele><time>2013-7-29T3:27:57Z</time></trkpt>
<trkpt lat="46.405684389173985" lon="6.1747553665190935"><ele></ele><time>2013-7-29T3:28:0Z</time></trkpt>
<trkpt lat="46.405728813260794" lon="6.1747954320162535"><ele></ele><time>2013-7-29T3:28:3Z</time></trkpt>
<trkpt lat="46.40577156096697" lon="6.174838012084365"><ele></ele><time>2013-7-29T3:28:6Z</time></trkpt>
<trkpt lat="46.40589100308716" lon="6.174972457811236"><ele></ele><time>2013-7-29T3:28:9Z</time></trkpt>
<trkpt lat="46.40592503361404" lon="6.17502149194479"><ele></ele><time>2013-7-29T3:28:12Z</time></trkpt>
<trkpt lat="46.40597230754793" lon="6.175072370097041"><ele></ele><time>2013-7-29T3:28:15Z</time></trkpt>
<trkpt lat="46.40601446852088" lon="6.1751252599060535"><ele></ele><time>2013-7-29T3:28:18Z</time></trkpt>
<trkpt lat="46.40605302527547" lon="6.175176557153463"><ele></ele><time>2013-7-29T3:28:21Z</time></trkpt>
<trkpt lat="46.4060961920768" lon="6.175226848572493"><ele></ele><time>2013-7-29T3:28:24Z</time></trkpt>
<trkpt lat="46.40613567084074" lon="6.175273368135095"><ele></ele><time>2013-7-29T3:28:27Z</time></trkpt>
<trkpt lat="46.40630926005542" lon="6.1754875257611275"><ele></ele><time>2013-7-29T3:28:30Z</time></trkpt>
<trkpt lat="46.40635167248547" lon="6.175537146627903"><ele></ele><time>2013-7-29T3:28:33Z</time></trkpt>
<trkpt lat="46.40639651566744" lon="6.17559171281755"><ele></ele><time>2013-7-29T3:28:36Z</time></trkpt>
<trkpt lat="46.406437838450074" lon="6.175644099712372"><ele></ele><time>2013-7-29T3:28:39Z</time></trkpt>
<trkpt lat="46.40648175962269" lon="6.175693469122052"><ele></ele><time>2013-7-29T3:28:42Z</time></trkpt>
<trkpt lat="46.406675297766924" lon="6.175874182954431"><ele></ele><time>2013-7-29T3:28:45Z</time></trkpt>
<trkpt lat="46.40693991445005" lon="6.176071995869279"><ele></ele><time>2013-7-29T3:28:48Z</time></trkpt>
<trkpt lat="46.4073277451098" lon="6.1763345170766115"><ele></ele><time>2013-7-29T3:28:51Z</time></trkpt>
<trkpt lat="46.40759781002998" lon="6.176577256992459"><ele></ele><time>2013-7-29T3:28:54Z</time></trkpt>
<trkpt lat="46.40765095129609" lon="6.176634673029184"><ele></ele><time>2013-7-29T3:28:57Z</time></trkpt>
<trkpt lat="46.40781154856086" lon="6.176834665238857"><ele></ele><time>2013-7-29T3:29:0Z</time></trkpt>
<trkpt lat="46.40789536759257" lon="6.176983108744025"><ele></ele><time>2013-7-29T3:29:3Z</time></trkpt>
<trkpt lat="46.408161828294396" lon="6.177392229437828"><ele></ele><time>2013-7-29T3:29:6Z</time></trkpt>
<trkpt lat="46.40820315107703" lon="6.177459955215454"><ele></ele><time>2013-7-29T3:29:9Z</time></trkpt>
<trkpt lat="46.40824405476451" lon="6.1775219812989235"><ele></ele><time>2013-7-29T3:29:12Z</time></trkpt>
<trkpt lat="46.40828252770007" lon="6.177586019039154"><ele></ele><time>2013-7-29T3:29:15Z</time></trkpt>
<trkpt lat="46.40831186436117" lon="6.177661623805761"><ele></ele><time>2013-7-29T3:29:18Z</time></trkpt>
<trkpt lat="46.40839945524931" lon="6.177788693457842"><ele></ele><time>2013-7-29T3:29:21Z</time></trkpt>
<trkpt lat="46.40873598866165" lon="6.178279118612409"><ele></ele><time>2013-7-29T3:29:24Z</time></trkpt>
<trkpt lat="46.40890228562057" lon="6.178441978991032"><ele></ele><time>2013-7-29T3:29:27Z</time></trkpt>
<trkpt lat="46.40893891453743" lon="6.178453546017408"><ele></ele><time>2013-7-29T3:29:30Z</time></trkpt>
<trkpt lat="46.40901988372207" lon="6.178457904607058"><ele></ele><time>2013-7-29T3:29:33Z</time></trkpt>
<trkpt lat="46.4090942312032" lon="6.1784446612000465"><ele></ele><time>2013-7-29T3:29:36Z</time></trkpt>
<trkpt lat="46.409190287813544" lon="6.178403003141284"><ele></ele><time>2013-7-29T3:29:39Z</time></trkpt>
<trkpt lat="46.40929992310703" lon="6.178335193544626"><ele></ele><time>2013-7-29T3:29:42Z</time></trkpt>
<trkpt lat="46.40946630388498" lon="6.178214158862829"><ele></ele><time>2013-7-29T3:29:45Z</time></trkpt>
<trkpt lat="46.40981306321919" lon="6.177986674010754"><ele></ele><time>2013-7-29T3:29:48Z</time></trkpt>
<trkpt lat="46.40993678011" lon="6.177971754223108"><ele></ele><time>2013-7-29T3:29:51Z</time></trkpt>
<trkpt lat="46.41000266186893" lon="6.177976615726948"><ele></ele><time>2013-7-29T3:29:54Z</time></trkpt>
<trkpt lat="46.41013962216675" lon="6.178003270179033"><ele></ele><time>2013-7-29T3:29:57Z</time></trkpt>
<trkpt lat="46.41020919196308" lon="6.178031601011753"><ele></ele><time>2013-7-29T3:30:0Z</time></trkpt>
<trkpt lat="46.4104687795043" lon="6.178225893527269"><ele></ele><time>2013-7-29T3:30:3Z</time></trkpt>
<trkpt lat="46.41053633764386" lon="6.178292529657483"><ele></ele><time>2013-7-29T3:30:6Z</time></trkpt>
<trkpt lat="46.41103715635836" lon="6.178766526281834"><ele></ele><time>2013-7-29T3:30:9Z</time></trkpt>
<trkpt lat="46.41110002063215" lon="6.178825031965971"><ele></ele><time>2013-7-29T3:30:12Z</time></trkpt>
<trkpt lat="46.411160454154015" lon="6.178885716944933"><ele></ele><time>2013-7-29T3:30:15Z</time></trkpt>
<trkpt lat="46.41122382134199" lon="6.1789394449442625"><ele></ele><time>2013-7-29T3:30:18Z</time></trkpt>
<trkpt lat="46.41128425486386" lon="6.178997782990336"><ele></ele><time>2013-7-29T3:30:21Z</time></trkpt>
<trkpt lat="46.4113459456712" lon="6.179057043045759"><ele></ele><time>2013-7-29T3:30:24Z</time></trkpt>
<trkpt lat="46.41152774915099" lon="6.179230464622378"><ele></ele><time>2013-7-29T3:30:27Z</time></trkpt>
<trkpt lat="46.41186151653528" lon="6.179584935307503"><ele></ele><time>2013-7-29T3:30:30Z</time></trkpt>
<trkpt lat="46.41191063448787" lon="6.179656768217683"><ele></ele><time>2013-7-29T3:30:33Z</time></trkpt>
<trkpt lat="46.41216963529587" lon="6.18013302795589"><ele></ele><time>2013-7-29T3:30:36Z</time></trkpt>
<trkpt lat="46.41224532388151" lon="6.180326398462057"><ele></ele><time>2013-7-29T3:30:39Z</time></trkpt>
<trkpt lat="46.41233442351222" lon="6.180630074813962"><ele></ele><time>2013-7-29T3:30:42Z</time></trkpt>
<trkpt lat="46.4123578928411" lon="6.180738201364875"><ele></ele><time>2013-7-29T3:30:45Z</time></trkpt>
<trkpt lat="46.412484711036086" lon="6.181275732815266"><ele></ele><time>2013-7-29T3:30:48Z</time></trkpt>
<trkpt lat="46.41258168965578" lon="6.181564321741462"><ele></ele><time>2013-7-29T3:30:51Z</time></trkpt>
<trkpt lat="46.41264237463474" lon="6.181746041402221"><ele></ele><time>2013-7-29T3:30:54Z</time></trkpt>
<trkpt lat="46.41278252005577" lon="6.182091291993856"><ele></ele><time>2013-7-29T3:30:57Z</time></trkpt>
<trkpt lat="46.41288612037897" lon="6.182345682755113"><ele></ele><time>2013-7-29T3:31:0Z</time></trkpt>
<trkpt lat="46.41292668879032" lon="6.182431681081653"><ele></ele><time>2013-7-29T3:31:3Z</time></trkpt>
<trkpt lat="46.412968849763274" lon="6.182509800419211"><ele></ele><time>2013-7-29T3:31:6Z</time></trkpt>
<trkpt lat="46.41301662661135" lon="6.1825810465961695"><ele></ele><time>2013-7-29T3:31:9Z</time></trkpt>
<trkpt lat="46.41306633129716" lon="6.182652628049254"><ele></ele><time>2013-7-29T3:31:12Z</time></trkpt>
<trkpt lat="46.41337604261935" lon="6.183039788156748"><ele></ele><time>2013-7-29T3:31:15Z</time></trkpt>
<trkpt lat="46.41358173452318" lon="6.183311194181442"><ele></ele><time>2013-7-29T3:31:18Z</time></trkpt>
<trkpt lat="46.413624146953225" lon="6.183392498642206"><ele></ele><time>2013-7-29T3:31:21Z</time></trkpt>
<trkpt lat="46.413663206622005" lon="6.183482939377427"><ele></ele><time>2013-7-29T3:31:24Z</time></trkpt>
<trkpt lat="46.413697488605976" lon="6.18357396684587"><ele></ele><time>2013-7-29T3:31:27Z</time></trkpt>
<trkpt lat="46.413725232705474" lon="6.1836671736091375"><ele></ele><time>2013-7-29T3:31:30Z</time></trkpt>
<trkpt lat="46.413768818601966" lon="6.183857945725322"><ele></ele><time>2013-7-29T3:31:33Z</time></trkpt>
<trkpt lat="46.41379329375923" lon="6.183950733393431"><ele></ele><time>2013-7-29T3:31:36Z</time></trkpt>
<trkpt lat="46.41381307505071" lon="6.1840432696044445"><ele></ele><time>2013-7-29T3:31:39Z</time></trkpt>
<trkpt lat="46.41395556740463" lon="6.184480972588062"><ele></ele><time>2013-7-29T3:31:42Z</time></trkpt>
<trkpt lat="46.41399521380663" lon="6.184560097754002"><ele></ele><time>2013-7-29T3:31:45Z</time></trkpt>
<trkpt lat="46.41403150744736" lon="6.18463528342545"><ele></ele><time>2013-7-29T3:31:48Z</time></trkpt>
<trkpt lat="46.41408012248576" lon="6.1847050208598375"><ele></ele><time>2013-7-29T3:31:51Z</time></trkpt>
<trkpt lat="46.41412722878158" lon="6.184765957295895"><ele></ele><time>2013-7-29T3:31:54Z</time></trkpt>
<trkpt lat="46.41422093845904" lon="6.184893781319261"><ele></ele><time>2013-7-29T3:31:57Z</time></trkpt>
<trkpt lat="46.41443903557956" lon="6.185249593108892"><ele></ele><time>2013-7-29T3:32:0Z</time></trkpt>
<trkpt lat="46.41447105444968" lon="6.185336261987686"><ele></ele><time>2013-7-29T3:32:3Z</time></trkpt>
<trkpt lat="46.41468370333314" lon="6.185844205319881"><ele></ele><time>2013-7-29T3:32:6Z</time></trkpt>
<trkpt lat="46.41494806855917" lon="6.186413671821356"><ele></ele><time>2013-7-29T3:32:9Z</time></trkpt>
<trkpt lat="46.41525350511074" lon="6.186871659010649"><ele></ele><time>2013-7-29T3:32:12Z</time></trkpt>
<trkpt lat="46.415337827056646" lon="6.186998393386602"><ele></ele><time>2013-7-29T3:32:15Z</time></trkpt>
<trkpt lat="46.41536087729037" lon="6.187018761411309"><ele></ele><time>2013-7-29T3:32:18Z</time></trkpt>
<trkpt lat="46.41544000245631" lon="6.1871102917939425"><ele></ele><time>2013-7-29T3:32:21Z</time></trkpt>
<trkpt lat="46.41550018452108" lon="6.187214395031333"><ele></ele><time>2013-7-29T3:32:24Z</time></trkpt>
<trkpt lat="46.41556371934712" lon="6.1873558815568686"><ele></ele><time>2013-7-29T3:32:27Z</time></trkpt>
<trkpt lat="46.415631864219904" lon="6.187615385279059"><ele></ele><time>2013-7-29T3:32:30Z</time></trkpt>
<trkpt lat="46.415678886696696" lon="6.187790902331471"><ele></ele><time>2013-7-29T3:32:33Z</time></trkpt>
<trkpt lat="46.4158237259835" lon="6.1883713491261005"><ele></ele><time>2013-7-29T3:32:36Z</time></trkpt>
<trkpt lat="46.416044337674975" lon="6.189093952998519"><ele></ele><time>2013-7-29T3:32:39Z</time></trkpt>
<trkpt lat="46.41628213226795" lon="6.18968278169632"><ele></ele><time>2013-7-29T3:32:42Z</time></trkpt>
<trkpt lat="46.4164590742439" lon="6.190156191587448"><ele></ele><time>2013-7-29T3:32:45Z</time></trkpt>
<trkpt lat="46.4165299013257" lon="6.190352998673916"><ele></ele><time>2013-7-29T3:32:48Z</time></trkpt>
<trkpt lat="46.41685034148395" lon="6.191084403544664"><ele></ele><time>2013-7-29T3:32:51Z</time></trkpt>
<trkpt lat="46.41701605170965" lon="6.191409537568688"><ele></ele><time>2013-7-29T3:32:54Z</time></trkpt>
<trkpt lat="46.41713725402951" lon="6.191651690751314"><ele></ele><time>2013-7-29T3:32:57Z</time></trkpt>
<trkpt lat="46.41721721738577" lon="6.191808599978685"><ele></ele><time>2013-7-29T3:33:0Z</time></trkpt>
<trkpt lat="46.4174607116729" lon="6.192189892753959"><ele></ele><time>2013-7-29T3:33:3Z</time></trkpt>
<trkpt lat="46.417885003611445" lon="6.192753994837403"><ele></ele><time>2013-7-29T3:33:6Z</time></trkpt>
<trkpt lat="46.418138640001416" lon="6.193070327863097"><ele></ele><time>2013-7-29T3:33:9Z</time></trkpt>
<trkpt lat="46.41818524338305" lon="6.193118104711175"><ele></ele><time>2013-7-29T3:33:12Z</time></trkpt>
<trkpt lat="46.41823888756335" lon="6.193165630102158"><ele></ele><time>2013-7-29T3:33:15Z</time></trkpt>
<trkpt lat="46.41828741878271" lon="6.193215250968933"><ele></ele><time>2013-7-29T3:33:18Z</time></trkpt>
<trkpt lat="46.418323293328285" lon="6.193264704197645"><ele></ele><time>2013-7-29T3:33:21Z</time></trkpt>
<trkpt lat="46.41840359196067" lon="6.193363778293133"><ele></ele><time>2013-7-29T3:33:24Z</time></trkpt>
<trkpt lat="46.41844726167619" lon="6.193407531827688"><ele></ele><time>2013-7-29T3:33:27Z</time></trkpt>
<trkpt lat="46.41848933883011" lon="6.193449022248387"><ele></ele><time>2013-7-29T3:33:30Z</time></trkpt>
<trkpt lat="46.41853175126016" lon="6.193489674478769"><ele></ele><time>2013-7-29T3:33:33Z</time></trkpt>
<trkpt lat="46.41857382841408" lon="6.193533344194293"><ele></ele><time>2013-7-29T3:33:36Z</time></trkpt>
<trkpt lat="46.41861557029188" lon="6.193579696118832"><ele></ele><time>2013-7-29T3:33:39Z</time></trkpt>
<trkpt lat="46.41865320503712" lon="6.1936339270323515"><ele></ele><time>2013-7-29T3:33:42Z</time></trkpt>
<trkpt lat="46.41881472431123" lon="6.193878091871738"><ele></ele><time>2013-7-29T3:33:45Z</time></trkpt>
<trkpt lat="46.418851939961314" lon="6.193947996944189"><ele></ele><time>2013-7-29T3:33:48Z</time></trkpt>
<trkpt lat="46.41889225691557" lon="6.1940130405128"><ele></ele><time>2013-7-29T3:33:51Z</time></trkpt>
<trkpt lat="46.41893072985113" lon="6.194080011919141"><ele></ele><time>2013-7-29T3:33:54Z</time></trkpt>
<trkpt lat="46.418971633538604" lon="6.194147653877735"><ele></ele><time>2013-7-29T3:33:57Z</time></trkpt>
<trkpt lat="46.41909325495362" lon="6.1943569499999285"><ele></ele><time>2013-7-29T3:34:0Z</time></trkpt>
<trkpt lat="46.41929886303842" lon="6.1946970876306295"><ele></ele><time>2013-7-29T3:34:3Z</time></trkpt>
<trkpt lat="46.419339096173644" lon="6.194760203361511"><ele></ele><time>2013-7-29T3:34:6Z</time></trkpt>
<trkpt lat="46.41938343644142" lon="6.194826001301408"><ele></ele><time>2013-7-29T3:34:9Z</time></trkpt>
<trkpt lat="46.419427609071136" lon="6.194887775927782"><ele></ele><time>2013-7-29T3:34:12Z</time></trkpt>
<trkpt lat="46.41955451108515" lon="6.195066142827272"><ele></ele><time>2013-7-29T3:34:15Z</time></trkpt>
<trkpt lat="46.41960044391453" lon="6.195119619369507"><ele></ele><time>2013-7-29T3:34:18Z</time></trkpt>
<trkpt lat="46.4196487236768" lon="6.195176700130105"><ele></ele><time>2013-7-29T3:34:21Z</time></trkpt>
<trkpt lat="46.419692896306515" lon="6.19524048641324"><ele></ele><time>2013-7-29T3:34:24Z</time></trkpt>
<trkpt lat="46.41973807476461" lon="6.195311481133103"><ele></ele><time>2013-7-29T3:34:27Z</time></trkpt>
<trkpt lat="46.4200115762651" lon="6.195695037022233"><ele></ele><time>2013-7-29T3:34:30Z</time></trkpt>
<trkpt lat="46.42036261036992" lon="6.196131398901343"><ele></ele><time>2013-7-29T3:34:33Z</time></trkpt>
<trkpt lat="46.42046486958861" lon="6.1962606478482485"><ele></ele><time>2013-7-29T3:34:36Z</time></trkpt>
<trkpt lat="46.420514322817326" lon="6.196324769407511"><ele></ele><time>2013-7-29T3:34:39Z</time></trkpt>
<trkpt lat="46.42056427896023" lon="6.196386124938726"><ele></ele><time>2013-7-29T3:34:42Z</time></trkpt>
<trkpt lat="46.42061708495021" lon="6.196443792432547"><ele></ele><time>2013-7-29T3:34:45Z</time></trkpt>
<trkpt lat="46.420670142397285" lon="6.196498777717352"><ele></ele><time>2013-7-29T3:34:48Z</time></trkpt>
<trkpt lat="46.42072613351047" lon="6.196547895669937"><ele></ele><time>2013-7-29T3:34:51Z</time></trkpt>
<trkpt lat="46.42084959894419" lon="6.196633223444223"><ele></ele><time>2013-7-29T3:34:54Z</time></trkpt>
<trkpt lat="46.42104087397456" lon="6.196732548996806"><ele></ele><time>2013-7-29T3:34:57Z</time></trkpt>
<trkpt lat="46.421504225581884" lon="6.197000686079264"><ele></ele><time>2013-7-29T3:35:0Z</time></trkpt>
<trkpt lat="46.42173606902361" lon="6.197158852592111"><ele></ele><time>2013-7-29T3:35:3Z</time></trkpt>
<trkpt lat="46.42183396965265" lon="6.197229009121656"><ele></ele><time>2013-7-29T3:35:6Z</time></trkpt>
<trkpt lat="46.42187680117786" lon="6.197247784584761"><ele></ele><time>2013-7-29T3:35:9Z</time></trkpt>
<trkpt lat="46.421989034861326" lon="6.197295561432838"><ele></ele><time>2013-7-29T3:35:12Z</time></trkpt>
<trkpt lat="46.422132700681686" lon="6.197356414049864"><ele></ele><time>2013-7-29T3:35:15Z</time></trkpt>
<trkpt lat="46.42224417999387" lon="6.197420032694936"><ele></ele><time>2013-7-29T3:35:18Z</time></trkpt>
<trkpt lat="46.42241517081857" lon="6.197491949424148"><ele></ele><time>2013-7-29T3:35:21Z</time></trkpt>
<trkpt lat="46.42247350886464" lon="6.197513155639172"><ele></ele><time>2013-7-29T3:35:24Z</time></trkpt>
<trkpt lat="46.42253411002457" lon="6.1975370440632105"><ele></ele><time>2013-7-29T3:35:27Z</time></trkpt>
<trkpt lat="46.4226018358022" lon="6.197563195601106"><ele></ele><time>2013-7-29T3:35:30Z</time></trkpt>
<trkpt lat="46.42266319133341" lon="6.197592616081238"><ele></ele><time>2013-7-29T3:35:33Z</time></trkpt>
<trkpt lat="46.42272345721722" lon="6.197623545303941"><ele></ele><time>2013-7-29T3:35:36Z</time></trkpt>
<trkpt lat="46.42319024540484" lon="6.197864273563027"><ele></ele><time>2013-7-29T3:35:39Z</time></trkpt>
<trkpt lat="46.423743115738034" lon="6.19815805926919"><ele></ele><time>2013-7-29T3:35:42Z</time></trkpt>
<trkpt lat="46.424149721860886" lon="6.198332905769348"><ele></ele><time>2013-7-29T3:35:45Z</time></trkpt>
<trkpt lat="46.4243286754936" lon="6.198415886610746"><ele></ele><time>2013-7-29T3:35:48Z</time></trkpt>
<trkpt lat="46.42438584007323" lon="6.198444971814752"><ele></ele><time>2013-7-29T3:35:51Z</time></trkpt>
<trkpt lat="46.42444375902414" lon="6.198473805561662"><ele></ele><time>2013-7-29T3:35:54Z</time></trkpt>
<trkpt lat="46.42450452782214" lon="6.198500711470842"><ele></ele><time>2013-7-29T3:35:57Z</time></trkpt>
<trkpt lat="46.42456026747823" lon="6.198530551046133"><ele></ele><time>2013-7-29T3:36:0Z</time></trkpt>
<trkpt lat="46.42495564185083" lon="6.1987359914928675"><ele></ele><time>2013-7-29T3:36:3Z</time></trkpt>
<trkpt lat="46.425359984859824" lon="6.1988938227295876"><ele></ele><time>2013-7-29T3:36:6Z</time></trkpt>
<trkpt lat="46.425870610401034" lon="6.199093982577324"><ele></ele><time>2013-7-29T3:36:9Z</time></trkpt>
<trkpt lat="46.425948394462466" lon="6.19910161010921"><ele></ele><time>2013-7-29T3:36:12Z</time></trkpt>
<trkpt lat="46.42616992816329" lon="6.199055593460798"><ele></ele><time>2013-7-29T3:36:15Z</time></trkpt>
<trkpt lat="46.4263750333339" lon="6.198927517980337"><ele></ele><time>2013-7-29T3:36:18Z</time></trkpt>
<trkpt lat="46.426514172926545" lon="6.198812685906887"><ele></ele><time>2013-7-29T3:36:21Z</time></trkpt>
<trkpt lat="46.42690191976726" lon="6.198488557711244"><ele></ele><time>2013-7-29T3:36:24Z</time></trkpt>
<trkpt lat="46.42698884010315" lon="6.19841119274497"><ele></ele><time>2013-7-29T3:36:27Z</time></trkpt>
<trkpt lat="46.427076095715165" lon="6.198326451703906"><ele></ele><time>2013-7-29T3:36:30Z</time></trkpt>
<trkpt lat="46.427166955545545" lon="6.1982338316738605"><ele></ele><time>2013-7-29T3:36:33Z</time></trkpt>
<trkpt lat="46.427254378795624" lon="6.198140373453498"><ele></ele><time>2013-7-29T3:36:36Z</time></trkpt>
<trkpt lat="46.42734423279762" lon="6.198038952425122"><ele></ele><time>2013-7-29T3:36:39Z</time></trkpt>
<trkpt lat="46.42743157222867" lon="6.1979304905980825"><ele></ele><time>2013-7-29T3:36:42Z</time></trkpt>
<trkpt lat="46.42751480452716" lon="6.197810964658856"><ele></ele><time>2013-7-29T3:36:45Z</time></trkpt>
<trkpt lat="46.427592588588595" lon="6.197686409577727"><ele></ele><time>2013-7-29T3:36:48Z</time></trkpt>
<trkpt lat="46.42766995355487" lon="6.197557998821139"><ele></ele><time>2013-7-29T3:36:51Z</time></trkpt>
<trkpt lat="46.427751844748855" lon="6.197420284152031"><ele></ele><time>2013-7-29T3:36:54Z</time></trkpt>
<trkpt lat="46.427831053733826" lon="6.197285084053874"><ele></ele><time>2013-7-29T3:36:57Z</time></trkpt>
<trkpt lat="46.427920907735825" lon="6.197160612791777"><ele></ele><time>2013-7-29T3:37:0Z</time></trkpt>
<trkpt lat="46.4280241727829" lon="6.19706011377275"><ele></ele><time>2013-7-29T3:37:3Z</time></trkpt>
<trkpt lat="46.42813716083765" lon="6.196992387995124"><ele></ele><time>2013-7-29T3:37:6Z</time></trkpt>
<trkpt lat="46.42825048416853" lon="6.196961374953389"><ele></ele><time>2013-7-29T3:37:9Z</time></trkpt>
<trkpt lat="46.428358275443316" lon="6.1969665717333555"><ele></ele><time>2013-7-29T3:37:12Z</time></trkpt>
<trkpt lat="46.42846958711743" lon="6.1969969142228365"><ele></ele><time>2013-7-29T3:37:15Z</time></trkpt>
<trkpt lat="46.42856371589005" lon="6.197043266147375"><ele></ele><time>2013-7-29T3:37:18Z</time></trkpt>
<trkpt lat="46.4286476187408" lon="6.197092300280929"><ele></ele><time>2013-7-29T3:37:21Z</time></trkpt>
<trkpt lat="46.42886454239488" lon="6.197227081283927"><ele></ele><time>2013-7-29T3:37:24Z</time></trkpt>
<trkpt lat="46.42898457124829" lon="6.197329927235842"><ele></ele><time>2013-7-29T3:37:27Z</time></trkpt>
<trkpt lat="46.42906746827066" lon="6.1974754370749"><ele></ele><time>2013-7-29T3:37:30Z</time></trkpt>
<trkpt lat="46.42912060953677" lon="6.197636369615793"><ele></ele><time>2013-7-29T3:37:33Z</time></trkpt>
<trkpt lat="46.42915656790137" lon="6.197784645482898"><ele></ele><time>2013-7-29T3:37:36Z</time></trkpt>
<trkpt lat="46.42916872166097" lon="6.197853125631809"><ele></ele><time>2013-7-29T3:37:39Z</time></trkpt>
<trkpt lat="46.42918230034411" lon="6.197982709854841"><ele></ele><time>2013-7-29T3:37:42Z</time></trkpt>
<trkpt lat="46.42918271943927" lon="6.198043143376708"><ele></ele><time>2013-7-29T3:37:45Z</time></trkpt>
<trkpt lat="46.42918364144862" lon="6.198106091469526"><ele></ele><time>2013-7-29T3:37:48Z</time></trkpt>
<trkpt lat="46.429189424961805" lon="6.19816929101944"><ele></ele><time>2013-7-29T3:37:51Z</time></trkpt>
<trkpt lat="46.4291983935982" lon="6.1982297245413065"><ele></ele><time>2013-7-29T3:37:54Z</time></trkpt>
<trkpt lat="46.42921272665262" lon="6.198403229936957"><ele></ele><time>2013-7-29T3:37:57Z</time></trkpt>
<trkpt lat="46.42921800725162" lon="6.1984579637646675"><ele></ele><time>2013-7-29T3:38:0Z</time></trkpt>
<trkpt lat="46.429221108555794" lon="6.1985118594020605"><ele></ele><time>2013-7-29T3:38:3Z</time></trkpt>
<trkpt lat="46.429220689460635" lon="6.198564497753978"><ele></ele><time>2013-7-29T3:38:6Z</time></trkpt>
<trkpt lat="46.4292174205184" lon="6.198667678982019"><ele></ele><time>2013-7-29T3:38:9Z</time></trkpt>
<trkpt lat="46.42921607941389" lon="6.1987171322107315"><ele></ele><time>2013-7-29T3:38:12Z</time></trkpt>
<trkpt lat="46.429213816300035" lon="6.19876834563911"><ele></ele><time>2013-7-29T3:38:15Z</time></trkpt>
<trkpt lat="46.42921247519553" lon="6.198819475248456"><ele></ele><time>2013-7-29T3:38:18Z</time></trkpt>
<trkpt lat="46.42920912243426" lon="6.198866916820407"><ele></ele><time>2013-7-29T3:38:21Z</time></trkpt>
<trkpt lat="46.42919705249369" lon="6.19895844720304"><ele></ele><time>2013-7-29T3:38:24Z</time></trkpt>
<trkpt lat="46.429187497124076" lon="6.199005553498864"><ele></ele><time>2013-7-29T3:38:27Z</time></trkpt>
<trkpt lat="46.4291777741164" lon="6.199055342003703"><ele></ele><time>2013-7-29T3:38:30Z</time></trkpt>
<trkpt lat="46.42916620709002" lon="6.199108567088842"><ele></ele><time>2013-7-29T3:38:33Z</time></trkpt>
<trkpt lat="46.4291550591588" lon="6.199159445241094"><ele></ele><time>2013-7-29T3:38:36Z</time></trkpt>
<trkpt lat="46.42912513576448" lon="6.199321551248431"><ele></ele><time>2013-7-29T3:38:39Z</time></trkpt>
<trkpt lat="46.4291138201952" lon="6.199376787990332"><ele></ele><time>2013-7-29T3:38:42Z</time></trkpt>
<trkpt lat="46.42910124734044" lon="6.199431521818042"><ele></ele><time>2013-7-29T3:38:45Z</time></trkpt>
<trkpt lat="46.429086830466986" lon="6.199484998360276"><ele></ele><time>2013-7-29T3:38:48Z</time></trkpt>
<trkpt lat="46.42906906083226" lon="6.199539732187986"><ele></ele><time>2013-7-29T3:38:51Z</time></trkpt>
<trkpt lat="46.42901474609971" lon="6.199694629758596"><ele></ele><time>2013-7-29T3:38:54Z</time></trkpt>
<trkpt lat="46.4289962220937" lon="6.199743831530213"><ele></ele><time>2013-7-29T3:38:57Z</time></trkpt>
<trkpt lat="46.428979290649295" lon="6.199798732995987"><ele></ele><time>2013-7-29T3:39:0Z</time></trkpt>
<trkpt lat="46.428964203223586" lon="6.199854975566268"><ele></ele><time>2013-7-29T3:39:3Z</time></trkpt>
<trkpt lat="46.42888130620122" lon="6.200141636654735"><ele></ele><time>2013-7-29T3:39:6Z</time></trkpt>
<trkpt lat="46.428758427500725" lon="6.2005371786653996"><ele></ele><time>2013-7-29T3:39:9Z</time></trkpt>
<trkpt lat="46.42866446636617" lon="6.200883015990257"><ele></ele><time>2013-7-29T3:39:12Z</time></trkpt>
<trkpt lat="46.428654408082366" lon="6.200982760637999"><ele></ele><time>2013-7-29T3:39:15Z</time></trkpt>
<trkpt lat="46.42868408001959" lon="6.201269840821624"><ele></ele><time>2013-7-29T3:39:18Z</time></trkpt>
<trkpt lat="46.428803354501724" lon="6.2014843337237835"><ele></ele><time>2013-7-29T3:39:21Z</time></trkpt>
<trkpt lat="46.428851801902056" lon="6.201549461111426"><ele></ele><time>2013-7-29T3:39:24Z</time></trkpt>
<trkpt lat="46.428959760814905" lon="6.201749537140131"><ele></ele><time>2013-7-29T3:39:27Z</time></trkpt>
<trkpt lat="46.42899848520756" lon="6.201922371983528"><ele></ele><time>2013-7-29T3:39:30Z</time></trkpt>
<trkpt lat="46.42908071167767" lon="6.2020754255354404"><ele></ele><time>2013-7-29T3:39:33Z</time></trkpt>
<trkpt lat="46.42916235141456" lon="6.202233005315065"><ele></ele><time>2013-7-29T3:39:36Z</time></trkpt>
<trkpt lat="46.429195795208216" lon="6.202323194593191"><ele></ele><time>2013-7-29T3:39:39Z</time></trkpt>
<trkpt lat="46.42923720180988" lon="6.202415227890015"><ele></ele><time>2013-7-29T3:39:42Z</time></trkpt>
<trkpt lat="46.42947206273675" lon="6.202890481799841"><ele></ele><time>2013-7-29T3:39:45Z</time></trkpt>
<trkpt lat="46.429520677775145" lon="6.202986873686314"><ele></ele><time>2013-7-29T3:39:48Z</time></trkpt>
<trkpt lat="46.42965822480619" lon="6.2032882031053305"><ele></ele><time>2013-7-29T3:39:51Z</time></trkpt>
<trkpt lat="46.42970776185393" lon="6.203392641618848"><ele></ele><time>2013-7-29T3:39:54Z</time></trkpt>
<trkpt lat="46.42976023256779" lon="6.203487943857908"><ele></ele><time>2013-7-29T3:39:57Z</time></trkpt>
<trkpt lat="46.42981689423323" lon="6.20357452891767"><ele></ele><time>2013-7-29T3:40:0Z</time></trkpt>
<trkpt lat="46.42987464554608" lon="6.20365952141583"><ele></ele><time>2013-7-29T3:40:3Z</time></trkpt>
<trkpt lat="46.43013909459114" lon="6.20394928380847"><ele></ele><time>2013-7-29T3:40:6Z</time></trkpt>
<trkpt lat="46.430540503934026" lon="6.20443744584918"><ele></ele><time>2013-7-29T3:40:9Z</time></trkpt>
<trkpt lat="46.43059691414237" lon="6.204521432518959"><ele></ele><time>2013-7-29T3:40:12Z</time></trkpt>
<trkpt lat="46.43065541982651" lon="6.204607766121626"><ele></ele><time>2013-7-29T3:40:15Z</time></trkpt>
<trkpt lat="46.43070965074003" lon="6.204689238220453"><ele></ele><time>2013-7-29T3:40:18Z</time></trkpt>
<trkpt lat="46.43076589331031" lon="6.204769620671868"><ele></ele><time>2013-7-29T3:40:21Z</time></trkpt>
<trkpt lat="46.430821381509304" lon="6.204851511865854"><ele></ele><time>2013-7-29T3:40:24Z</time></trkpt>
<trkpt lat="46.43098717555404" lon="6.205098945647478"><ele></ele><time>2013-7-29T3:40:27Z</time></trkpt>
<trkpt lat="46.43131968565285" lon="6.205571098253131"><ele></ele><time>2013-7-29T3:40:30Z</time></trkpt>
<trkpt lat="46.431372156366706" lon="6.205648211762309"><ele></ele><time>2013-7-29T3:40:33Z</time></trkpt>
<trkpt lat="46.43163685686886" lon="6.20604207739234"><ele></ele><time>2013-7-29T3:40:36Z</time></trkpt>
<trkpt lat="46.4318785071373" lon="6.206424543634057"><ele></ele><time>2013-7-29T3:40:39Z</time></trkpt>
<trkpt lat="46.43196224234998" lon="6.20658790692687"><ele></ele><time>2013-7-29T3:40:42Z</time></trkpt>
<trkpt lat="46.43200314603746" lon="6.206671893596649"><ele></ele><time>2013-7-29T3:40:45Z</time></trkpt>
<trkpt lat="46.432042960077524" lon="6.206759065389633"><ele></ele><time>2013-7-29T3:40:48Z</time></trkpt>
<trkpt lat="46.432082606479526" lon="6.206845818087459"><ele></ele><time>2013-7-29T3:40:51Z</time></trkpt>
<trkpt lat="46.43212091177702" lon="6.206933241337538"><ele></ele><time>2013-7-29T3:40:54Z</time></trkpt>
<trkpt lat="46.43216215074062" lon="6.207021335139871"><ele></ele><time>2013-7-29T3:40:57Z</time></trkpt>
<trkpt lat="46.432410506531596" lon="6.207569008693099"><ele></ele><time>2013-7-29T3:41:0Z</time></trkpt>
<trkpt lat="46.43271024338901" lon="6.208238806575537"><ele></ele><time>2013-7-29T3:41:3Z</time></trkpt>
<trkpt lat="46.43280537799001" lon="6.20843687094748"><ele></ele><time>2013-7-29T3:41:6Z</time></trkpt>
<trkpt lat="46.4331338647753" lon="6.209171544760466"><ele></ele><time>2013-7-29T3:41:9Z</time></trkpt>
<trkpt lat="46.433180551975965" lon="6.2092849519103765"><ele></ele><time>2013-7-29T3:41:12Z</time></trkpt>
<trkpt lat="46.43322279676795" lon="6.209397269412875"><ele></ele><time>2013-7-29T3:41:15Z</time></trkpt>
<trkpt lat="46.43326076678932" lon="6.209511766210198"><ele></ele><time>2013-7-29T3:41:18Z</time></trkpt>
<trkpt lat="46.43329722806811" lon="6.209626095369458"><ele></ele><time>2013-7-29T3:41:21Z</time></trkpt>
<trkpt lat="46.43332882784307" lon="6.209739753976464"><ele></ele><time>2013-7-29T3:41:24Z</time></trkpt>
<trkpt lat="46.43335799686611" lon="6.209852993488312"><ele></ele><time>2013-7-29T3:41:27Z</time></trkpt>
<trkpt lat="46.4333843998611" lon="6.209968747571111"><ele></ele><time>2013-7-29T3:41:30Z</time></trkpt>
<trkpt lat="46.43347735516727" lon="6.210643909871578"><ele></ele><time>2013-7-29T3:41:33Z</time></trkpt>
<trkpt lat="46.43347039818764" lon="6.211332315579057"><ele></ele><time>2013-7-29T3:41:36Z</time></trkpt>
<trkpt lat="46.43335187807679" lon="6.212053913623095"><ele></ele><time>2013-7-29T3:41:39Z</time></trkpt>
<trkpt lat="46.43331793136895" lon="6.212179809808731"><ele></ele><time>2013-7-29T3:41:42Z</time></trkpt>
<trkpt lat="46.43328297883272" lon="6.212308807298541"><ele></ele><time>2013-7-29T3:41:45Z</time></trkpt>
<trkpt lat="46.43324685283005" lon="6.212441995739937"><ele></ele><time>2013-7-29T3:41:48Z</time></trkpt>
<trkpt lat="46.433208798989654" lon="6.212577698752284"><ele></ele><time>2013-7-29T3:41:51Z</time></trkpt>
<trkpt lat="46.43316756002605" lon="6.212715916335583"><ele></ele><time>2013-7-29T3:41:54Z</time></trkpt>
<trkpt lat="46.43312615342438" lon="6.212865868583322"><ele></ele><time>2013-7-29T3:41:57Z</time></trkpt>
<trkpt lat="46.433093044906855" lon="6.21301481500268"><ele></ele><time>2013-7-29T3:42:0Z</time></trkpt>
<trkpt lat="46.43307267688215" lon="6.213167700916529"><ele></ele><time>2013-7-29T3:42:3Z</time></trkpt>
<trkpt lat="46.43307141959667" lon="6.213323101401329"><ele></ele><time>2013-7-29T3:42:6Z</time></trkpt>
<trkpt lat="46.433093044906855" lon="6.213481519371271"><ele></ele><time>2013-7-29T3:42:9Z</time></trkpt>
<trkpt lat="46.43313495442271" lon="6.2136392667889595"><ele></ele><time>2013-7-29T3:42:12Z</time></trkpt>
<trkpt lat="46.4331838209182" lon="6.213797517120838"><ele></ele><time>2013-7-29T3:42:15Z</time></trkpt>
<trkpt lat="46.43324039876461" lon="6.213960209861398"><ele></ele><time>2013-7-29T3:42:18Z</time></trkpt>
<trkpt lat="46.4333030115813" lon="6.214110581204295"><ele></ele><time>2013-7-29T3:42:21Z</time></trkpt>
<trkpt lat="46.4333704020828" lon="6.214254749938846"><ele></ele><time>2013-7-29T3:42:24Z</time></trkpt>
<trkpt lat="46.43343745730817" lon="6.2143984995782375"><ele></ele><time>2013-7-29T3:42:27Z</time></trkpt>
<trkpt lat="46.43350375816226" lon="6.214537974447012"><ele></ele><time>2013-7-29T3:42:30Z</time></trkpt>
<trkpt lat="46.43357458524406" lon="6.214670157060027"><ele></ele><time>2013-7-29T3:42:33Z</time></trkpt>
<trkpt lat="46.43364205956459" lon="6.214799657464027"><ele></ele><time>2013-7-29T3:42:36Z</time></trkpt>
<trkpt lat="46.43370961770415" lon="6.214935360476375"><ele></ele><time>2013-7-29T3:42:39Z</time></trkpt>
<trkpt lat="46.4337744936347" lon="6.215060250833631"><ele></ele><time>2013-7-29T3:42:42Z</time></trkpt>
<trkpt lat="46.43383417278528" lon="6.215184135362506"><ele></ele><time>2013-7-29T3:42:45Z</time></trkpt>
<trkpt lat="46.433996027335525" lon="6.215519076213241"><ele></ele><time>2013-7-29T3:42:48Z</time></trkpt>
<trkpt lat="46.43416550941765" lon="6.215894669294357"><ele></ele><time>2013-7-29T3:42:51Z</time></trkpt>
<trkpt lat="46.43422745168209" lon="6.216050237417221"><ele></ele><time>2013-7-29T3:42:54Z</time></trkpt>
<trkpt lat="46.434278916567564" lon="6.216193567961454"><ele></ele><time>2013-7-29T3:42:57Z</time></trkpt>
<trkpt lat="46.43431185744703" lon="6.2162465415894985"><ele></ele><time>2013-7-29T3:43:0Z</time></trkpt>
<trkpt lat="46.43434387631714" lon="6.216296581551433"><ele></ele><time>2013-7-29T3:43:3Z</time></trkpt>
<trkpt lat="46.4343738835305" lon="6.216346453875303"><ele></ele><time>2013-7-29T3:43:6Z</time></trkpt>
<trkpt lat="46.43440271727741" lon="6.21640102006495"><ele></ele><time>2013-7-29T3:43:9Z</time></trkpt>
<trkpt lat="46.43442937172949" lon="6.216457178816199"><ele></ele><time>2013-7-29T3:43:12Z</time></trkpt>
<trkpt lat="46.43445326015353" lon="6.216509817168117"><ele></ele><time>2013-7-29T3:43:15Z</time></trkpt>
<trkpt lat="46.43447471782565" lon="6.216562204062939"><ele></ele><time>2013-7-29T3:43:18Z</time></trkpt>
<trkpt lat="46.43449558876455" lon="6.216613417491317"><ele></ele><time>2013-7-29T3:43:21Z</time></trkpt>
<trkpt lat="46.434515286237" lon="6.2166656367480755"><ele></ele><time>2013-7-29T3:43:24Z</time></trkpt>
<trkpt lat="46.43454562872648" lon="6.216777032241225"><ele></ele><time>2013-7-29T3:43:27Z</time></trkpt>
<trkpt lat="46.43455761484802" lon="6.2168429140001535"><ele></ele><time>2013-7-29T3:43:30Z</time></trkpt>
<trkpt lat="46.43456842750311" lon="6.216910891234875"><ele></ele><time>2013-7-29T3:43:33Z</time></trkpt>
<trkpt lat="46.43458410166204" lon="6.2169792875647545"><ele></ele><time>2013-7-29T3:43:36Z</time></trkpt>
<trkpt lat="46.43459885381162" lon="6.217049779370427"><ele></ele><time>2013-7-29T3:43:39Z</time></trkpt>
<trkpt lat="46.434612181037664" lon="6.217123372480273"><ele></ele><time>2013-7-29T3:43:42Z</time></trkpt>
<trkpt lat="46.43463036976755" lon="6.217201156541705"><ele></ele><time>2013-7-29T3:43:45Z</time></trkpt>
<trkpt lat="46.43465157598257" lon="6.217272989451885"><ele></ele><time>2013-7-29T3:43:48Z</time></trkpt>
<trkpt lat="46.43470513634384" lon="6.217410368844867"><ele></ele><time>2013-7-29T3:43:51Z</time></trkpt>
<trkpt lat="46.43476883880794" lon="6.217537689954042"><ele></ele><time>2013-7-29T3:43:54Z</time></trkpt>
<trkpt lat="46.43480630591512" lon="6.2175968661904335"><ele></ele><time>2013-7-29T3:43:57Z</time></trkpt>
<trkpt lat="46.43493647687137" lon="6.2177935894578695"><ele></ele><time>2013-7-29T3:44:0Z</time></trkpt>
<trkpt lat="46.43498559482396" lon="6.217860477045178"><ele></ele><time>2013-7-29T3:44:3Z</time></trkpt>
<trkpt lat="46.435114508494735" lon="6.217861901968718"><ele></ele><time>2013-7-29T3:44:6Z</time></trkpt>
<trkpt lat="46.43525515682995" lon="6.217663502320647"><ele></ele><time>2013-7-29T3:44:9Z</time></trkpt>
<trkpt lat="46.43532740883529" lon="6.217537270858884"><ele></ele><time>2013-7-29T3:44:12Z</time></trkpt>
<trkpt lat="46.43542296253145" lon="6.217357898131013"><ele></ele><time>2013-7-29T3:44:15Z</time></trkpt>
<trkpt lat="46.4354426600039" lon="6.217290172353387"><ele></ele><time>2013-7-29T3:44:18Z</time></trkpt>
<trkpt lat="46.43548021093011" lon="6.217155894264579"><ele></ele><time>2013-7-29T3:44:21Z</time></trkpt>
<trkpt lat="46.435556737706065" lon="6.216918686404824"><ele></ele><time>2013-7-29T3:44:24Z</time></trkpt>
<trkpt lat="46.435572411864996" lon="6.216854648664594"><ele></ele><time>2013-7-29T3:44:27Z</time></trkpt>
<trkpt lat="46.43558884039521" lon="6.2167934607714415"><ele></ele><time>2013-7-29T3:44:30Z</time></trkpt>
<trkpt lat="46.435608454048634" lon="6.21673084795475"><ele></ele><time>2013-7-29T3:44:33Z</time></trkpt>
<trkpt lat="46.43562873825431" lon="6.216670665889978"><ele></ele><time>2013-7-29T3:44:36Z</time></trkpt>
<trkpt lat="46.435654470697045" lon="6.216618111357093"><ele></ele><time>2013-7-29T3:44:39Z</time></trkpt>
<trkpt lat="46.435682298615575" lon="6.216570418328047"><ele></ele><time>2013-7-29T3:44:42Z</time></trkpt>
<trkpt lat="46.43582227639854" lon="6.216301107779145"><ele></ele><time>2013-7-29T3:44:45Z</time></trkpt>
<trkpt lat="46.43584725446999" lon="6.216247631236911"><ele></ele><time>2013-7-29T3:44:48Z</time></trkpt>
<trkpt lat="46.435875333845615" lon="6.21619189158082"><ele></ele><time>2013-7-29T3:44:51Z</time></trkpt>
<trkpt lat="46.435904167592525" lon="6.2161405105143785"><ele></ele><time>2013-7-29T3:44:54Z</time></trkpt>
<trkpt lat="46.4359313249588" lon="6.21608879417181"><ele></ele><time>2013-7-29T3:44:57Z</time></trkpt>
<trkpt lat="46.43604355864227" lon="6.215896597132087"><ele></ele><time>2013-7-29T3:45:0Z</time></trkpt>
<trkpt lat="46.43607188947499" lon="6.215851167216897"><ele></ele><time>2013-7-29T3:45:3Z</time></trkpt>
<trkpt lat="46.43610089085996" lon="6.215804060921073"><ele></ele><time>2013-7-29T3:45:6Z</time></trkpt>
<trkpt lat="46.43613056279719" lon="6.215757876634598"><ele></ele><time>2013-7-29T3:45:9Z</time></trkpt>
<trkpt lat="46.43616132438183" lon="6.215712279081345"><ele></ele><time>2013-7-29T3:45:12Z</time></trkpt>
<trkpt lat="46.43619015812874" lon="6.215667016804218"><ele></ele><time>2013-7-29T3:45:15Z</time></trkpt>
<trkpt lat="46.436285208910704" lon="6.215530559420586"><ele></ele><time>2013-7-29T3:45:18Z</time></trkpt>
<trkpt lat="46.43643155694008" lon="6.215314390137792"><ele></ele><time>2013-7-29T3:45:21Z</time></trkpt>
<trkpt lat="46.43645913340151" lon="6.215269044041634"><ele></ele><time>2013-7-29T3:45:24Z</time></trkpt>
<trkpt lat="46.4364892244339" lon="6.215224955230951"><ele></ele><time>2013-7-29T3:45:27Z</time></trkpt>
<trkpt lat="46.436521830037236" lon="6.215182458981872"><ele></ele><time>2013-7-29T3:45:30Z</time></trkpt>
<trkpt lat="46.43655443564057" lon="6.215138956904411"><ele></ele><time>2013-7-29T3:45:33Z</time></trkpt>
<trkpt lat="46.43671654164791" lon="6.214919099584222"><ele></ele><time>2013-7-29T3:45:36Z</time></trkpt>
<trkpt lat="46.43674788996577" lon="6.214876603335142"><ele></ele><time>2013-7-29T3:45:39Z</time></trkpt>
<trkpt lat="46.436777561903" lon="6.21483352035284"><ele></ele><time>2013-7-29T3:45:42Z</time></trkpt>
<trkpt lat="46.436807652935386" lon="6.214788593351841"><ele></ele><time>2013-7-29T3:45:45Z</time></trkpt>
<trkpt lat="46.43683774396777" lon="6.214745091274381"><ele></ele><time>2013-7-29T3:45:48Z</time></trkpt>
<trkpt lat="46.43695928156376" lon="6.214562114328146"><ele></ele><time>2013-7-29T3:45:51Z</time></trkpt>
<trkpt lat="46.43698710948229" lon="6.214517690241337"><ele></ele><time>2013-7-29T3:45:54Z</time></trkpt>
<trkpt lat="46.43708408810198" lon="6.214410737156868"><ele></ele><time>2013-7-29T3:45:57Z</time></trkpt>
<trkpt lat="46.43711719661951" lon="6.214371090754867"><ele></ele><time>2013-7-29T3:46:0Z</time></trkpt>
<trkpt lat="46.4371470361948" lon="6.2143319472670555"><ele></ele><time>2013-7-29T3:46:3Z</time></trkpt>
<trkpt lat="46.43717645667493" lon="6.214293809607625"><ele></ele><time>2013-7-29T3:46:6Z</time></trkpt>
<trkpt lat="46.43720705062151" lon="6.214249720796943"><ele></ele><time>2013-7-29T3:46:9Z</time></trkpt>
<trkpt lat="46.43742808140814" lon="6.213961383327842"><ele></ele><time>2013-7-29T3:46:12Z</time></trkpt>
<trkpt lat="46.437454065307975" lon="6.213919222354889"><ele></ele><time>2013-7-29T3:46:15Z</time></trkpt>
<trkpt lat="46.437481893226504" lon="6.213874043896794"><ele></ele><time>2013-7-29T3:46:18Z</time></trkpt>
<trkpt lat="46.437510307878256" lon="6.213828362524509"><ele></ele><time>2013-7-29T3:46:21Z</time></trkpt>
<trkpt lat="46.437538638710976" lon="6.21378343552351"><ele></ele><time>2013-7-29T3:46:24Z</time></trkpt>
<trkpt lat="46.43759404309094" lon="6.213690899312496"><ele></ele><time>2013-7-29T3:46:27Z</time></trkpt>
<trkpt lat="46.43772002309561" lon="6.2134734727442265"><ele></ele><time>2013-7-29T3:46:30Z</time></trkpt>
<trkpt lat="46.43774659372866" lon="6.213426198810339"><ele></ele><time>2013-7-29T3:46:33Z</time></trkpt>
<trkpt lat="46.43777148798108" lon="6.2133800983428955"><ele></ele><time>2013-7-29T3:46:36Z</time></trkpt>
<trkpt lat="46.437795627862215" lon="6.213336260989308"><ele></ele><time>2013-7-29T3:46:39Z</time></trkpt>
<trkpt lat="46.437820522114635" lon="6.213292758911848"><ele></ele><time>2013-7-29T3:46:42Z</time></trkpt>
<trkpt lat="46.437926637008786" lon="6.213061669841409"><ele></ele><time>2013-7-29T3:46:45Z</time></trkpt>
<trkpt lat="46.43794884905219" lon="6.213015904650092"><ele></ele><time>2013-7-29T3:46:48Z</time></trkpt>
<trkpt lat="46.43796946853399" lon="6.212970893830061"><ele></ele><time>2013-7-29T3:46:51Z</time></trkpt>
<trkpt lat="46.43799235112965" lon="6.212925296276808"><ele></ele><time>2013-7-29T3:46:54Z</time></trkpt>
<trkpt lat="46.43801347352564" lon="6.212877351790667"><ele></ele><time>2013-7-29T3:46:57Z</time></trkpt>
<trkpt lat="46.43803417682648" lon="6.212829994037747"><ele></ele><time>2013-7-29T3:47:0Z</time></trkpt>
<trkpt lat="46.43805596977472" lon="6.2127825524657965"><ele></ele><time>2013-7-29T3:47:3Z</time></trkpt>
<trkpt lat="46.438080444931984" lon="6.212731841951609"><ele></ele><time>2013-7-29T3:47:6Z</time></trkpt>
<trkpt lat="46.43822595477104" lon="6.212397152557969"><ele></ele><time>2013-7-29T3:47:9Z</time></trkpt>
<trkpt lat="46.43825403414667" lon="6.212357254698873"><ele></ele><time>2013-7-29T3:47:12Z</time></trkpt>
<trkpt lat="46.43828538246453" lon="6.212328337132931"><ele></ele><time>2013-7-29T3:47:15Z</time></trkpt>
<trkpt lat="46.4383180718869" lon="6.212301095947623"><ele></ele><time>2013-7-29T3:47:18Z</time></trkpt>
<trkpt lat="46.43835109658539" lon="6.212271675467491"><ele></ele><time>2013-7-29T3:47:21Z</time></trkpt>
<trkpt lat="46.43841731362045" lon="6.212205961346626"><ele></ele><time>2013-7-29T3:47:24Z</time></trkpt>
<trkpt lat="46.43858461640775" lon="6.212040334939957"><ele></ele><time>2013-7-29T3:47:27Z</time></trkpt>
<trkpt lat="46.43861688673496" lon="6.212007729336619"><ele></ele><time>2013-7-29T3:47:30Z</time></trkpt>
<trkpt lat="46.43864563666284" lon="6.211974872276187"><ele></ele><time>2013-7-29T3:47:33Z</time></trkpt>
<trkpt lat="46.43867623060942" lon="6.211943356320262"><ele></ele><time>2013-7-29T3:47:36Z</time></trkpt>
<trkpt lat="46.43870707601309" lon="6.2119122594594955"><ele></ele><time>2013-7-29T3:47:39Z</time></trkpt>
<trkpt lat="46.43887907266617" lon="6.211743783205748"><ele></ele><time>2013-7-29T3:47:42Z</time></trkpt>
<trkpt lat="46.438907319679856" lon="6.211720984429121"><ele></ele><time>2013-7-29T3:47:45Z</time></trkpt>
<trkpt lat="46.43893824890256" lon="6.211696425452828"><ele></ele><time>2013-7-29T3:47:48Z</time></trkpt>
<trkpt lat="46.43896917812526" lon="6.211673459038138"><ele></ele><time>2013-7-29T3:47:51Z</time></trkpt>
<trkpt lat="46.43899968825281" lon="6.211649989709258"><ele></ele><time>2013-7-29T3:47:54Z</time></trkpt>
<trkpt lat="46.43914603628218" lon="6.211546389386058"><ele></ele><time>2013-7-29T3:47:57Z</time></trkpt>
<trkpt lat="46.43921543844044" lon="6.2115164659917355"><ele></ele><time>2013-7-29T3:48:0Z</time></trkpt>
<trkpt lat="46.43924821168184" lon="6.211505401879549"><ele></ele><time>2013-7-29T3:48:3Z</time></trkpt>
<trkpt lat="46.43928282894194" lon="6.2114958465099335"><ele></ele><time>2013-7-29T3:48:6Z</time></trkpt>
<trkpt lat="46.43931518308818" lon="6.211491236463189"><ele></ele><time>2013-7-29T3:48:9Z</time></trkpt>
<trkpt lat="46.43934829160571" lon="6.211486039683223"><ele></ele><time>2013-7-29T3:48:12Z</time></trkpt>
<trkpt lat="46.43947033211589" lon="6.21148151345551"><ele></ele><time>2013-7-29T3:48:15Z</time></trkpt>
<trkpt lat="46.43950402736664" lon="6.21148394420743"><ele></ele><time>2013-7-29T3:48:18Z</time></trkpt>
<trkpt lat="46.439538057893515" lon="6.211485620588064"><ele></ele><time>2013-7-29T3:48:21Z</time></trkpt>
<trkpt lat="46.43957309424877" lon="6.211490482091904"><ele></ele><time>2013-7-29T3:48:24Z</time></trkpt>
<trkpt lat="46.43960678949952" lon="6.21149911545217"><ele></ele><time>2013-7-29T3:48:27Z</time></trkpt>
<trkpt lat="46.43983050249517" lon="6.211558375507593"><ele></ele><time>2013-7-29T3:48:30Z</time></trkpt>
<trkpt lat="46.439863443374634" lon="6.211567930877209"><ele></ele><time>2013-7-29T3:48:33Z</time></trkpt>
<trkpt lat="46.43989596515894" lon="6.211576899513602"><ele></ele><time>2013-7-29T3:48:36Z</time></trkpt>
<trkpt lat="46.439925050362945" lon="6.211586119607091"><ele></ele><time>2013-7-29T3:48:39Z</time></trkpt>
<trkpt lat="46.439952962100506" lon="6.211595004424453"><ele></ele><time>2013-7-29T3:48:42Z</time></trkpt>
<trkpt lat="46.440063770860434" lon="6.211644122377038"><ele></ele><time>2013-7-29T3:48:45Z</time></trkpt>
<trkpt lat="46.44009402953088" lon="6.211655689403415"><ele></ele><time>2013-7-29T3:48:48Z</time></trkpt>
<trkpt lat="46.440121522173285" lon="6.211665915325284"><ele></ele><time>2013-7-29T3:48:51Z</time></trkpt>
<trkpt lat="46.44015152938664" lon="6.211678320541978"><ele></ele><time>2013-7-29T3:48:54Z</time></trkpt>
<trkpt lat="46.44018078222871" lon="6.21169013902545"><ele></ele><time>2013-7-29T3:48:57Z</time></trkpt>
<trkpt lat="46.440211376175284" lon="6.211704723536968"><ele></ele><time>2013-7-29T3:49:0Z</time></trkpt>
<trkpt lat="46.4402970392257" lon="6.21174830943346"><ele></ele><time>2013-7-29T3:49:3Z</time></trkpt>
<trkpt lat="46.440350683405995" lon="6.211782256141305"><ele></ele><time>2013-7-29T3:49:6Z</time></trkpt>
<trkpt lat="46.44037666730583" lon="6.211802624166012"><ele></ele><time>2013-7-29T3:49:9Z</time></trkpt>
<trkpt lat="46.44040365703404" lon="6.21182600967586"><ele></ele><time>2013-7-29T3:49:12Z</time></trkpt>
<trkpt lat="46.44042779691517" lon="6.211850149556994"><ele></ele><time>2013-7-29T3:49:15Z</time></trkpt>
<trkpt lat="46.44045168533921" lon="6.211876133456826"><ele></ele><time>2013-7-29T3:49:18Z</time></trkpt>
<trkpt lat="46.440473729744554" lon="6.211904045194387"><ele></ele><time>2013-7-29T3:49:21Z</time></trkpt>
<trkpt lat="46.440552519634366" lon="6.212025163695216"><ele></ele><time>2013-7-29T3:49:24Z</time></trkpt>
<trkpt lat="46.440572049468756" lon="6.21205810457468"><ele></ele><time>2013-7-29T3:49:27Z</time></trkpt>
<trkpt lat="46.440591076388955" lon="6.212093560025096"><ele></ele><time>2013-7-29T3:49:30Z</time></trkpt>
<trkpt lat="46.44060733728111" lon="6.212128093466163"><ele></ele><time>2013-7-29T3:49:33Z</time></trkpt>
<trkpt lat="46.44061923958361" lon="6.212168326601386"><ele></ele><time>2013-7-29T3:49:36Z</time></trkpt>
<trkpt lat="46.44065234810114" lon="6.212292881682515"><ele></ele><time>2013-7-29T3:49:39Z</time></trkpt>
<trkpt lat="46.44066936336458" lon="6.212374521419406"><ele></ele><time>2013-7-29T3:49:42Z</time></trkpt>
<trkpt lat="46.44067824818194" lon="6.212416598573327"><ele></ele><time>2013-7-29T3:49:45Z</time></trkpt>
<trkpt lat="46.440687803551555" lon="6.212461860850453"><ele></ele><time>2013-7-29T3:49:48Z</time></trkpt>
<trkpt lat="46.440695682540536" lon="6.2125051114708185"><ele></ele><time>2013-7-29T3:49:51Z</time></trkpt>
<trkpt lat="46.44070356152952" lon="6.212547942996025"><ele></ele><time>2013-7-29T3:49:54Z</time></trkpt>
<trkpt lat="46.440753769129515" lon="6.212795125320554"><ele></ele><time>2013-7-29T3:49:57Z</time></trkpt>
<trkpt lat="46.44076290540397" lon="6.212833430618048"><ele></ele><time>2013-7-29T3:50:0Z</time></trkpt>
<trkpt lat="46.440774304792285" lon="6.212870059534907"><ele></ele><time>2013-7-29T3:50:3Z</time></trkpt>
<trkpt lat="46.44078184850514" lon="6.212909119203687"><ele></ele><time>2013-7-29T3:50:6Z</time></trkpt>
<trkpt lat="46.44078838638961" lon="6.212947592139244"><ele></ele><time>2013-7-29T3:50:9Z</time></trkpt>
<trkpt lat="46.44082291983068" lon="6.213100226595998"><ele></ele><time>2013-7-29T3:50:12Z</time></trkpt>
<trkpt lat="46.440852843225" lon="6.213202234357595"><ele></ele><time>2013-7-29T3:50:15Z</time></trkpt>
<trkpt lat="46.44086189568043" lon="6.213241461664438"><ele></ele><time>2013-7-29T3:50:18Z</time></trkpt>
<trkpt lat="46.440870026126504" lon="6.213277839124203"><ele></ele><time>2013-7-29T3:50:21Z</time></trkpt>
<trkpt lat="46.44087815657258" lon="6.213313965126872"><ele></ele><time>2013-7-29T3:50:24Z</time></trkpt>
<trkpt lat="46.440887711942196" lon="6.21335344389081"><ele></ele><time>2013-7-29T3:50:27Z</time></trkpt>
<trkpt lat="46.440921826288104" lon="6.2135017197579145"><ele></ele><time>2013-7-29T3:50:30Z</time></trkpt>
<trkpt lat="46.440933058038354" lon="6.213540695607662"><ele></ele><time>2013-7-29T3:50:33Z</time></trkpt>
<trkpt lat="46.440944289788604" lon="6.213580509647727"><ele></ele><time>2013-7-29T3:50:36Z</time></trkpt>
<trkpt lat="46.44095887430012" lon="6.213617725297809"><ele></ele><time>2013-7-29T3:50:39Z</time></trkpt>
<trkpt lat="46.44097195006907" lon="6.213651672005653"><ele></ele><time>2013-7-29T3:50:42Z</time></trkpt>
<trkpt lat="46.441037748008966" lon="6.213835151866078"><ele></ele><time>2013-7-29T3:50:45Z</time></trkpt>
<trkpt lat="46.44107798114419" lon="6.21394763700664"><ele></ele><time>2013-7-29T3:50:48Z</time></trkpt>
<trkpt lat="46.441091895103455" lon="6.213981248438358"><ele></ele><time>2013-7-29T3:50:51Z</time></trkpt>
<trkpt lat="46.44110639579594" lon="6.214020224288106"><ele></ele><time>2013-7-29T3:50:54Z</time></trkpt>
<trkpt lat="46.44111905246973" lon="6.214057859033346"><ele></ele><time>2013-7-29T3:50:57Z</time></trkpt>
<trkpt lat="46.441132463514805" lon="6.21409079991281"><ele></ele><time>2013-7-29T3:51:0Z</time></trkpt>
<trkpt lat="46.44119373522699" lon="6.2142327055335045"><ele></ele><time>2013-7-29T3:51:3Z</time></trkpt>
<trkpt lat="46.44121292978525" lon="6.214261036366224"><ele></ele><time>2013-7-29T3:51:6Z</time></trkpt>
<trkpt lat="46.44123396836221" lon="6.214287942275405"><ele></ele><time>2013-7-29T3:51:9Z</time></trkpt>
<trkpt lat="46.44125182181597" lon="6.21431895531714"><ele></ele><time>2013-7-29T3:51:12Z</time></trkpt>
<trkpt lat="46.4412709325552" lon="6.214349884539843"><ele></ele><time>2013-7-29T3:51:15Z</time></trkpt>
<trkpt lat="46.4414038695395" lon="6.214510146528482"><ele></ele><time>2013-7-29T3:51:18Z</time></trkpt>
<trkpt lat="46.44142725504935" lon="6.214536968618631"><ele></ele><time>2013-7-29T3:51:21Z</time></trkpt>
<trkpt lat="46.44145240075886" lon="6.214560270309448"><ele></ele><time>2013-7-29T3:51:24Z</time></trkpt>
<trkpt lat="46.441479893401265" lon="6.214579129591584"><ele></ele><time>2013-7-29T3:51:27Z</time></trkpt>
<trkpt lat="46.44150319509208" lon="6.214599832892418"><ele></ele><time>2013-7-29T3:51:30Z</time></trkpt>
<trkpt lat="46.44160754978657" lon="6.214675102382898"><ele></ele><time>2013-7-29T3:51:33Z</time></trkpt>
<trkpt lat="46.44163252785802" lon="6.214694548398256"><ele></ele><time>2013-7-29T3:51:36Z</time></trkpt>
<trkpt lat="46.44165666773915" lon="6.214713742956519"><ele></ele><time>2013-7-29T3:51:39Z</time></trkpt>
<trkpt lat="46.44168198108673" lon="6.214732434600592"><ele></ele><time>2013-7-29T3:51:42Z</time></trkpt>
<trkpt lat="46.44170989282429" lon="6.21474995277822"><ele></ele><time>2013-7-29T3:51:45Z</time></trkpt>
<trkpt lat="46.44187635742128" lon="6.214850787073374"><ele></ele><time>2013-7-29T3:51:48Z</time></trkpt>
<trkpt lat="46.441904939711094" lon="6.214869311079383"><ele></ele><time>2013-7-29T3:51:51Z</time></trkpt>
<trkpt lat="46.44193251617253" lon="6.214888337999582"><ele></ele><time>2013-7-29T3:51:54Z</time></trkpt>
<trkpt lat="46.44195858389139" lon="6.214906945824623"><ele></ele><time>2013-7-29T3:51:57Z</time></trkpt>
<trkpt lat="46.4419842325151" lon="6.214923709630966"><ele></ele><time>2013-7-29T3:52:0Z</time></trkpt>
<trkpt lat="46.442095125094056" lon="6.21498984284699"><ele></ele><time>2013-7-29T3:52:3Z</time></trkpt>
<trkpt lat="46.44217433407903" lon="6.21504751034081"><ele></ele><time>2013-7-29T3:52:6Z</time></trkpt>
<trkpt lat="46.44220383837819" lon="6.215067207813263"><ele></ele><time>2013-7-29T3:52:9Z</time></trkpt>
<trkpt lat="46.44223309122026" lon="6.2150894198566675"><ele></ele><time>2013-7-29T3:52:12Z</time></trkpt>
<trkpt lat="46.442259242758155" lon="6.215110290795565"><ele></ele><time>2013-7-29T3:52:15Z</time></trkpt>
<trkpt lat="46.44228497520089" lon="6.215133173391223"><ele></ele><time>2013-7-29T3:52:18Z</time></trkpt>
<trkpt lat="46.442311545833945" lon="6.215157061815262"><ele></ele><time>2013-7-29T3:52:21Z</time></trkpt>
<trkpt lat="46.44241179339588" lon="6.21526250615716"><ele></ele><time>2013-7-29T3:52:24Z</time></trkpt>
<trkpt lat="46.4424364361912" lon="6.2152929324656725"><ele></ele><time>2013-7-29T3:52:27Z</time></trkpt>
<trkpt lat="46.44245822913945" lon="6.215326962992549"><ele></ele><time>2013-7-29T3:52:30Z</time></trkpt>
<trkpt lat="46.44247926771641" lon="6.215364262461662"><ele></ele><time>2013-7-29T3:52:33Z</time></trkpt>
<trkpt lat="46.44249728880823" lon="6.215399634093046"><ele></ele><time>2013-7-29T3:52:36Z</time></trkpt>
<trkpt lat="46.44258504733443" lon="6.2156628258526325"><ele></ele><time>2013-7-29T3:52:39Z</time></trkpt>
<trkpt lat="46.442594435065985" lon="6.215699957683682"><ele></ele><time>2013-7-29T3:52:42Z</time></trkpt>
<trkpt lat="46.44260365515947" lon="6.2157379277050495"><ele></ele><time>2013-7-29T3:52:45Z</time></trkpt>
<trkpt lat="46.442613964900374" lon="6.215773047879338"><ele></ele><time>2013-7-29T3:52:48Z</time></trkpt>
<trkpt lat="46.442622346803546" lon="6.215810598805547"><ele></ele><time>2013-7-29T3:52:51Z</time></trkpt>
<trkpt lat="46.44265201874077" lon="6.215921491384506"><ele></ele><time>2013-7-29T3:52:54Z</time></trkpt>
<trkpt lat="46.44266467541456" lon="6.215958204120398"><ele></ele><time>2013-7-29T3:52:57Z</time></trkpt>
<trkpt lat="46.442677080631256" lon="6.215989636257291"><ele></ele><time>2013-7-29T3:53:0Z</time></trkpt>
<trkpt lat="46.44268931820989" lon="6.216020900756121"><ele></ele><time>2013-7-29T3:53:3Z</time></trkpt>
<trkpt lat="46.442700466141105" lon="6.216050824150443"><ele></ele><time>2013-7-29T3:53:6Z</time></trkpt>
<trkpt lat="46.44271303899586" lon="6.216080915182829"><ele></ele><time>2013-7-29T3:53:9Z</time></trkpt>
<trkpt lat="46.44278143532574" lon="6.216191640123725"><ele></ele><time>2013-7-29T3:53:12Z</time></trkpt>
<trkpt lat="46.44279886968434" lon="6.216212343424559"><ele></ele><time>2013-7-29T3:53:15Z</time></trkpt>
<trkpt lat="46.44281596876681" lon="6.216233382001519"><ele></ele><time>2013-7-29T3:53:18Z</time></trkpt>
<trkpt lat="46.44283507950604" lon="6.216253750026226"><ele></ele><time>2013-7-29T3:53:21Z</time></trkpt>
<trkpt lat="46.44285511225462" lon="6.216273028403521"><ele></ele><time>2013-7-29T3:53:24Z</time></trkpt>
<trkpt lat="46.44287724047899" lon="6.216288702562451"><ele></ele><time>2013-7-29T3:53:27Z</time></trkpt>
<trkpt lat="46.44292107783258" lon="6.216313596814871"><ele></ele><time>2013-7-29T3:53:30Z</time></trkpt>
<trkpt lat="46.44305317662656" lon="6.2163835018873215"><ele></ele><time>2013-7-29T3:53:33Z</time></trkpt>
<trkpt lat="46.443086536601186" lon="6.216401774436235"><ele></ele><time>2013-7-29T3:53:36Z</time></trkpt>
<trkpt lat="46.44311687909067" lon="6.216421304270625"><ele></ele><time>2013-7-29T3:53:39Z</time></trkpt>
<trkpt lat="46.44314738921821" lon="6.216441253200173"><ele></ele><time>2013-7-29T3:53:42Z</time></trkpt>
<trkpt lat="46.443177815526724" lon="6.21645625680685"><ele></ele><time>2013-7-29T3:53:45Z</time></trkpt>
<trkpt lat="46.4433257561177" lon="6.216506129130721"><ele></ele><time>2013-7-29T3:53:48Z</time></trkpt>
<trkpt lat="46.44347235560417" lon="6.216555247083306"><ele></ele><time>2013-7-29T3:53:51Z</time></trkpt>
<trkpt lat="46.44350697286427" lon="6.216573100537062"><ele></ele><time>2013-7-29T3:53:54Z</time></trkpt>
<trkpt lat="46.44354502670467" lon="6.216591540724039"><ele></ele><time>2013-7-29T3:53:57Z</time></trkpt>
<trkpt lat="46.44357922486961" lon="6.216610483825207"><ele></ele><time>2013-7-29T3:54:0Z</time></trkpt>
<trkpt lat="46.44361216574907" lon="6.216630851849914"><ele></ele><time>2013-7-29T3:54:3Z</time></trkpt>
<trkpt lat="46.44378894008696" lon="6.216782312840223"><ele></ele><time>2013-7-29T3:54:6Z</time></trkpt>
<trkpt lat="46.4438144210726" lon="6.2168164271861315"><ele></ele><time>2013-7-29T3:54:9Z</time></trkpt>
<trkpt lat="46.44383587874472" lon="6.216855989769101"><ele></ele><time>2013-7-29T3:54:12Z</time></trkpt>
<trkpt lat="46.44385356456041" lon="6.216895971447229"><ele></ele><time>2013-7-29T3:54:15Z</time></trkpt>
<trkpt lat="46.44386756233871" lon="6.21693653985858"><ele></ele><time>2013-7-29T3:54:18Z</time></trkpt>
<trkpt lat="46.44388281740248" lon="6.216977275907993"><ele></ele><time>2013-7-29T3:54:21Z</time></trkpt>
<trkpt lat="46.443910393863916" lon="6.217061430215836"><ele></ele><time>2013-7-29T3:54:24Z</time></trkpt>
<trkpt lat="46.443960098549724" lon="6.217227727174759"><ele></ele><time>2013-7-29T3:54:27Z</time></trkpt>
<trkpt lat="46.44397032447159" lon="6.21726980432868"><ele></ele><time>2013-7-29T3:54:30Z</time></trkpt>
<trkpt lat="46.4439822267741" lon="6.217307690531015"><ele></ele><time>2013-7-29T3:54:33Z</time></trkpt>
<trkpt lat="46.443995302543044" lon="6.217343816533685"><ele></ele><time>2013-7-29T3:54:36Z</time></trkpt>
<trkpt lat="46.444028578698635" lon="6.217417577281594"><ele></ele><time>2013-7-29T3:54:39Z</time></trkpt>
<trkpt lat="46.44409337081015" lon="6.217513550072908"><ele></ele><time>2013-7-29T3:54:42Z</time></trkpt>
<trkpt lat="46.444119941443205" lon="6.217539114877582"><ele></ele><time>2013-7-29T3:54:45Z</time></trkpt>
<trkpt lat="46.444147769361734" lon="6.217561410740018"><ele></ele><time>2013-7-29T3:54:48Z</time></trkpt>
<trkpt lat="46.444173669442534" lon="6.217581359669566"><ele></ele><time>2013-7-29T3:54:51Z</time></trkpt>
<trkpt lat="46.44420091062784" lon="6.217594016343355"><ele></ele><time>2013-7-29T3:54:54Z</time></trkpt>
<trkpt lat="46.44432932138443" lon="6.217645648866892"><ele></ele><time>2013-7-29T3:54:57Z</time></trkpt>
<trkpt lat="46.444357903674245" lon="6.217651767656207"><ele></ele><time>2013-7-29T3:55:0Z</time></trkpt>
<trkpt lat="46.44438933581114" lon="6.217656964436173"><ele></ele><time>2013-7-29T3:55:3Z</time></trkpt>
<trkpt lat="46.444423869252205" lon="6.217664089053869"><ele></ele><time>2013-7-29T3:55:6Z</time></trkpt>
<trkpt lat="46.44445622339845" lon="6.217666435986757"><ele></ele><time>2013-7-29T3:55:9Z</time></trkpt>
<trkpt lat="46.44448857754469" lon="6.21767045930028"><ele></ele><time>2013-7-29T3:55:12Z</time></trkpt>
<trkpt lat="46.444551944732666" lon="6.217683870345354"><ele></ele><time>2013-7-29T3:55:15Z</time></trkpt>
<trkpt lat="46.444671554490924" lon="6.217717146500945"><ele></ele><time>2013-7-29T3:55:18Z</time></trkpt>
<trkpt lat="46.444701896980405" lon="6.217726366594434"><ele></ele><time>2013-7-29T3:55:21Z</time></trkpt>
<trkpt lat="46.444732742384076" lon="6.217734161764383"><ele></ele><time>2013-7-29T3:55:24Z</time></trkpt>
<trkpt lat="46.44476333633065" lon="6.217742208391428"><ele></ele><time>2013-7-29T3:55:27Z</time></trkpt>
<trkpt lat="46.444792337715626" lon="6.217752853408456"><ele></ele><time>2013-7-29T3:55:30Z</time></trkpt>
<trkpt lat="46.44490239210427" lon="6.217796104028821"><ele></ele><time>2013-7-29T3:55:33Z</time></trkpt>
<trkpt lat="46.444929633289576" lon="6.217809179797769"><ele></ele><time>2013-7-29T3:55:36Z</time></trkpt>
<trkpt lat="46.444959472864866" lon="6.217823596671224"><ele></ele><time>2013-7-29T3:55:39Z</time></trkpt>
<trkpt lat="46.444989731535316" lon="6.217837678268552"><ele></ele><time>2013-7-29T3:55:42Z</time></trkpt>
<trkpt lat="46.445019068196416" lon="6.21784882619977"><ele></ele><time>2013-7-29T3:55:45Z</time></trkpt>
<trkpt lat="46.44515812397003" lon="6.217938177287579"><ele></ele><time>2013-7-29T3:55:48Z</time></trkpt>
<trkpt lat="46.44518653862178" lon="6.217955444008112"><ele></ele><time>2013-7-29T3:55:51Z</time></trkpt>
<trkpt lat="46.44521621055901" lon="6.217977991327643"><ele></ele><time>2013-7-29T3:55:54Z</time></trkpt>
<trkpt lat="46.445245295763016" lon="6.218006573617458"><ele></ele><time>2013-7-29T3:55:57Z</time></trkpt>
<trkpt lat="46.44527387805283" lon="6.218039430677891"><ele></ele><time>2013-7-29T3:56:0Z</time></trkpt>
<trkpt lat="46.44529919140041" lon="6.218074802309275"><ele></ele><time>2013-7-29T3:56:3Z</time></trkpt>
<trkpt lat="46.44537353888154" lon="6.2182385846972466"><ele></ele><time>2013-7-29T3:56:6Z</time></trkpt>
<trkpt lat="46.445386530831456" lon="6.218281919136643"><ele></ele><time>2013-7-29T3:56:9Z</time></trkpt>
<trkpt lat="46.44539516419172" lon="6.218326175585389"><ele></ele><time>2013-7-29T3:56:12Z</time></trkpt>
<trkpt lat="46.445403546094894" lon="6.218374287709594"><ele></ele><time>2013-7-29T3:56:15Z</time></trkpt>
<trkpt lat="46.44541150890291" lon="6.218421813100576"><ele></ele><time>2013-7-29T3:56:18Z</time></trkpt>
<trkpt lat="46.445475379005075" lon="6.218676622956991"><ele></ele><time>2013-7-29T3:56:21Z</time></trkpt>
<trkpt lat="46.445493986830115" lon="6.218713754788041"><ele></ele><time>2013-7-29T3:56:24Z</time></trkpt>
<trkpt lat="46.44551318138838" lon="6.2187516409903765"><ele></ele><time>2013-7-29T3:56:27Z</time></trkpt>
<trkpt lat="46.44553430378437" lon="6.2187872640788555"><ele></ele><time>2013-7-29T3:56:30Z</time></trkpt>
<trkpt lat="46.445560455322266" lon="6.218820624053478"><ele></ele><time>2013-7-29T3:56:33Z</time></trkpt>
<trkpt lat="46.44566774368286" lon="6.218943083658814"><ele></ele><time>2013-7-29T3:56:36Z</time></trkpt>
<trkpt lat="46.4456932246685" lon="6.218971833586693"><ele></ele><time>2013-7-29T3:56:39Z</time></trkpt>
<trkpt lat="46.44572247751057" lon="6.218997733667493"><ele></ele><time>2013-7-29T3:56:42Z</time></trkpt>
<trkpt lat="46.445752987638116" lon="6.219022544100881"><ele></ele><time>2013-7-29T3:56:45Z</time></trkpt>
<trkpt lat="46.4458713401109" lon="6.219117762520909"><ele></ele><time>2013-7-29T3:56:48Z</time></trkpt>
<trkpt lat="46.445933198556304" lon="6.219160007312894"><ele></ele><time>2013-7-29T3:56:51Z</time></trkpt>
<trkpt lat="46.44596320576966" lon="6.219178279861808"><ele></ele><time>2013-7-29T3:56:54Z</time></trkpt>
<trkpt lat="46.44599413499236" lon="6.219192110002041"><ele></ele><time>2013-7-29T3:56:57Z</time></trkpt>
<trkpt lat="46.44602204672992" lon="6.219209460541606"><ele></ele><time>2013-7-29T3:57:0Z</time></trkpt>
<trkpt lat="46.44604937173426" lon="6.2192269787192345"><ele></ele><time>2013-7-29T3:57:3Z</time></trkpt>
<trkpt lat="46.4462875854224" lon="6.219316329807043"><ele></ele><time>2013-7-29T3:57:6Z</time></trkpt>
<trkpt lat="46.44632278941572" lon="6.219322280958295"><ele></ele><time>2013-7-29T3:57:9Z</time></trkpt>
<trkpt lat="46.44636243581772" lon="6.219324041157961"><ele></ele><time>2013-7-29T3:57:12Z</time></trkpt>
<trkpt lat="46.446398980915546" lon="6.219324208796024"><ele></ele><time>2013-7-29T3:57:15Z</time></trkpt>
<trkpt lat="46.44643695093691" lon="6.219322616234422"><ele></ele><time>2013-7-29T3:57:18Z</time></trkpt>
<trkpt lat="46.446511298418045" lon="6.219318676739931"><ele></ele><time>2013-7-29T3:57:21Z</time></trkpt>
<trkpt lat="46.44673492759466" lon="6.219267044216394"><ele></ele><time>2013-7-29T3:57:24Z</time></trkpt>
<trkpt lat="46.44676761701703" lon="6.219259584322572"><ele></ele><time>2013-7-29T3:57:27Z</time></trkpt>
<trkpt lat="46.44679997116327" lon="6.219247933477163"><ele></ele><time>2013-7-29T3:57:30Z</time></trkpt>
<trkpt lat="46.446830397471786" lon="6.2192372884601355"><ele></ele><time>2013-7-29T3:57:33Z</time></trkpt>
<trkpt lat="46.446865014731884" lon="6.219224464148283"><ele></ele><time>2013-7-29T3:57:36Z</time></trkpt>
<trkpt lat="46.446938356384635" lon="6.219189008697867"><ele></ele><time>2013-7-29T3:57:39Z</time></trkpt>
<trkpt lat="46.4470402803272" lon="6.219116086140275"><ele></ele><time>2013-7-29T3:57:42Z</time></trkpt>
<trkpt lat="46.447076573967934" lon="6.219089096412063"><ele></ele><time>2013-7-29T3:57:45Z</time></trkpt>
<trkpt lat="46.44711144268513" lon="6.219059759750962"><ele></ele><time>2013-7-29T3:57:48Z</time></trkpt>
<trkpt lat="46.44713843241334" lon="6.219029501080513"><ele></ele><time>2013-7-29T3:57:51Z</time></trkpt>
<trkpt lat="46.44717112183571" lon="6.219001589342952"><ele></ele><time>2013-7-29T3:57:54Z</time></trkpt>
<trkpt lat="46.447339514270425" lon="6.218849960714579"><ele></ele><time>2013-7-29T3:57:57Z</time></trkpt>
<trkpt lat="46.44736843183637" lon="6.2188176065683365"><ele></ele><time>2013-7-29T3:58:0Z</time></trkpt>
<trkpt lat="46.44740195944905" lon="6.218788605183363"><ele></ele><time>2013-7-29T3:58:3Z</time></trkpt>
<trkpt lat="46.447436828166246" lon="6.218761531636119"><ele></ele><time>2013-7-29T3:58:6Z</time></trkpt>
<trkpt lat="46.44747069105506" lon="6.218733619898558"><ele></ele><time>2013-7-29T3:58:9Z</time></trkpt>
<trkpt lat="46.44753514789045" lon="6.2186777126044035"><ele></ele><time>2013-7-29T3:58:12Z</time></trkpt>
<trkpt lat="46.44766909070313" lon="6.2185584381222725"><ele></ele><time>2013-7-29T3:58:15Z</time></trkpt>
<trkpt lat="46.447698175907135" lon="6.218522898852825"><ele></ele><time>2013-7-29T3:58:18Z</time></trkpt>
<trkpt lat="46.447729440405965" lon="6.218489371240139"><ele></ele><time>2013-7-29T3:58:21Z</time></trkpt>
<trkpt lat="46.44775936380029" lon="6.218455256894231"><ele></ele><time>2013-7-29T3:58:24Z</time></trkpt>
<trkpt lat="46.44779305905104" lon="6.218424327671528"><ele></ele><time>2013-7-29T3:58:27Z</time></trkpt>
<trkpt lat="46.44789037294686" lon="6.218327013775706"><ele></ele><time>2013-7-29T3:58:30Z</time></trkpt>
<trkpt lat="46.448058849200606" lon="6.218180833384395"><ele></ele><time>2013-7-29T3:58:33Z</time></trkpt>
<trkpt lat="46.448098830878735" lon="6.218149904161692"><ele></ele><time>2013-7-29T3:58:36Z</time></trkpt>
<trkpt lat="46.44813378341496" lon="6.218116460368037"><ele></ele><time>2013-7-29T3:58:39Z</time></trkpt>
<trkpt lat="46.448172591626644" lon="6.21808972209692"><ele></ele><time>2013-7-29T3:58:42Z</time></trkpt>
<trkpt lat="46.44820846617222" lon="6.218064157292247"><ele></ele><time>2013-7-29T3:58:45Z</time></trkpt>
<trkpt lat="46.44824367016554" lon="6.218037670478225"><ele></ele><time>2013-7-29T3:58:48Z</time></trkpt>
<trkpt lat="46.448280131444335" lon="6.2180159613490105"><ele></ele><time>2013-7-29T3:58:51Z</time></trkpt>
<trkpt lat="46.44831717945635" lon="6.217995006591082"><ele></ele><time>2013-7-29T3:58:54Z</time></trkpt>
<trkpt lat="46.44843368791044" lon="6.217945218086243"><ele></ele><time>2013-7-29T3:58:57Z</time></trkpt>
<trkpt lat="46.44847442395985" lon="6.21793432161212"><ele></ele><time>2013-7-29T3:59:0Z</time></trkpt>
<trkpt lat="46.44851742312312" lon="6.217919988557696"><ele></ele><time>2013-7-29T3:59:3Z</time></trkpt>
<trkpt lat="46.448561595752835" lon="6.217907331883907"><ele></ele><time>2013-7-29T3:59:6Z</time></trkpt>
<trkpt lat="46.44860425963998" lon="6.217897022143006"><ele></ele><time>2013-7-29T3:59:9Z</time></trkpt>
<trkpt lat="46.448802407830954" lon="6.21788939461112"><ele></ele><time>2013-7-29T3:59:12Z</time></trkpt>
<trkpt lat="46.44883652217686" lon="6.217896016314626"><ele></ele><time>2013-7-29T3:59:15Z</time></trkpt>
<trkpt lat="46.44887398928404" lon="6.21790012344718"><ele></ele><time>2013-7-29T3:59:18Z</time></trkpt>
<trkpt lat="46.44891472533345" lon="6.2179075833410025"><ele></ele><time>2013-7-29T3:59:21Z</time></trkpt>
<trkpt lat="46.448958311229944" lon="6.2179116904735565"><ele></ele><time>2013-7-29T3:59:24Z</time></trkpt>
<trkpt lat="46.44899955019355" lon="6.217913534492254"><ele></ele><time>2013-7-29T3:59:27Z</time></trkpt>
<trkpt lat="46.44904003478587" lon="6.217917054891586"><ele></ele><time>2013-7-29T3:59:30Z</time></trkpt>
<trkpt lat="46.449197782203555" lon="6.217961311340332"><ele></ele><time>2013-7-29T3:59:33Z</time></trkpt>
<trkpt lat="46.44924094900489" lon="6.217981763184071"><ele></ele><time>2013-7-29T3:59:36Z</time></trkpt>
<trkpt lat="46.44928243942559" lon="6.218001963570714"><ele></ele><time>2013-7-29T3:59:39Z</time></trkpt>
<trkpt lat="46.44932392984629" lon="6.2180183082818985"><ele></ele><time>2013-7-29T3:59:42Z</time></trkpt>
<trkpt lat="46.44952056929469" lon="6.218103216961026"><ele></ele><time>2013-7-29T3:59:45Z</time></trkpt>
<trkpt lat="46.44956197589636" lon="6.218124842271209"><ele></ele><time>2013-7-29T3:59:48Z</time></trkpt>
<trkpt lat="46.4495996106416" lon="6.218148311600089"><ele></ele><time>2013-7-29T3:59:51Z</time></trkpt>
<trkpt lat="46.44963716156781" lon="6.218172954395413"><ele></ele><time>2013-7-29T3:59:54Z</time></trkpt>
<trkpt lat="46.44967638887465" lon="6.218198016285896"><ele></ele><time>2013-7-29T3:59:57Z</time></trkpt>
<trkpt lat="46.44979423843324" lon="6.21826708316803"><ele></ele><time>2013-7-29T4:0:0Z</time></trkpt>
<trkpt lat="46.449836902320385" lon="6.218292731791735"><ele></ele><time>2013-7-29T4:0:3Z</time></trkpt>
<trkpt lat="46.44991862587631" lon="6.218335060402751"><ele></ele><time>2013-7-29T4:0:6Z</time></trkpt>
<trkpt lat="46.449957098811865" lon="6.218354841694236"><ele></ele><time>2013-7-29T4:0:9Z</time></trkpt>
<trkpt lat="46.44999649375677" lon="6.218374539166689"><ele></ele><time>2013-7-29T4:0:12Z</time></trkpt>
<trkpt lat="46.45003890618682" lon="6.218393482267857"><ele></ele><time>2013-7-29T4:0:15Z</time></trkpt>
<trkpt lat="46.45007964223623" lon="6.218412006273866"><ele></ele><time>2013-7-29T4:0:18Z</time></trkpt>
<trkpt lat="46.4501572586596" lon="6.218461291864514"><ele></ele><time>2013-7-29T4:0:21Z</time></trkpt>
<trkpt lat="46.45028323866427" lon="6.218515019863844"><ele></ele><time>2013-7-29T4:0:24Z</time></trkpt>
<trkpt lat="46.45032439380884" lon="6.21853094547987"><ele></ele><time>2013-7-29T4:0:27Z</time></trkpt>
<trkpt lat="46.45036747679114" lon="6.218549972400069"><ele></ele><time>2013-7-29T4:0:30Z</time></trkpt>
<trkpt lat="46.45040947012603" lon="6.218566233292222"><ele></ele><time>2013-7-29T4:0:33Z</time></trkpt>
<trkpt lat="46.45045196637511" lon="6.21858324855566"><ele></ele><time>2013-7-29T4:0:36Z</time></trkpt>
<trkpt lat="46.4504905231297" lon="6.2186170276254416"><ele></ele><time>2013-7-29T4:0:39Z</time></trkpt>
<trkpt lat="46.450534109026194" lon="6.218712916597724"><ele></ele><time>2013-7-29T4:0:42Z</time></trkpt>
<trkpt lat="46.45053536631167" lon="6.218747617676854"><ele></ele><time>2013-7-29T4:0:45Z</time></trkpt>
<trkpt lat="46.450532684102654" lon="6.218767734244466"><ele></ele><time>2013-7-29T4:0:48Z</time></trkpt>
<trkpt lat="46.450522458180785" lon="6.218795645982027"><ele></ele><time>2013-7-29T4:0:51Z</time></trkpt>
<trkpt lat="46.45040150731802" lon="6.218930762261152"><ele></ele><time>2013-7-29T4:0:54Z</time></trkpt>
<trkpt lat="46.45026681013405" lon="6.219030423089862"><ele></ele><time>2013-7-29T4:0:57Z</time></trkpt>
<trkpt lat="46.45021769218147" lon="6.2190590891987085"><ele></ele><time>2013-7-29T4:1:0Z</time></trkpt>
<trkpt lat="46.45016790367663" lon="6.21907920576632"><ele></ele><time>2013-7-29T4:1:3Z</time></trkpt>
<trkpt lat="46.45011560060084" lon="6.219102004542947"><ele></ele><time>2013-7-29T4:1:6Z</time></trkpt>
<trkpt lat="46.45006522536278" lon="6.219121785834432"><ele></ele><time>2013-7-29T4:1:9Z</time></trkpt>
<trkpt lat="46.449736235663295" lon="6.219184985384345"><ele></ele><time>2013-7-29T4:1:12Z</time></trkpt>
<trkpt lat="46.44956558011472" lon="6.2191839795559645"><ele></ele><time>2013-7-29T4:1:15Z</time></trkpt>
<trkpt lat="46.449366342276335" lon="6.219169646501541"><ele></ele><time>2013-7-29T4:1:18Z</time></trkpt>
<trkpt lat="46.449297945946455" lon="6.21916713193059"><ele></ele><time>2013-7-29T4:1:21Z</time></trkpt>
<trkpt lat="46.449227537959814" lon="6.219161935150623"><ele></ele><time>2013-7-29T4:1:24Z</time></trkpt>
<trkpt lat="46.44915939308703" lon="6.219158414751291"><ele></ele><time>2013-7-29T4:1:27Z</time></trkpt>
<trkpt lat="46.44908906891942" lon="6.219160677865148"><ele></ele><time>2013-7-29T4:1:30Z</time></trkpt>
<trkpt lat="46.448875330388546" lon="6.219183057546616"><ele></ele><time>2013-7-29T4:1:33Z</time></trkpt>
<trkpt lat="46.44865354523063" lon="6.219266206026077"><ele></ele><time>2013-7-29T4:1:36Z</time></trkpt>
<trkpt lat="46.448581628501415" lon="6.219308450818062"><ele></ele><time>2013-7-29T4:1:39Z</time></trkpt>
<trkpt lat="46.44850820302963" lon="6.2193600833415985"><ele></ele><time>2013-7-29T4:1:42Z</time></trkpt>
<trkpt lat="46.448438465595245" lon="6.219419930130243"><ele></ele><time>2013-7-29T4:1:45Z</time></trkpt>
<trkpt lat="46.44837182946503" lon="6.219488577917218"><ele></ele><time>2013-7-29T4:1:48Z</time></trkpt>
<trkpt lat="46.44830980338156" lon="6.219567786902189"><ele></ele><time>2013-7-29T4:1:51Z</time></trkpt>
<trkpt lat="46.44824467599392" lon="6.219659820199013"><ele></ele><time>2013-7-29T4:1:54Z</time></trkpt>
<trkpt lat="46.44818248227239" lon="6.219750680029392"><ele></ele><time>2013-7-29T4:1:57Z</time></trkpt>
<trkpt lat="46.44812104292214" lon="6.219846149906516"><ele></ele><time>2013-7-29T4:2:0Z</time></trkpt>
<trkpt lat="46.44806161522865" lon="6.219945391640067"><ele></ele><time>2013-7-29T4:2:3Z</time></trkpt>
<trkpt lat="46.448002103716135" lon="6.220046393573284"><ele></ele><time>2013-7-29T4:2:6Z</time></trkpt>
<trkpt lat="46.447939574718475" lon="6.220146641135216"><ele></ele><time>2013-7-29T4:2:9Z</time></trkpt>
<trkpt lat="46.44787495024502" lon="6.220252085477114"><ele></ele><time>2013-7-29T4:2:12Z</time></trkpt>
<trkpt lat="46.44780931994319" lon="6.2203617207705975"><ele></ele><time>2013-7-29T4:2:15Z</time></trkpt>
<trkpt lat="46.44773765467107" lon="6.220472864806652"><ele></ele><time>2013-7-29T4:2:18Z</time></trkpt>
<trkpt lat="46.44767194055021" lon="6.220581075176597"><ele></ele><time>2013-7-29T4:2:21Z</time></trkpt>
<trkpt lat="46.44760614261031" lon="6.220693476498127"><ele></ele><time>2013-7-29T4:2:24Z</time></trkpt>
<trkpt lat="46.44746691919863" lon="6.220917776226997"><ele></ele><time>2013-7-29T4:2:27Z</time></trkpt>
<trkpt lat="46.4473994448781" lon="6.221034284681082"><ele></ele><time>2013-7-29T4:2:30Z</time></trkpt>
<trkpt lat="46.4473338983953" lon="6.221156325191259"><ele></ele><time>2013-7-29T4:2:33Z</time></trkpt>
<trkpt lat="46.447278913110495" lon="6.221298733726144"><ele></ele><time>2013-7-29T4:2:36Z</time></trkpt>
<trkpt lat="46.447235913947225" lon="6.221443237736821"><ele></ele><time>2013-7-29T4:2:39Z</time></trkpt>
<trkpt lat="46.447205571457744" lon="6.221593273803592"><ele></ele><time>2013-7-29T4:2:42Z</time></trkpt>
<trkpt lat="46.44718101248145" lon="6.221747919917107"><ele></ele><time>2013-7-29T4:2:45Z</time></trkpt>
<trkpt lat="46.44717053510249" lon="6.221906924620271"><ele></ele><time>2013-7-29T4:2:48Z</time></trkpt>
<trkpt lat="46.44717330113053" lon="6.222068779170513"><ele></ele><time>2013-7-29T4:2:51Z</time></trkpt>
<trkpt lat="46.44720104523003" lon="6.222385782748461"><ele></ele><time>2013-7-29T4:2:54Z</time></trkpt>
<trkpt lat="46.44723474048078" lon="6.222550151869655"><ele></ele><time>2013-7-29T4:2:57Z</time></trkpt>
<trkpt lat="46.44727857783437" lon="6.222703205421567"><ele></ele><time>2013-7-29T4:3:0Z</time></trkpt>
<trkpt lat="46.44732425920665" lon="6.222853409126401"><ele></ele><time>2013-7-29T4:3:3Z</time></trkpt>
<trkpt lat="46.44737337715924" lon="6.222998583689332"><ele></ele><time>2013-7-29T4:3:6Z</time></trkpt>
<trkpt lat="46.44742174074054" lon="6.2231536488980055"><ele></ele><time>2013-7-29T4:3:9Z</time></trkpt>
<trkpt lat="46.44746909849346" lon="6.223308043554425"><ele></ele><time>2013-7-29T4:3:12Z</time></trkpt>
<trkpt lat="46.447518886998296" lon="6.223462102934718"><ele></ele><time>2013-7-29T4:3:15Z</time></trkpt>
<trkpt lat="46.44756741821766" lon="6.223616078495979"><ele></ele><time>2013-7-29T4:3:18Z</time></trkpt>
<trkpt lat="46.44761779345572" lon="6.223776675760746"><ele></ele><time>2013-7-29T4:3:21Z</time></trkpt>
<trkpt lat="46.44766322337091" lon="6.223927717655897"><ele></ele><time>2013-7-29T4:3:24Z</time></trkpt>
<trkpt lat="46.447758609429" lon="6.224230555817485"><ele></ele><time>2013-7-29T4:3:27Z</time></trkpt>
<trkpt lat="46.44780739210546" lon="6.2243841122835875"><ele></ele><time>2013-7-29T4:3:30Z</time></trkpt>
<trkpt lat="46.4478553365916" lon="6.224538339301944"><ele></ele><time>2013-7-29T4:3:33Z</time></trkpt>
<trkpt lat="46.447903448715806" lon="6.2246933206915855"><ele></ele><time>2013-7-29T4:3:36Z</time></trkpt>
<trkpt lat="46.447954243049026" lon="6.224856600165367"><ele></ele><time>2013-7-29T4:3:39Z</time></trkpt>
<trkpt lat="46.44800235517323" lon="6.225012922659516"><ele></ele><time>2013-7-29T4:3:42Z</time></trkpt>
<trkpt lat="46.44804887473583" lon="6.225167065858841"><ele></ele><time>2013-7-29T4:3:45Z</time></trkpt>
<trkpt lat="46.4480937179178" lon="6.225331351161003"><ele></ele><time>2013-7-29T4:3:48Z</time></trkpt>
<trkpt lat="46.44812531769276" lon="6.225497480481863"><ele></ele><time>2013-7-29T4:3:51Z</time></trkpt>
<trkpt lat="46.44814409315586" lon="6.225668555125594"><ele></ele><time>2013-7-29T4:3:54Z</time></trkpt>
<trkpt lat="46.44814585335553" lon="6.225844323635101"><ele></ele><time>2013-7-29T4:3:57Z</time></trkpt>
<trkpt lat="46.448130095377564" lon="6.226016655564308"><ele></ele><time>2013-7-29T4:4:0Z</time></trkpt>
<trkpt lat="46.448093969374895" lon="6.226200135424733"><ele></ele><time>2013-7-29T4:4:3Z</time></trkpt>
<trkpt lat="46.44804158248007" lon="6.226368360221386"><ele></ele><time>2013-7-29T4:4:6Z</time></trkpt>
<trkpt lat="46.44797092303634" lon="6.226523425430059"><ele></ele><time>2013-7-29T4:4:9Z</time></trkpt>
<trkpt lat="46.447883332148194" lon="6.226663906127214"><ele></ele><time>2013-7-29T4:4:12Z</time></trkpt>
<trkpt lat="46.44778057001531" lon="6.226783515885472"><ele></ele><time>2013-7-29T4:4:15Z</time></trkpt>
<trkpt lat="46.447662468999624" lon="6.22688309289515"><ele></ele><time>2013-7-29T4:4:18Z</time></trkpt>
<trkpt lat="46.447538333013654" lon="6.226958949118853"><ele></ele><time>2013-7-29T4:4:21Z</time></trkpt>
<trkpt lat="46.44740279763937" lon="6.22700965963304"><ele></ele><time>2013-7-29T4:4:24Z</time></trkpt>
<trkpt lat="46.447254940867424" lon="6.227040588855743"><ele></ele><time>2013-7-29T4:4:27Z</time></trkpt>
<trkpt lat="46.44704430364072" lon="6.227071601897478"><ele></ele><time>2013-7-29T4:4:30Z</time></trkpt>
<trkpt lat="46.44690432585776" lon="6.227090712636709"><ele></ele><time>2013-7-29T4:4:33Z</time></trkpt>
<trkpt lat="46.44676451571286" lon="6.227118875831366"><ele></ele><time>2013-7-29T4:4:36Z</time></trkpt>
<trkpt lat="46.44662830978632" lon="6.227163886651397"><ele></ele><time>2013-7-29T4:4:39Z</time></trkpt>
<trkpt lat="46.44649486988783" lon="6.2272287625819445"><ele></ele><time>2013-7-29T4:4:42Z</time></trkpt>
<trkpt lat="46.44636235199869" lon="6.227314090356231"><ele></ele><time>2013-7-29T4:4:45Z</time></trkpt>
<trkpt lat="46.44623729400337" lon="6.227406961843371"><ele></ele><time>2013-7-29T4:4:48Z</time></trkpt>
<trkpt lat="46.44611181691289" lon="6.227505784481764"><ele></ele><time>2013-7-29T4:4:51Z</time></trkpt>
<trkpt lat="46.44598374143243" lon="6.227605361491442"><ele></ele><time>2013-7-29T4:4:54Z</time></trkpt>
<trkpt lat="46.44585222937167" lon="6.2277058605104685"><ele></ele><time>2013-7-29T4:4:57Z</time></trkpt>
<trkpt lat="46.44572205841541" lon="6.2278051022440195"><ele></ele><time>2013-7-29T4:5:0Z</time></trkpt>
<trkpt lat="46.445591719821095" lon="6.227906858548522"><ele></ele><time>2013-7-29T4:5:3Z</time></trkpt>
<trkpt lat="46.44545232877135" lon="6.228014230728149"><ele></ele><time>2013-7-29T4:5:6Z</time></trkpt>
<trkpt lat="46.445319056510925" lon="6.228119758889079"><ele></ele><time>2013-7-29T4:5:9Z</time></trkpt>
<trkpt lat="46.44518528133631" lon="6.228225622326136"><ele></ele><time>2013-7-29T4:5:12Z</time></trkpt>
<trkpt lat="46.44504723139107" lon="6.228332491591573"><ele></ele><time>2013-7-29T4:5:15Z</time></trkpt>
<trkpt lat="46.444911025464535" lon="6.228441456332803"><ele></ele><time>2013-7-29T4:5:18Z</time></trkpt>
<trkpt lat="46.444775238633156" lon="6.228547487407923"><ele></ele><time>2013-7-29T4:5:21Z</time></trkpt>
<trkpt lat="46.44463995471597" lon="6.228657374158502"><ele></ele><time>2013-7-29T4:5:24Z</time></trkpt>
<trkpt lat="46.44450240768492" lon="6.228768099099398"><ele></ele><time>2013-7-29T4:5:27Z</time></trkpt>
<trkpt lat="46.444354550912976" lon="6.228881003335118"><ele></ele><time>2013-7-29T4:5:30Z</time></trkpt>
<trkpt lat="46.44421775825322" lon="6.228989129886031"><ele></ele><time>2013-7-29T4:5:33Z</time></trkpt>
<trkpt lat="46.44408834166825" lon="6.229100609198213"><ele></ele><time>2013-7-29T4:5:36Z</time></trkpt>
<trkpt lat="46.44395750015974" lon="6.229213932529092"><ele></ele><time>2013-7-29T4:5:39Z</time></trkpt>
<trkpt lat="46.44382565282285" lon="6.229327172040939"><ele></ele><time>2013-7-29T4:5:42Z</time></trkpt>
<trkpt lat="46.44368634559214" lon="6.229439238086343"><ele></ele><time>2013-7-29T4:5:45Z</time></trkpt>
<trkpt lat="46.44355106167495" lon="6.229531606659293"><ele></ele><time>2013-7-29T4:5:48Z</time></trkpt>
<trkpt lat="46.44340286962688" lon="6.229588519781828"><ele></ele><time>2013-7-29T4:5:51Z</time></trkpt>
<trkpt lat="46.44324755296111" lon="6.229601930826902"><ele></ele><time>2013-7-29T4:5:54Z</time></trkpt>
<trkpt lat="46.44309299066663" lon="6.229568822309375"><ele></ele><time>2013-7-29T4:5:57Z</time></trkpt>
<trkpt lat="46.442948235198855" lon="6.229485087096691"><ele></ele><time>2013-7-29T4:6:0Z</time></trkpt>
<trkpt lat="46.44281596876681" lon="6.2293636333197355"><ele></ele><time>2013-7-29T4:6:3Z</time></trkpt>
<trkpt lat="46.44269837066531" lon="6.229216698557138"><ele></ele><time>2013-7-29T4:6:6Z</time></trkpt>
<trkpt lat="46.442591836676" lon="6.229056352749467"><ele></ele><time>2013-7-29T4:6:9Z</time></trkpt>
<trkpt lat="46.44249904900789" lon="6.22887865640223"><ele></ele><time>2013-7-29T4:6:12Z</time></trkpt>
<trkpt lat="46.44241841509938" lon="6.228710683062673"><ele></ele><time>2013-7-29T4:6:15Z</time></trkpt>
<trkpt lat="46.44234163686633" lon="6.228545475751162"><ele></ele><time>2013-7-29T4:6:18Z</time></trkpt>
<trkpt lat="46.44227164797485" lon="6.228387476876378"><ele></ele><time>2013-7-29T4:6:21Z</time></trkpt>
<trkpt lat="46.44219252280891" lon="6.228216905146837"><ele></ele><time>2013-7-29T4:6:24Z</time></trkpt>
<trkpt lat="46.44211834296584" lon="6.228054463863373"><ele></ele><time>2013-7-29T4:6:27Z</time></trkpt>
<trkpt lat="46.44204751588404" lon="6.2278916873037815"><ele></ele><time>2013-7-29T4:6:30Z</time></trkpt>
<trkpt lat="46.44197836518288" lon="6.2277149967849255"><ele></ele><time>2013-7-29T4:6:33Z</time></trkpt>
<trkpt lat="46.44191784784198" lon="6.227544005960226"><ele></ele><time>2013-7-29T4:6:36Z</time></trkpt>
<trkpt lat="46.441863952204585" lon="6.2273692432790995"><ele></ele><time>2013-7-29T4:6:39Z</time></trkpt>
<trkpt lat="46.44181475043297" lon="6.2271910440176725"><ele></ele><time>2013-7-29T4:6:42Z</time></trkpt>
<trkpt lat="46.44172104075551" lon="6.226836740970612"><ele></ele><time>2013-7-29T4:6:45Z</time></trkpt>
<trkpt lat="46.441678293049335" lon="6.226660888642073"><ele></ele><time>2013-7-29T4:6:48Z</time></trkpt>
<trkpt lat="46.44164007157087" lon="6.2264810130000114"><ele></ele><time>2013-7-29T4:6:51Z</time></trkpt>
<trkpt lat="46.441605454310775" lon="6.226300969719887"><ele></ele><time>2013-7-29T4:6:54Z</time></trkpt>
<trkpt lat="46.441569328308105" lon="6.226113718003035"><ele></ele><time>2013-7-29T4:6:57Z</time></trkpt>
<trkpt lat="46.44153479486704" lon="6.225936776027083"><ele></ele><time>2013-7-29T4:7:0Z</time></trkpt>
<trkpt lat="46.441441252827644" lon="6.225392036139965"><ele></ele><time>2013-7-29T4:7:3Z</time></trkpt>
<trkpt lat="46.4414192084223" lon="6.225203359499574"><ele></ele><time>2013-7-29T4:7:6Z</time></trkpt>
<trkpt lat="46.441401271149516" lon="6.2250040378421545"><ele></ele><time>2013-7-29T4:7:9Z</time></trkpt>
<trkpt lat="46.4413832500577" lon="6.224807063117623"><ele></ele><time>2013-7-29T4:7:12Z</time></trkpt>
<trkpt lat="46.44136715680361" lon="6.224608747288585"><ele></ele><time>2013-7-29T4:7:15Z</time></trkpt>
<trkpt lat="46.44135374575853" lon="6.224409257993102"><ele></ele><time>2013-7-29T4:7:18Z</time></trkpt>
<trkpt lat="46.441340167075396" lon="6.2242059130221605"><ele></ele><time>2013-7-29T4:7:21Z</time></trkpt>
<trkpt lat="46.4413280133158" lon="6.224004160612822"><ele></ele><time>2013-7-29T4:7:24Z</time></trkpt>
<trkpt lat="46.441315775737166" lon="6.223804000765085"><ele></ele><time>2013-7-29T4:7:27Z</time></trkpt>
<trkpt lat="46.44130035303533" lon="6.223605014383793"><ele></ele><time>2013-7-29T4:7:30Z</time></trkpt>
<trkpt lat="46.44128484651446" lon="6.223397897556424"><ele></ele><time>2013-7-29T4:7:33Z</time></trkpt>
<trkpt lat="46.44126556813717" lon="6.223202180117369"><ele></ele><time>2013-7-29T4:7:36Z</time></trkpt>
<trkpt lat="46.44123874604702" lon="6.223007971420884"><ele></ele><time>2013-7-29T4:7:39Z</time></trkpt>
<trkpt lat="46.441206727176905" lon="6.222816193476319"><ele></ele><time>2013-7-29T4:7:42Z</time></trkpt>
<trkpt lat="46.44109130837023" lon="6.222260808572173"><ele></ele><time>2013-7-29T4:7:45Z</time></trkpt>
<trkpt lat="46.44105174578726" lon="6.222079424187541"><ele></ele><time>2013-7-29T4:7:48Z</time></trkpt>
<trkpt lat="46.44100799225271" lon="6.221893094480038"><ele></ele><time>2013-7-29T4:7:51Z</time></trkpt>
<trkpt lat="46.44096381962299" lon="6.2217184994369745"><ele></ele><time>2013-7-29T4:7:54Z</time></trkpt>
<trkpt lat="46.44091629423201" lon="6.221548179164529"><ele></ele><time>2013-7-29T4:7:57Z</time></trkpt>
<trkpt lat="46.44085912965238" lon="6.221385067328811"><ele></ele><time>2013-7-29T4:8:0Z</time></trkpt>
<trkpt lat="46.44078955985606" lon="6.221231846138835"><ele></ele><time>2013-7-29T4:8:3Z</time></trkpt>
<trkpt lat="46.440709261223674" lon="6.2210906110703945"><ele></ele><time>2013-7-29T4:8:6Z</time></trkpt>
<trkpt lat="46.44061580300331" lon="6.220964966341853"><ele></ele><time>2013-7-29T4:8:9Z</time></trkpt>
<trkpt lat="46.44050641916692" lon="6.220853570848703"><ele></ele><time>2013-7-29T4:8:12Z</time></trkpt>
<trkpt lat="46.4402811974287" lon="6.220694566145539"><ele></ele><time>2013-7-29T4:8:15Z</time></trkpt>
<trkpt lat="46.44016217440367" lon="6.220639329403639"><ele></ele><time>2013-7-29T4:8:18Z</time></trkpt>
<trkpt lat="46.44004046916962" lon="6.220605634152889"><ele></ele><time>2013-7-29T4:8:21Z</time></trkpt>
<trkpt lat="46.43991993740201" lon="6.2205946538597345"><ele></ele><time>2013-7-29T4:8:24Z</time></trkpt>
<trkpt lat="46.43980007618666" lon="6.220599515363574"><ele></ele><time>2013-7-29T4:8:27Z</time></trkpt>
<trkpt lat="46.4396770298481" lon="6.220616782084107"><ele></ele><time>2013-7-29T4:8:30Z</time></trkpt>
<trkpt lat="46.43944635987282" lon="6.220658104866743"><ele></ele><time>2013-7-29T4:8:33Z</time></trkpt>
<trkpt lat="46.43933261744678" lon="6.22068777680397"><ele></ele><time>2013-7-29T4:8:36Z</time></trkpt>
<trkpt lat="46.439218539744616" lon="6.220716945827007"><ele></ele><time>2013-7-29T4:8:39Z</time></trkpt>
<trkpt lat="46.4391072280705" lon="6.22074443846941"><ele></ele><time>2013-7-29T4:8:42Z</time></trkpt>
<trkpt lat="46.43899742513895" lon="6.220769584178925"><ele></ele><time>2013-7-29T4:8:45Z</time></trkpt>
<trkpt lat="46.438560811802745" lon="6.220863042399287"><ele></ele><time>2013-7-29T4:8:48Z</time></trkpt>
<trkpt lat="46.43835838884115" lon="6.220916602760553"><ele></ele><time>2013-7-29T4:8:51Z</time></trkpt>
<trkpt lat="46.43815202638507" lon="6.2209616135805845"><ele></ele><time>2013-7-29T4:8:54Z</time></trkpt>
<trkpt lat="46.43805085681379" lon="6.220977287739515"><ele></ele><time>2013-7-29T4:8:57Z</time></trkpt>
<trkpt lat="46.437947088852525" lon="6.220989860594273"><ele></ele><time>2013-7-29T4:9:0Z</time></trkpt>
<trkpt lat="46.43784189596772" lon="6.220994051545858"><ele></ele><time>2013-7-29T4:9:3Z</time></trkpt>
<trkpt lat="46.43773829564452" lon="6.220981311053038"><ele></ele><time>2013-7-29T4:9:6Z</time></trkpt>
<trkpt lat="46.43763561733067" lon="6.2209513038396835"><ele></ele><time>2013-7-29T4:9:9Z</time></trkpt>
<trkpt lat="46.43753754906356" lon="6.220901599153876"><ele></ele><time>2013-7-29T4:9:12Z</time></trkpt>
<trkpt lat="46.43744442611933" lon="6.220835549756885"><ele></ele><time>2013-7-29T4:9:15Z</time></trkpt>
<trkpt lat="46.43735323101282" lon="6.220758436247706"><ele></ele><time>2013-7-29T4:9:18Z</time></trkpt>
<trkpt lat="46.43726580776274" lon="6.2206576857715845"><ele></ele><time>2013-7-29T4:9:21Z</time></trkpt>
<trkpt lat="46.437193639576435" lon="6.220541764050722"><ele></ele><time>2013-7-29T4:9:24Z</time></trkpt>
<trkpt lat="46.43712893128395" lon="6.220411425456405"><ele></ele><time>2013-7-29T4:9:27Z</time></trkpt>
<trkpt lat="46.43706715665758" lon="6.220275890082121"><ele></ele><time>2013-7-29T4:9:30Z</time></trkpt>
<trkpt lat="46.437004040926695" lon="6.220140689983964"><ele></ele><time>2013-7-29T4:9:33Z</time></trkpt>
<trkpt lat="46.43694025464356" lon="6.2200068309903145"><ele></ele><time>2013-7-29T4:9:36Z</time></trkpt>
<trkpt lat="46.436878899112344" lon="6.219874229282141"><ele></ele><time>2013-7-29T4:9:39Z</time></trkpt>
<trkpt lat="46.436814442276955" lon="6.219733664765954"><ele></ele><time>2013-7-29T4:9:42Z</time></trkpt>
<trkpt lat="46.436753924936056" lon="6.219599889591336"><ele></ele><time>2013-7-29T4:9:45Z</time></trkpt>
<trkpt lat="46.436692737042904" lon="6.219466282054782"><ele></ele><time>2013-7-29T4:9:48Z</time></trkpt>
<trkpt lat="46.436630291864276" lon="6.219331920146942"><ele></ele><time>2013-7-29T4:9:51Z</time></trkpt>
<trkpt lat="46.43645033240318" lon="6.218918692320585"><ele></ele><time>2013-7-29T4:9:54Z</time></trkpt>
<trkpt lat="46.43640825524926" lon="6.218767901882529"><ele></ele><time>2013-7-29T4:9:57Z</time></trkpt>
<trkpt lat="46.436381600797176" lon="6.218598922714591"><ele></ele><time>2013-7-29T4:10:0Z</time></trkpt>
<trkpt lat="46.43636575900018" lon="6.218433380126953"><ele></ele><time>2013-7-29T4:10:3Z</time></trkpt>
<trkpt lat="46.43636031076312" lon="6.218269094824791"><ele></ele><time>2013-7-29T4:10:6Z</time></trkpt>
<trkpt lat="46.43636324442923" lon="6.218105144798756"><ele></ele><time>2013-7-29T4:10:9Z</time></trkpt>
<trkpt lat="46.436363998800516" lon="6.217941027134657"><ele></ele><time>2013-7-29T4:10:12Z</time></trkpt>
<trkpt lat="46.43635679036379" lon="6.217776238918304"><ele></ele><time>2013-7-29T4:10:15Z</time></trkpt>
<trkpt lat="46.4363319799304" lon="6.217619581148028"><ele></ele><time>2013-7-29T4:10:18Z</time></trkpt>
<trkpt lat="46.436269618570805" lon="6.2174746580421925"><ele></ele><time>2013-7-29T4:10:21Z</time></trkpt>
<trkpt lat="46.43617792055011" lon="6.217379942536354"><ele></ele><time>2013-7-29T4:10:24Z</time></trkpt>
<trkpt lat="46.43607733771205" lon="6.21733576990664"><ele></ele><time>2013-7-29T4:10:27Z</time></trkpt>
<trkpt lat="46.435975916683674" lon="6.217323113232851"><ele></ele><time>2013-7-29T4:10:30Z</time></trkpt>
<trkpt lat="46.43587592057884" lon="6.217316072434187"><ele></ele><time>2013-7-29T4:10:33Z</time></trkpt>
<trkpt lat="46.43577944487333" lon="6.217306517064571"><ele></ele><time>2013-7-29T4:10:36Z</time></trkpt>
<trkpt lat="46.435686238110065" lon="6.217302326112986"><ele></ele><time>2013-7-29T4:10:39Z</time></trkpt>
<trkpt lat="46.435506949201226" lon="6.217309450730681"><ele></ele><time>2013-7-29T4:10:42Z</time></trkpt>
<trkpt lat="46.435364205390215" lon="6.217339793220162"><ele></ele><time>2013-7-29T4:10:45Z</time></trkpt>
<trkpt lat="46.435308549553156" lon="6.217391258105636"><ele></ele><time>2013-7-29T4:10:48Z</time></trkpt>
<trkpt lat="46.43506254069507" lon="6.217695605009794"><ele></ele><time>2013-7-29T4:10:51Z</time></trkpt>
<trkpt lat="46.43487679772079" lon="6.217719744890928"><ele></ele><time>2013-7-29T4:10:54Z</time></trkpt>
<trkpt lat="46.434738328680396" lon="6.217569373548031"><ele></ele><time>2013-7-29T4:10:57Z</time></trkpt>
<trkpt lat="46.43469901755452" lon="6.217517824843526"><ele></ele><time>2013-7-29T4:11:0Z</time></trkpt>
<trkpt lat="46.43462609499693" lon="6.217425120994449"><ele></ele><time>2013-7-29T4:11:3Z</time></trkpt>
<trkpt lat="46.43459717743099" lon="6.217364771291614"><ele></ele><time>2013-7-29T4:11:6Z</time></trkpt>
<trkpt lat="46.43452459014952" lon="6.217209119349718"><ele></ele><time>2013-7-29T4:11:9Z</time></trkpt>
<trkpt lat="46.43452065065503" lon="6.2172034196555614"><ele></ele><time>2013-7-29T4:11:12Z</time></trkpt>
<trkpt lat="46.43452106975019" lon="6.2172034196555614"><ele></ele><time>2013-7-29T4:11:15Z</time></trkpt>
<trkpt lat="46.43452106975019" lon="6.2172034196555614"><ele></ele><time>2013-7-29T4:11:18Z</time></trkpt>
<trkpt lat="46.43452106975019" lon="6.2172034196555614"><ele></ele><time>2013-7-29T4:11:21Z</time></trkpt>
<trkpt lat="46.43452014774084" lon="6.217201491817832"><ele></ele><time>2013-7-29T4:11:24Z</time></trkpt>
<trkpt lat="46.434523332864046" lon="6.217190930619836"><ele></ele><time>2013-7-29T4:11:27Z</time></trkpt>
<trkpt lat="46.43454319797456" lon="6.2170978076756"><ele></ele><time>2013-7-29T4:11:30Z</time></trkpt>
<trkpt lat="46.434533055871725" lon="6.216832939535379"><ele></ele><time>2013-7-29T4:11:33Z</time></trkpt>
<trkpt lat="46.43451863899827" lon="6.216754401102662"><ele></ele><time>2013-7-29T4:11:36Z</time></trkpt>
<trkpt lat="46.43444697372615" lon="6.216483497992158"><ele></ele><time>2013-7-29T4:11:39Z</time></trkpt>
<trkpt lat="46.43429727293551" lon="6.216000868007541"><ele></ele><time>2013-7-29T4:11:42Z</time></trkpt>
<trkpt lat="46.43423859961331" lon="6.215875307098031"><ele></ele><time>2013-7-29T4:11:45Z</time></trkpt>
<trkpt lat="46.434163162484765" lon="6.215759804472327"><ele></ele><time>2013-7-29T4:11:48Z</time></trkpt>
<trkpt lat="46.43408722244203" lon="6.215634243562818"><ele></ele><time>2013-7-29T4:11:51Z</time></trkpt>
<trkpt lat="46.43401052802801" lon="6.215490158647299"><ele></ele><time>2013-7-29T4:11:54Z</time></trkpt>
<trkpt lat="46.433940287679434" lon="6.215348839759827"><ele></ele><time>2013-7-29T4:11:57Z</time></trkpt>
<trkpt lat="46.43387264572084" lon="6.215207353234291"><ele></ele><time>2013-7-29T4:12:0Z</time></trkpt>
<trkpt lat="46.43380634486675" lon="6.215068465098739"><ele></ele><time>2013-7-29T4:12:3Z</time></trkpt>
<trkpt lat="46.433742390945554" lon="6.21493075042963"><ele></ele><time>2013-7-29T4:12:6Z</time></trkpt>
<trkpt lat="46.433679945766926" lon="6.214796639978886"><ele></ele><time>2013-7-29T4:12:9Z</time></trkpt>
<trkpt lat="46.433620350435376" lon="6.214667810127139"><ele></ele><time>2013-7-29T4:12:12Z</time></trkpt>
<trkpt lat="46.43356528133154" lon="6.214542416855693"><ele></ele><time>2013-7-29T4:12:15Z</time></trkpt>
<trkpt lat="46.43350778147578" lon="6.214417107403278"><ele></ele><time>2013-7-29T4:12:18Z</time></trkpt>
<trkpt lat="46.43339043483138" lon="6.214204877614975"><ele></ele><time>2013-7-29T4:12:21Z</time></trkpt>
<trkpt lat="46.43333469517529" lon="6.2141007743775845"><ele></ele><time>2013-7-29T4:12:24Z</time></trkpt>
<trkpt lat="46.433279290795326" lon="6.214002287015319"><ele></ele><time>2013-7-29T4:12:27Z</time></trkpt>
<trkpt lat="46.43322589807212" lon="6.213905643671751"><ele></ele><time>2013-7-29T4:12:30Z</time></trkpt>
<trkpt lat="46.433176109567285" lon="6.213813191279769"><ele></ele><time>2013-7-29T4:12:33Z</time></trkpt>
<trkpt lat="46.43312204629183" lon="6.213725935667753"><ele></ele><time>2013-7-29T4:12:36Z</time></trkpt>
<trkpt lat="46.43306756392121" lon="6.213647313416004"><ele></ele><time>2013-7-29T4:12:39Z</time></trkpt>
<trkpt lat="46.433013919740915" lon="6.213574726134539"><ele></ele><time>2013-7-29T4:12:42Z</time></trkpt>
<trkpt lat="46.43296421505511" lon="6.21350490488112"><ele></ele><time>2013-7-29T4:12:45Z</time></trkpt>
<trkpt lat="46.43291694112122" lon="6.2134351674467325"><ele></ele><time>2013-7-29T4:12:48Z</time></trkpt>
<trkpt lat="46.432869751006365" lon="6.21337004005909"><ele></ele><time>2013-7-29T4:12:51Z</time></trkpt>
<trkpt lat="46.43282247707248" lon="6.213308181613684"><ele></ele><time>2013-7-29T4:12:54Z</time></trkpt>
<trkpt lat="46.432776292786" lon="6.213246658444405"><ele></ele><time>2013-7-29T4:12:57Z</time></trkpt>
<trkpt lat="46.43253715708852" lon="6.212931331247091"><ele></ele><time>2013-7-29T4:13:0Z</time></trkpt>
<trkpt lat="46.432374715805054" lon="6.212747851386666"><ele></ele><time>2013-7-29T4:13:3Z</time></trkpt>
<trkpt lat="46.43206777051091" lon="6.212435457855463"><ele></ele><time>2013-7-29T4:13:6Z</time></trkpt>
<trkpt lat="46.43200071528554" lon="6.21237326413393"><ele></ele><time>2013-7-29T4:13:9Z</time></trkpt>
<trkpt lat="46.43155127763748" lon="6.211995407938957"><ele></ele><time>2013-7-29T4:13:12Z</time></trkpt>
<trkpt lat="46.431050626561046" lon="6.211623754352331"><ele></ele><time>2013-7-29T4:13:15Z</time></trkpt>
<trkpt lat="46.430967478081584" lon="6.211562901735306"><ele></ele><time>2013-7-29T4:13:18Z</time></trkpt>
<trkpt lat="46.43088273704052" lon="6.21150347404182"><ele></ele><time>2013-7-29T4:13:21Z</time></trkpt>
<trkpt lat="46.43079330213368" lon="6.211443627253175"><ele></ele><time>2013-7-29T4:13:24Z</time></trkpt>
<trkpt lat="46.43054109066725" lon="6.211268696933985"><ele></ele><time>2013-7-29T4:13:27Z</time></trkpt>
<trkpt lat="46.430205311626196" lon="6.211033333092928"><ele></ele><time>2013-7-29T4:13:30Z</time></trkpt>
<trkpt lat="46.42968471162021" lon="6.210734099149704"><ele></ele><time>2013-7-29T4:13:33Z</time></trkpt>
<trkpt lat="46.42959519289434" lon="6.210696883499622"><ele></ele><time>2013-7-29T4:13:36Z</time></trkpt>
<trkpt lat="46.4295004773885" lon="6.210663355886936"><ele></ele><time>2013-7-29T4:13:39Z</time></trkpt>
<trkpt lat="46.42941045574844" lon="6.210635611787438"><ele></ele><time>2013-7-29T4:13:42Z</time></trkpt>
<trkpt lat="46.429316410794854" lon="6.21061222627759"><ele></ele><time>2013-7-29T4:13:45Z</time></trkpt>
<trkpt lat="46.42922194674611" lon="6.210594959557056"><ele></ele><time>2013-7-29T4:13:48Z</time></trkpt>
<trkpt lat="46.42912622541189" lon="6.21058146469295"><ele></ele><time>2013-7-29T4:13:51Z</time></trkpt>
<trkpt lat="46.42854133620858" lon="6.210528993979096"><ele></ele><time>2013-7-29T4:13:54Z</time></trkpt>
<trkpt lat="46.42843974754214" lon="6.210510050877929"><ele></ele><time>2013-7-29T4:13:57Z</time></trkpt>
<trkpt lat="46.42834201455116" lon="6.210485156625509"><ele></ele><time>2013-7-29T4:14:0Z</time></trkpt>
<trkpt lat="46.42824453301728" lon="6.210452802479267"><ele></ele><time>2013-7-29T4:14:3Z</time></trkpt>
<trkpt lat="46.42814822494984" lon="6.21041533537209"><ele></ele><time>2013-7-29T4:14:6Z</time></trkpt>
<trkpt lat="46.42787438817322" lon="6.210266640409827"><ele></ele><time>2013-7-29T4:14:9Z</time></trkpt>
<trkpt lat="46.42735957168043" lon="6.209926921874285"><ele></ele><time>2013-7-29T4:14:12Z</time></trkpt>
<trkpt lat="46.427279356867075" lon="6.209876714274287"><ele></ele><time>2013-7-29T4:14:15Z</time></trkpt>
<trkpt lat="46.42679136246443" lon="6.209626849740744"><ele></ele><time>2013-7-29T4:14:18Z</time></trkpt>
<trkpt lat="46.426707711070776" lon="6.209596507251263"><ele></ele><time>2013-7-29T4:14:21Z</time></trkpt>
<trkpt lat="46.42662338912487" lon="6.209568763151765"><ele></ele><time>2013-7-29T4:14:24Z</time></trkpt>
<trkpt lat="46.42653747461736" lon="6.209540516138077"><ele></ele><time>2013-7-29T4:14:27Z</time></trkpt>
<trkpt lat="46.42645130865276" lon="6.209514951333404"><ele></ele><time>2013-7-29T4:14:30Z</time></trkpt>
<trkpt lat="46.4260124322027" lon="6.209397604689002"><ele></ele><time>2013-7-29T4:14:33Z</time></trkpt>
<trkpt lat="46.42548236064613" lon="6.209218902513385"><ele></ele><time>2013-7-29T4:14:36Z</time></trkpt>
<trkpt lat="46.425311202183366" lon="6.209155702963471"><ele></ele><time>2013-7-29T4:14:39Z</time></trkpt>
<trkpt lat="46.4252264611423" lon="6.209122929722071"><ele></ele><time>2013-7-29T4:14:42Z</time></trkpt>
<trkpt lat="46.42514180392027" lon="6.2090847082436085"><ele></ele><time>2013-7-29T4:14:45Z</time></trkpt>
<trkpt lat="46.42505739815533" lon="6.209045061841607"><ele></ele><time>2013-7-29T4:14:48Z</time></trkpt>
<trkpt lat="46.4249727409333" lon="6.209006085991859"><ele></ele><time>2013-7-29T4:14:51Z</time></trkpt>
<trkpt lat="46.42471575178206" lon="6.208887062966824"><ele></ele><time>2013-7-29T4:14:54Z</time></trkpt>
<trkpt lat="46.424124324694276" lon="6.208612387999892"><ele></ele><time>2013-7-29T4:14:57Z</time></trkpt>
<trkpt lat="46.42403908073902" lon="6.208572406321764"><ele></ele><time>2013-7-29T4:15:0Z</time></trkpt>
<trkpt lat="46.42387202940881" lon="6.2084947898983955"><ele></ele><time>2013-7-29T4:15:3Z</time></trkpt>
<trkpt lat="46.42378837801516" lon="6.208457155153155"><ele></ele><time>2013-7-29T4:15:6Z</time></trkpt>
<trkpt lat="46.4237017929554" lon="6.208418849855661"><ele></ele><time>2013-7-29T4:15:9Z</time></trkpt>
<trkpt lat="46.42360917292535" lon="6.208373587578535"><ele></ele><time>2013-7-29T4:15:12Z</time></trkpt>
<trkpt lat="46.423519905656576" lon="6.208320530131459"><ele></ele><time>2013-7-29T4:15:15Z</time></trkpt>
<trkpt lat="46.42342837527394" lon="6.208256995305419"><ele></ele><time>2013-7-29T4:15:18Z</time></trkpt>
<trkpt lat="46.42324942164123" lon="6.208098158240318"><ele></ele><time>2013-7-29T4:15:21Z</time></trkpt>
<trkpt lat="46.423164596781135" lon="6.208003526553512"><ele></ele><time>2013-7-29T4:15:24Z</time></trkpt>
<trkpt lat="46.42308228649199" lon="6.207895316183567"><ele></ele><time>2013-7-29T4:15:27Z</time></trkpt>
<trkpt lat="46.42299343831837" lon="6.207773610949516"><ele></ele><time>2013-7-29T4:15:30Z</time></trkpt>
<trkpt lat="46.422905176877975" lon="6.207658862695098"><ele></ele><time>2013-7-29T4:15:33Z</time></trkpt>
<trkpt lat="46.42280526459217" lon="6.207562889903784"><ele></ele><time>2013-7-29T4:15:36Z</time></trkpt>
<trkpt lat="46.422690097242594" lon="6.20750404894352"><ele></ele><time>2013-7-29T4:15:39Z</time></trkpt>
<trkpt lat="46.42256227321923" lon="6.207486530765891"><ele></ele><time>2013-7-29T4:15:42Z</time></trkpt>
<trkpt lat="46.42244157381356" lon="6.207524416968226"><ele></ele><time>2013-7-29T4:15:45Z</time></trkpt>
<trkpt lat="46.422324730083346" lon="6.207603877410293"><ele></ele><time>2013-7-29T4:15:48Z</time></trkpt>
<trkpt lat="46.422207886353135" lon="6.207698844373226"><ele></ele><time>2013-7-29T4:15:51Z</time></trkpt>
<trkpt lat="46.42209095880389" lon="6.207801941782236"><ele></ele><time>2013-7-29T4:15:54Z</time></trkpt>
<trkpt lat="46.421985598281026" lon="6.207890706136823"><ele></ele><time>2013-7-29T4:15:57Z</time></trkpt>
<trkpt lat="46.421854170039296" lon="6.207933537662029"><ele></ele><time>2013-7-29T4:16:0Z</time></trkpt>
<trkpt lat="46.42169357277453" lon="6.207908559590578"><ele></ele><time>2013-7-29T4:16:3Z</time></trkpt>
<trkpt lat="46.42154353670776" lon="6.207850305363536"><ele></ele><time>2013-7-29T4:16:6Z</time></trkpt>
<trkpt lat="46.421409426257014" lon="6.207751650363207"><ele></ele><time>2013-7-29T4:16:9Z</time></trkpt>
<trkpt lat="46.42128998413682" lon="6.2076265923678875"><ele></ele><time>2013-7-29T4:16:12Z</time></trkpt>
<trkpt lat="46.42118018120527" lon="6.207491727545857"><ele></ele><time>2013-7-29T4:16:15Z</time></trkpt>
<trkpt lat="46.42107758671045" lon="6.207364071160555"><ele></ele><time>2013-7-29T4:16:18Z</time></trkpt>
<trkpt lat="46.42097239382565" lon="6.207244880497456"><ele></ele><time>2013-7-29T4:16:21Z</time></trkpt>
<trkpt lat="46.42086242325604" lon="6.207156702876091"><ele></ele><time>2013-7-29T4:16:24Z</time></trkpt>
<trkpt lat="46.420754212886095" lon="6.207089899107814"><ele></ele><time>2013-7-29T4:16:27Z</time></trkpt>
<trkpt lat="46.42065857537091" lon="6.207030639052391"><ele></ele><time>2013-7-29T4:16:30Z</time></trkpt>
<trkpt lat="46.420570481568575" lon="6.2069798447191715"><ele></ele><time>2013-7-29T4:16:33Z</time></trkpt>
<trkpt lat="46.42047844827175" lon="6.20693382807076"><ele></ele><time>2013-7-29T4:16:36Z</time></trkpt>
<trkpt lat="46.42039085738361" lon="6.20689619332552"><ele></ele><time>2013-7-29T4:16:39Z</time></trkpt>
<trkpt lat="46.42030821181834" lon="6.206864677369595"><ele></ele><time>2013-7-29T4:16:42Z</time></trkpt>
<trkpt lat="46.42022481188178" lon="6.206854116171598"><ele></ele><time>2013-7-29T4:16:45Z</time></trkpt>
<trkpt lat="46.420149710029364" lon="6.206844560801983"><ele></ele><time>2013-7-29T4:16:48Z</time></trkpt>
<trkpt lat="46.41983136534691" lon="6.206869455054402"><ele></ele><time>2013-7-29T4:16:51Z</time></trkpt>
<trkpt lat="46.41974595375359" lon="6.206901557743549"><ele></ele><time>2013-7-29T4:16:54Z</time></trkpt>
<trkpt lat="46.419210601598024" lon="6.207649726420641"><ele></ele><time>2013-7-29T4:16:57Z</time></trkpt>
<trkpt lat="46.41912502236664" lon="6.207692641764879"><ele></ele><time>2013-7-29T4:17:0Z</time></trkpt>
<trkpt lat="46.41903835348785" lon="6.2077312823385"><ele></ele><time>2013-7-29T4:17:3Z</time></trkpt>
<trkpt lat="46.418976075947285" lon="6.207739999517798"><ele></ele><time>2013-7-29T4:17:6Z</time></trkpt>
<trkpt lat="46.418890161439776" lon="6.2077561765909195"><ele></ele><time>2013-7-29T4:17:9Z</time></trkpt>
<trkpt lat="46.41880290582776" lon="6.207773275673389"><ele></ele><time>2013-7-29T4:17:12Z</time></trkpt>
<trkpt lat="46.418735682964325" lon="6.207754584029317"><ele></ele><time>2013-7-29T4:17:15Z</time></trkpt>
<trkpt lat="46.41859226860106" lon="6.207690630108118"><ele></ele><time>2013-7-29T4:17:18Z</time></trkpt>
<trkpt lat="46.41845120117068" lon="6.207596333697438"><ele></ele><time>2013-7-29T4:17:21Z</time></trkpt>
<trkpt lat="46.41816169023514" lon="6.207231134176254"><ele></ele><time>2013-7-29T4:17:24Z</time></trkpt>
<trkpt lat="46.41796002164483" lon="6.207042541354895"><ele></ele><time>2013-7-29T4:17:27Z</time></trkpt>
<trkpt lat="46.41789489425719" lon="6.206976408138871"><ele></ele><time>2013-7-29T4:17:30Z</time></trkpt>
<trkpt lat="46.417756928130984" lon="6.206851936876774"><ele></ele><time>2013-7-29T4:17:33Z</time></trkpt>
<trkpt lat="46.417469093576074" lon="6.206605257466435"><ele></ele><time>2013-7-29T4:17:36Z</time></trkpt>
<trkpt lat="46.416951259598136" lon="6.206153221428394"><ele></ele><time>2013-7-29T4:17:39Z</time></trkpt>
<trkpt lat="46.41687573865056" lon="6.206085160374641"><ele></ele><time>2013-7-29T4:17:42Z</time></trkpt>
<trkpt lat="46.41679963096976" lon="6.206018356606364"><ele></ele><time>2013-7-29T4:17:45Z</time></trkpt>
<trkpt lat="46.41672318801284" lon="6.205950379371643"><ele></ele><time>2013-7-29T4:17:48Z</time></trkpt>
<trkpt lat="46.416646828874946" lon="6.20588474906981"><ele></ele><time>2013-7-29T4:17:51Z</time></trkpt>
<trkpt lat="46.41656988300383" lon="6.205819956958294"><ele></ele><time>2013-7-29T4:17:54Z</time></trkpt>
<trkpt lat="46.41633007675409" lon="6.205621724948287"><ele></ele><time>2013-7-29T4:17:57Z</time></trkpt>
<trkpt lat="46.416250532492995" lon="6.205557268112898"><ele></ele><time>2013-7-29T4:18:0Z</time></trkpt>
<trkpt lat="46.41616931185126" lon="6.205485770478845"><ele></ele><time>2013-7-29T4:18:3Z</time></trkpt>
<trkpt lat="46.41609010286629" lon="6.205407232046127"><ele></ele><time>2013-7-29T4:18:6Z</time></trkpt>
<trkpt lat="46.416010055691004" lon="6.205324502661824"><ele></ele><time>2013-7-29T4:18:9Z</time></trkpt>
<trkpt lat="46.41584032215178" lon="6.205170024186373"><ele></ele><time>2013-7-29T4:18:12Z</time></trkpt>
<trkpt lat="46.41565348953009" lon="6.205041026696563"><ele></ele><time>2013-7-29T4:18:15Z</time></trkpt>
<trkpt lat="46.41556237824261" lon="6.204992746934295"><ele></ele><time>2013-7-29T4:18:18Z</time></trkpt>
<trkpt lat="46.41547185368836" lon="6.2049448024481535"><ele></ele><time>2013-7-29T4:18:21Z</time></trkpt>
<trkpt lat="46.415382167324424" lon="6.204900545999408"><ele></ele><time>2013-7-29T4:18:24Z</time></trkpt>
<trkpt lat="46.41503406688571" lon="6.2047062534838915"><ele></ele><time>2013-7-29T4:18:27Z</time></trkpt>
<trkpt lat="46.41495066694915" lon="6.204682281240821"><ele></ele><time>2013-7-29T4:18:30Z</time></trkpt>
<trkpt lat="46.41470331698656" lon="6.204673899337649"><ele></ele><time>2013-7-29T4:18:33Z</time></trkpt>
<trkpt lat="46.41450642608106" lon="6.204633414745331"><ele></ele><time>2013-7-29T4:18:36Z</time></trkpt>
<trkpt lat="46.414391342550516" lon="6.204751767218113"><ele></ele><time>2013-7-29T4:18:39Z</time></trkpt>
<trkpt lat="46.41433962620795" lon="6.204835083335638"><ele></ele><time>2013-7-29T4:18:42Z</time></trkpt>
<trkpt lat="46.41428656876087" lon="6.204924685880542"><ele></ele><time>2013-7-29T4:18:45Z</time></trkpt>
<trkpt lat="46.41423032619059" lon="6.205012276768684"><ele></ele><time>2013-7-29T4:18:48Z</time></trkpt>
<trkpt lat="46.41416888684034" lon="6.205103639513254"><ele></ele><time>2013-7-29T4:18:51Z</time></trkpt>
<trkpt lat="46.414098059758544" lon="6.205201204866171"><ele></ele><time>2013-7-29T4:18:54Z</time></trkpt>
<trkpt lat="46.41402756795287" lon="6.205297512933612"><ele></ele><time>2013-7-29T4:18:57Z</time></trkpt>
<trkpt lat="46.41395456157625" lon="6.205391976982355"><ele></ele><time>2013-7-29T4:19:0Z</time></trkpt>
<trkpt lat="46.41387635841966" lon="6.205486441031098"><ele></ele><time>2013-7-29T4:19:3Z</time></trkpt>
<trkpt lat="46.41379589214921" lon="6.205581659451127"><ele></ele><time>2013-7-29T4:19:6Z</time></trkpt>
<trkpt lat="46.41371240839362" lon="6.205676877871156"><ele></ele><time>2013-7-29T4:19:9Z</time></trkpt>
<trkpt lat="46.41362431459129" lon="6.205768743529916"><ele></ele><time>2013-7-29T4:19:12Z</time></trkpt>
<trkpt lat="46.41353152692318" lon="6.2058513052761555"><ele></ele><time>2013-7-29T4:19:15Z</time></trkpt>
<trkpt lat="46.41342784278095" lon="6.2059258203953505"><ele></ele><time>2013-7-29T4:19:18Z</time></trkpt>
<trkpt lat="46.41332256607711" lon="6.2059711664915085"><ele></ele><time>2013-7-29T4:19:21Z</time></trkpt>
<trkpt lat="46.41321142204106" lon="6.205996982753277"><ele></ele><time>2013-7-29T4:19:24Z</time></trkpt>
<trkpt lat="46.41310120001435" lon="6.206004023551941"><ele></ele><time>2013-7-29T4:19:27Z</time></trkpt>
<trkpt lat="46.412987457588315" lon="6.205988181754947"><ele></ele><time>2013-7-29T4:19:30Z</time></trkpt>
<trkpt lat="46.41287187114358" lon="6.2059688195586205"><ele></ele><time>2013-7-29T4:19:33Z</time></trkpt>
<trkpt lat="46.41231925226748" lon="6.2058668956160545"><ele></ele><time>2013-7-29T4:19:36Z</time></trkpt>
<trkpt lat="46.411700416356325" lon="6.20573278516531"><ele></ele><time>2013-7-29T4:19:39Z</time></trkpt>
<trkpt lat="46.41159941442311" lon="6.205702694132924"><ele></ele><time>2013-7-29T4:19:42Z</time></trkpt>
<trkpt lat="46.41149992123246" lon="6.205673441290855"><ele></ele><time>2013-7-29T4:19:45Z</time></trkpt>
<trkpt lat="46.41140109859407" lon="6.205645529553294"><ele></ele><time>2013-7-29T4:19:48Z</time></trkpt>
<trkpt lat="46.41130244359374" lon="6.205620048567653"><ele></ele><time>2013-7-29T4:19:51Z</time></trkpt>
<trkpt lat="46.41120412386954" lon="6.205594735220075"><ele></ele><time>2013-7-29T4:19:54Z</time></trkpt>
<trkpt lat="46.41110144555569" lon="6.205569840967655"><ele></ele><time>2013-7-29T4:19:57Z</time></trkpt>
<trkpt lat="46.41089994460344" lon="6.205511167645454"><ele></ele><time>2013-7-29T4:20:0Z</time></trkpt>
<trkpt lat="46.41060473397374" lon="6.205404968932271"><ele></ele><time>2013-7-29T4:20:3Z</time></trkpt>
<trkpt lat="46.410509180277586" lon="6.20536046102643"><ele></ele><time>2013-7-29T4:20:6Z</time></trkpt>
<trkpt lat="46.41040717251599" lon="6.205312684178352"><ele></ele><time>2013-7-29T4:20:9Z</time></trkpt>
<trkpt lat="46.410311702638865" lon="6.2052549328655005"><ele></ele><time>2013-7-29T4:20:12Z</time></trkpt>
<trkpt lat="46.410217490047216" lon="6.205191984772682"><ele></ele><time>2013-7-29T4:20:15Z</time></trkpt>
<trkpt lat="46.40994859859347" lon="6.2049598060548306"><ele></ele><time>2013-7-29T4:20:18Z</time></trkpt>
<trkpt lat="46.409861678257585" lon="6.20487280189991"><ele></ele><time>2013-7-29T4:20:21Z</time></trkpt>
<trkpt lat="46.40977215953171" lon="6.204777248203754"><ele></ele><time>2013-7-29T4:20:24Z</time></trkpt>
<trkpt lat="46.40969060361385" lon="6.204682281240821"><ele></ele><time>2013-7-29T4:20:27Z</time></trkpt>
<trkpt lat="46.409610556438565" lon="6.204582285135984"><ele></ele><time>2013-7-29T4:20:30Z</time></trkpt>
<trkpt lat="46.40946311876178" lon="6.204369133338332"><ele></ele><time>2013-7-29T4:20:33Z</time></trkpt>
<trkpt lat="46.40919045545161" lon="6.203923132270575"><ele></ele><time>2013-7-29T4:20:36Z</time></trkpt>
<trkpt lat="46.409129686653614" lon="6.2038118205964565"><ele></ele><time>2013-7-29T4:20:39Z</time></trkpt>
<trkpt lat="46.40906791202724" lon="6.203702688217163"><ele></ele><time>2013-7-29T4:20:42Z</time></trkpt>
<trkpt lat="46.4090059697628" lon="6.203596154227853"><ele></ele><time>2013-7-29T4:20:45Z</time></trkpt>
<trkpt lat="46.40877043828368" lon="6.20319927111268"><ele></ele><time>2013-7-29T4:20:48Z</time></trkpt>
<trkpt lat="46.40871134586632" lon="6.20309860445559"><ele></ele><time>2013-7-29T4:20:51Z</time></trkpt>
<trkpt lat="46.408333322033286" lon="6.202453030273318"><ele></ele><time>2013-7-29T4:20:54Z</time></trkpt>
<trkpt lat="46.408279510214925" lon="6.2023616675287485"><ele></ele><time>2013-7-29T4:20:57Z</time></trkpt>
<trkpt lat="46.4079578127712" lon="6.2018227111548185"><ele></ele><time>2013-7-29T4:21:0Z</time></trkpt>
<trkpt lat="46.40785111114383" lon="6.201641075313091"><ele></ele><time>2013-7-29T4:21:3Z</time></trkpt>
<trkpt lat="46.407798221334815" lon="6.201550215482712"><ele></ele><time>2013-7-29T4:21:6Z</time></trkpt>
<trkpt lat="46.407743990421295" lon="6.20146069675684"><ele></ele><time>2013-7-29T4:21:9Z</time></trkpt>
<trkpt lat="46.40769043006003" lon="6.201371261849999"><ele></ele><time>2013-7-29T4:21:12Z</time></trkpt>
<trkpt lat="46.40763821080327" lon="6.201282162219286"><ele></ele><time>2013-7-29T4:21:15Z</time></trkpt>
<trkpt lat="46.40726295299828" lon="6.20063784532249"><ele></ele><time>2013-7-29T4:21:18Z</time></trkpt>
<trkpt lat="46.407154658809304" lon="6.200447743758559"><ele></ele><time>2013-7-29T4:21:21Z</time></trkpt>
<trkpt lat="46.406779903918505" lon="6.199825806543231"><ele></ele><time>2013-7-29T4:21:24Z</time></trkpt>
<trkpt lat="46.40667278319597" lon="6.199650540947914"><ele></ele><time>2013-7-29T4:21:27Z</time></trkpt>
<trkpt lat="46.40654034912586" lon="6.199406795203686"><ele></ele><time>2013-7-29T4:21:30Z</time></trkpt>
<trkpt lat="46.40644412487745" lon="6.199242258444428"><ele></ele><time>2013-7-29T4:21:33Z</time></trkpt>
<trkpt lat="46.40622762031853" lon="6.199070932343602"><ele></ele><time>2013-7-29T4:21:36Z</time></trkpt>
<trkpt lat="46.40614924952388" lon="6.199020389467478"><ele></ele><time>2013-7-29T4:21:39Z</time></trkpt>
<trkpt lat="46.406069872900844" lon="6.198967080563307"><ele></ele><time>2013-7-29T4:21:42Z</time></trkpt>
<trkpt lat="46.40591187402606" lon="6.19885534979403"><ele></ele><time>2013-7-29T4:21:45Z</time></trkpt>
<trkpt lat="46.405661422759295" lon="6.198681760579348"><ele></ele><time>2013-7-29T4:21:48Z</time></trkpt>
<trkpt lat="46.40515825711191" lon="6.198328882455826"><ele></ele><time>2013-7-29T4:21:51Z</time></trkpt>
<trkpt lat="46.40507720410824" lon="6.198271466419101"><ele></ele><time>2013-7-29T4:21:54Z</time></trkpt>
<trkpt lat="46.404994977638125" lon="6.198212457820773"><ele></ele><time>2013-7-29T4:21:57Z</time></trkpt>
<trkpt lat="46.40491425991058" lon="6.198153281584382"><ele></ele><time>2013-7-29T4:22:0Z</time></trkpt>
<trkpt lat="46.40483496710658" lon="6.198096117004752"><ele></ele><time>2013-7-29T4:22:3Z</time></trkpt>
<trkpt lat="46.40475383028388" lon="6.198040964081883"><ele></ele><time>2013-7-29T4:22:6Z</time></trkpt>
<trkpt lat="46.40436667017639" lon="6.197767546400428"><ele></ele><time>2013-7-29T4:22:9Z</time></trkpt>
<trkpt lat="46.403921926394105" lon="6.197456829249859"><ele></ele><time>2013-7-29T4:22:12Z</time></trkpt>
<trkpt lat="46.40355949290097" lon="6.197234038263559"><ele></ele><time>2013-7-29T4:22:15Z</time></trkpt>
<trkpt lat="46.40324383042753" lon="6.1971338745206594"><ele></ele><time>2013-7-29T4:22:18Z</time></trkpt>
<trkpt lat="46.40307191759348" lon="6.197108142077923"><ele></ele><time>2013-7-29T4:22:21Z</time></trkpt>
<trkpt lat="46.402983320876956" lon="6.197109986096621"><ele></ele><time>2013-7-29T4:22:24Z</time></trkpt>
<trkpt lat="46.402698839083314" lon="6.197144268080592"><ele></ele><time>2013-7-29T4:22:27Z</time></trkpt>
<trkpt lat="46.40231712721288" lon="6.197210485115647"><ele></ele><time>2013-7-29T4:22:30Z</time></trkpt>
<trkpt lat="46.40222425572574" lon="6.197225069627166"><ele></ele><time>2013-7-29T4:22:33Z</time></trkpt>
<trkpt lat="46.40212878584862" lon="6.197238145396113"><ele></ele><time>2013-7-29T4:22:36Z</time></trkpt>
<trkpt lat="46.40203951857984" lon="6.19724971242249"><ele></ele><time>2013-7-29T4:22:39Z</time></trkpt>
<trkpt lat="46.40163190662861" lon="6.19726387783885"><ele></ele><time>2013-7-29T4:22:42Z</time></trkpt>
<trkpt lat="46.401306353509426" lon="6.197217023000121"><ele></ele><time>2013-7-29T4:22:45Z</time></trkpt>
<trkpt lat="46.40113301575184" lon="6.197165558114648"><ele></ele><time>2013-7-29T4:22:48Z</time></trkpt>
<trkpt lat="46.400985745713115" lon="6.197077799588442"><ele></ele><time>2013-7-29T4:22:51Z</time></trkpt>
<trkpt lat="46.40084031969309" lon="6.19698928669095"><ele></ele><time>2013-7-29T4:22:54Z</time></trkpt>
<trkpt lat="46.40078868716955" lon="6.196963302791119"><ele></ele><time>2013-7-29T4:22:57Z</time></trkpt>
<trkpt lat="46.400738982483745" lon="6.196938324719667"><ele></ele><time>2013-7-29T4:23:0Z</time></trkpt>
<trkpt lat="46.40069095417857" lon="6.196908485144377"><ele></ele><time>2013-7-29T4:23:3Z</time></trkpt>
<trkpt lat="46.400444777682424" lon="6.196715449914336"><ele></ele><time>2013-7-29T4:23:6Z</time></trkpt>
<trkpt lat="46.40017353929579" lon="6.196506321430206"><ele></ele><time>2013-7-29T4:23:9Z</time></trkpt>
<trkpt lat="46.40006189234555" lon="6.196412276476622"><ele></ele><time>2013-7-29T4:23:12Z</time></trkpt>
<trkpt lat="46.400007577612996" lon="6.196366008371115"><ele></ele><time>2013-7-29T4:23:15Z</time></trkpt>
<trkpt lat="46.39995200559497" lon="6.1963183991611"><ele></ele><time>2013-7-29T4:23:18Z</time></trkpt>
<trkpt lat="46.399896182119846" lon="6.196272550150752"><ele></ele><time>2013-7-29T4:23:21Z</time></trkpt>
<trkpt lat="46.39984027482569" lon="6.196227204054594"><ele></ele><time>2013-7-29T4:23:24Z</time></trkpt>
<trkpt lat="46.399783696979284" lon="6.196177750825882"><ele></ele><time>2013-7-29T4:23:27Z</time></trkpt>
<trkpt lat="46.39931531623006" lon="6.195794949308038"><ele></ele><time>2013-7-29T4:23:30Z</time></trkpt>
<trkpt lat="46.39883955940604" lon="6.19540267623961"><ele></ele><time>2013-7-29T4:23:33Z</time></trkpt>
<trkpt lat="46.398356007412076" lon="6.195003362372518"><ele></ele><time>2013-7-29T4:23:36Z</time></trkpt>
<trkpt lat="46.39829498715699" lon="6.1949539091438055"><ele></ele><time>2013-7-29T4:23:39Z</time></trkpt>
<trkpt lat="46.397928446531296" lon="6.194656519219279"><ele></ele><time>2013-7-29T4:23:42Z</time></trkpt>
<trkpt lat="46.39786725863814" lon="6.194605473428965"><ele></ele><time>2013-7-29T4:23:45Z</time></trkpt>
<trkpt lat="46.39780640602112" lon="6.194556104019284"><ele></ele><time>2013-7-29T4:23:48Z</time></trkpt>
<trkpt lat="46.39774253591895" lon="6.194506315514445"><ele></ele><time>2013-7-29T4:23:51Z</time></trkpt>
<trkpt lat="46.39768252149224" lon="6.194458203390241"><ele></ele><time>2013-7-29T4:23:54Z</time></trkpt>
<trkpt lat="46.39725831337273" lon="6.194123346358538"><ele></ele><time>2013-7-29T4:23:57Z</time></trkpt>
<trkpt lat="46.39680979773402" lon="6.193745322525501"><ele></ele><time>2013-7-29T4:24:0Z</time></trkpt>
<trkpt lat="46.396494302898645" lon="6.193497804924846"><ele></ele><time>2013-7-29T4:24:3Z</time></trkpt>
<trkpt lat="46.39644166454673" lon="6.193458242341876"><ele></ele><time>2013-7-29T4:24:6Z</time></trkpt>
<trkpt lat="46.39638961292803" lon="6.193419266492128"><ele></ele><time>2013-7-29T4:24:9Z</time></trkpt>
<trkpt lat="46.39633873477578" lon="6.193376602604985"><ele></ele><time>2013-7-29T4:24:12Z</time></trkpt>
<trkpt lat="46.39628794044256" lon="6.193334441632032"><ele></ele><time>2013-7-29T4:24:15Z</time></trkpt>
<trkpt lat="46.39594009146094" lon="6.19300888851285"><ele></ele><time>2013-7-29T4:24:18Z</time></trkpt>
<trkpt lat="46.39563255943358" lon="6.1927188746631145"><ele></ele><time>2013-7-29T4:24:21Z</time></trkpt>
<trkpt lat="46.395576652139425" lon="6.1926747020334005"><ele></ele><time>2013-7-29T4:24:24Z</time></trkpt>
<trkpt lat="46.395515128970146" lon="6.192634552717209"><ele></ele><time>2013-7-29T4:24:27Z</time></trkpt>
<trkpt lat="46.39525277540088" lon="6.1924640648067"><ele></ele><time>2013-7-29T4:24:30Z</time></trkpt>
<trkpt lat="46.39512847177684" lon="6.192351998761296"><ele></ele><time>2013-7-29T4:24:33Z</time></trkpt>
<trkpt lat="46.39507474377751" lon="6.19227304123342"><ele></ele><time>2013-7-29T4:24:36Z</time></trkpt>
<trkpt lat="46.394909704104066" lon="6.192022506147623"><ele></ele><time>2013-7-29T4:24:39Z</time></trkpt>
<trkpt lat="46.394792944192886" lon="6.19185428135097"><ele></ele><time>2013-7-29T4:24:42Z</time></trkpt>
<trkpt lat="46.39472530223429" lon="6.191778676584363"><ele></ele><time>2013-7-29T4:24:45Z</time></trkpt>
<trkpt lat="46.3945815525949" lon="6.191676752641797"><ele></ele><time>2013-7-29T4:24:48Z</time></trkpt>
<trkpt lat="46.39413680881262" lon="6.191419344395399"><ele></ele><time>2013-7-29T4:24:51Z</time></trkpt>
<trkpt lat="46.393987610936165" lon="6.191332088783383"><ele></ele><time>2013-7-29T4:24:54Z</time></trkpt>
<trkpt lat="46.393912341445684" lon="6.1912864074110985"><ele></ele><time>2013-7-29T4:24:57Z</time></trkpt>
<trkpt lat="46.393833216279745" lon="6.191244246438146"><ele></ele><time>2013-7-29T4:25:0Z</time></trkpt>
<trkpt lat="46.39375878497958" lon="6.191198900341988"><ele></ele><time>2013-7-29T4:25:3Z</time></trkpt>
<trkpt lat="46.393685108050704" lon="6.191153721883893"><ele></ele><time>2013-7-29T4:25:6Z</time></trkpt>
<trkpt lat="46.39318403787911" lon="6.1908231396228075"><ele></ele><time>2013-7-29T4:25:9Z</time></trkpt>
<trkpt lat="46.39303408563137" lon="6.190835880115628"><ele></ele><time>2013-7-29T4:25:12Z</time></trkpt>
<trkpt lat="46.39289712533355" lon="6.1909315176308155"><ele></ele><time>2013-7-29T4:25:15Z</time></trkpt>
<trkpt lat="46.39282437041402" lon="6.1909737624228"><ele></ele><time>2013-7-29T4:25:18Z</time></trkpt>
<trkpt lat="46.39258163049817" lon="6.190968146547675"><ele></ele><time>2013-7-29T4:25:21Z</time></trkpt>
<trkpt lat="46.39253284782171" lon="6.1908902786672115"><ele></ele><time>2013-7-29T4:25:24Z</time></trkpt>
<trkpt lat="46.392460595816374" lon="6.19067813269794"><ele></ele><time>2013-7-29T4:25:27Z</time></trkpt>
<trkpt lat="46.39241994358599" lon="6.19058090262115"><ele></ele><time>2013-7-29T4:25:30Z</time></trkpt>
<trkpt lat="46.392134539783" lon="6.189945721998811"><ele></ele><time>2013-7-29T4:25:33Z</time></trkpt>
<trkpt lat="46.39185106381774" lon="6.18942872621119"><ele></ele><time>2013-7-29T4:25:36Z</time></trkpt>
<trkpt lat="46.39172843657434" lon="6.189208282157779"><ele></ele><time>2013-7-29T4:25:39Z</time></trkpt>
<trkpt lat="46.39162533916533" lon="6.189094036817551"><ele></ele><time>2013-7-29T4:25:42Z</time></trkpt>
<trkpt lat="46.39137220568955" lon="6.18888096883893"><ele></ele><time>2013-7-29T4:25:45Z</time></trkpt>
<trkpt lat="46.391297690570354" lon="6.188833024352789"><ele></ele><time>2013-7-29T4:25:48Z</time></trkpt>
<trkpt lat="46.39081036671996" lon="6.188567820936441"><ele></ele><time>2013-7-29T4:25:51Z</time></trkpt>
<trkpt lat="46.39063627459109" lon="6.188466651365161"><ele></ele><time>2013-7-29T4:25:54Z</time></trkpt>
<trkpt lat="46.390553042292595" lon="6.188420047983527"><ele></ele><time>2013-7-29T4:25:57Z</time></trkpt>
<trkpt lat="46.390469474717975" lon="6.188372606411576"><ele></ele><time>2013-7-29T4:26:0Z</time></trkpt>
<trkpt lat="46.39038632623851" lon="6.188322817906737"><ele></ele><time>2013-7-29T4:26:3Z</time></trkpt>
<trkpt lat="46.3901486992836" lon="6.188166327774525"><ele></ele><time>2013-7-29T4:26:6Z</time></trkpt>
<trkpt lat="46.38971149921417" lon="6.1877652537077665"><ele></ele><time>2013-7-29T4:26:9Z</time></trkpt>
<trkpt lat="46.389329032972455" lon="6.187243312597275"><ele></ele><time>2013-7-29T4:26:12Z</time></trkpt>
<trkpt lat="46.38894556090236" lon="6.186566222459078"><ele></ele><time>2013-7-29T4:26:15Z</time></trkpt>
<trkpt lat="46.388890240341425" lon="6.186468489468098"><ele></ele><time>2013-7-29T4:26:18Z</time></trkpt>
<trkpt lat="46.38883659616113" lon="6.1863713432103395"><ele></ele><time>2013-7-29T4:26:21Z</time></trkpt>
<trkpt lat="46.38878110796213" lon="6.186274783685803"><ele></ele><time>2013-7-29T4:26:24Z</time></trkpt>
<trkpt lat="46.38872436247766" lon="6.186172608286142"><ele></ele><time>2013-7-29T4:26:27Z</time></trkpt>
<trkpt lat="46.38850634917617" lon="6.185789136216044"><ele></ele><time>2013-7-29T4:26:30Z</time></trkpt>
<trkpt lat="46.38811147771776" lon="6.185096623376012"><ele></ele><time>2013-7-29T4:26:33Z</time></trkpt>
<trkpt lat="46.388002429157495" lon="6.184904342517257"><ele></ele><time>2013-7-29T4:26:36Z</time></trkpt>
<trkpt lat="46.38761946000159" lon="6.184224067255855"><ele></ele><time>2013-7-29T4:26:39Z</time></trkpt>
<trkpt lat="46.387454168871045" lon="6.183935226872563"><ele></ele><time>2013-7-29T4:26:42Z</time></trkpt>
<trkpt lat="46.387070612981915" lon="6.183259142562747"><ele></ele><time>2013-7-29T4:26:45Z</time></trkpt>
<trkpt lat="46.3870145380497" lon="6.183166606351733"><ele></ele><time>2013-7-29T4:26:48Z</time></trkpt>
<trkpt lat="46.38661405071616" lon="6.18253368884325"><ele></ele><time>2013-7-29T4:26:51Z</time></trkpt>
<trkpt lat="46.38655294664204" lon="6.18244375102222"><ele></ele><time>2013-7-29T4:26:54Z</time></trkpt>
<trkpt lat="46.38611105270684" lon="6.18184469640255"><ele></ele><time>2013-7-29T4:26:57Z</time></trkpt>
<trkpt lat="46.38604902662337" lon="6.181764230132103"><ele></ele><time>2013-7-29T4:27:0Z</time></trkpt>
<trkpt lat="46.385870995000005" lon="6.181530877947807"><ele></ele><time>2013-7-29T4:27:3Z</time></trkpt>
<trkpt lat="46.385816344991326" lon="6.181456111371517"><ele></ele><time>2013-7-29T4:27:6Z</time></trkpt>
<trkpt lat="46.38576328754425" lon="6.181387547403574"><ele></ele><time>2013-7-29T4:27:9Z</time></trkpt>
<trkpt lat="46.385720036923885" lon="6.181328035891056"><ele></ele><time>2013-7-29T4:27:12Z</time></trkpt>
<trkpt lat="46.38568013906479" lon="6.181271122768521"><ele></ele><time>2013-7-29T4:27:15Z</time></trkpt>
<trkpt lat="46.385503113269806" lon="6.181037938222289"><ele></ele><time>2013-7-29T4:27:18Z</time></trkpt>
<trkpt lat="46.38540060259402" lon="6.180898295715451"><ele></ele><time>2013-7-29T4:27:21Z</time></trkpt>
<trkpt lat="46.38535022735596" lon="6.180821768939495"><ele></ele><time>2013-7-29T4:27:24Z</time></trkpt>
<trkpt lat="46.38529758900404" lon="6.18074675090611"><ele></ele><time>2013-7-29T4:27:27Z</time></trkpt>
<trkpt lat="46.3852427713573" lon="6.1806699726730585"><ele></ele><time>2013-7-29T4:27:30Z</time></trkpt>
<trkpt lat="46.385186864063144" lon="6.180590679869056"><ele></ele><time>2013-7-29T4:27:33Z</time></trkpt>
<trkpt lat="46.38501084409654" lon="6.180329164490104"><ele></ele><time>2013-7-29T4:27:36Z</time></trkpt>
<trkpt lat="46.384751005098224" lon="6.179982824251056"><ele></ele><time>2013-7-29T4:27:39Z</time></trkpt>
<trkpt lat="46.384330820292234" lon="6.1794819217175245"><ele></ele><time>2013-7-29T4:27:42Z</time></trkpt>
<trkpt lat="46.384261921048164" lon="6.179396007210016"><ele></ele><time>2013-7-29T4:27:45Z</time></trkpt>
<trkpt lat="46.38385623693466" lon="6.178858475759625"><ele></ele><time>2013-7-29T4:27:48Z</time></trkpt>
<trkpt lat="46.38366688974202" lon="6.178599055856466"><ele></ele><time>2013-7-29T4:27:51Z</time></trkpt>
<trkpt lat="46.383605701848865" lon="6.1785082798451185"><ele></ele><time>2013-7-29T4:27:54Z</time></trkpt>
<trkpt lat="46.38354007154703" lon="6.1784193478524685"><ele></ele><time>2013-7-29T4:27:57Z</time></trkpt>
<trkpt lat="46.383475698530674" lon="6.178338127210736"><ele></ele><time>2013-7-29T4:28:0Z</time></trkpt>
<trkpt lat="46.3834123313427" lon="6.178254056721926"><ele></ele><time>2013-7-29T4:28:3Z</time></trkpt>
<trkpt lat="46.3830307032913" lon="6.177735468372703"><ele></ele><time>2013-7-29T4:28:6Z</time></trkpt>
<trkpt lat="46.38262786902487" lon="6.177148902788758"><ele></ele><time>2013-7-29T4:28:9Z</time></trkpt>
<trkpt lat="46.3823361787945" lon="6.176747241988778"><ele></ele><time>2013-7-29T4:28:12Z</time></trkpt>
<trkpt lat="46.38226074166596" lon="6.176648838445544"><ele></ele><time>2013-7-29T4:28:15Z</time></trkpt>
<trkpt lat="46.38218781910837" lon="6.176546746864915"><ele></ele><time>2013-7-29T4:28:18Z</time></trkpt>
<trkpt lat="46.38211699202657" lon="6.176441973075271"><ele></ele><time>2013-7-29T4:28:21Z</time></trkpt>
<trkpt lat="46.38204432092607" lon="6.176332421600819"><ele></ele><time>2013-7-29T4:28:24Z</time></trkpt>
<trkpt lat="46.38169119134545" lon="6.1758385598659515"><ele></ele><time>2013-7-29T4:28:27Z</time></trkpt>
<trkpt lat="46.381304785609245" lon="6.175297005102038"><ele></ele><time>2013-7-29T4:28:30Z</time></trkpt>
<trkpt lat="46.381058357656" lon="6.17497069761157"><ele></ele><time>2013-7-29T4:28:33Z</time></trkpt>
<trkpt lat="46.381038995459676" lon="6.174903390929103"><ele></ele><time>2013-7-29T4:28:36Z</time></trkpt>
<trkpt lat="46.38096682727337" lon="6.17475276812911"><ele></ele><time>2013-7-29T4:28:39Z</time></trkpt>
<trkpt lat="46.38091024942696" lon="6.174599127843976"><ele></ele><time>2013-7-29T4:28:42Z</time></trkpt>
<trkpt lat="46.38084713369608" lon="6.174438865855336"><ele></ele><time>2013-7-29T4:28:45Z</time></trkpt>
<trkpt lat="46.38081293553114" lon="6.1743465811014175"><ele></ele><time>2013-7-29T4:28:48Z</time></trkpt>
<trkpt lat="46.380775636062026" lon="6.174257230013609"><ele></ele><time>2013-7-29T4:28:51Z</time></trkpt>
<trkpt lat="46.380736995488405" lon="6.174162346869707"><ele></ele><time>2013-7-29T4:28:54Z</time></trkpt>
<trkpt lat="46.3806941639632" lon="6.174062434583902"><ele></ele><time>2013-7-29T4:28:57Z</time></trkpt>
<trkpt lat="46.38056273572147" lon="6.17377744987607"><ele></ele><time>2013-7-29T4:29:0Z</time></trkpt>
<trkpt lat="46.38022352010012" lon="6.173264477401972"><ele></ele><time>2013-7-29T4:29:3Z</time></trkpt>
<trkpt lat="46.37976536527276" lon="6.172672379761934"><ele></ele><time>2013-7-29T4:29:6Z</time></trkpt>
<trkpt lat="46.37969881296158" lon="6.172589650377631"><ele></ele><time>2013-7-29T4:29:9Z</time></trkpt>
<trkpt lat="46.37928809970617" lon="6.172043401747942"><ele></ele><time>2013-7-29T4:29:12Z</time></trkpt>
<trkpt lat="46.37922347523272" lon="6.17195731960237"><ele></ele><time>2013-7-29T4:29:15Z</time></trkpt>
<trkpt lat="46.37880714610219" lon="6.171408053487539"><ele></ele><time>2013-7-29T4:29:18Z</time></trkpt>
<trkpt lat="46.37840062379837" lon="6.170870773494244"><ele></ele><time>2013-7-29T4:29:21Z</time></trkpt>
<trkpt lat="46.378330970183015" lon="6.170783098787069"><ele></ele><time>2013-7-29T4:29:24Z</time></trkpt>
<trkpt lat="46.378262070938945" lon="6.170693915337324"><ele></ele><time>2013-7-29T4:29:27Z</time></trkpt>
<trkpt lat="46.37819778174162" lon="6.170607917010784"><ele></ele><time>2013-7-29T4:29:30Z</time></trkpt>
<trkpt lat="46.37813005596399" lon="6.170520158484578"><ele></ele><time>2013-7-29T4:29:33Z</time></trkpt>
<trkpt lat="46.378063252195716" lon="6.170435333624482"><ele></ele><time>2013-7-29T4:29:36Z</time></trkpt>
<trkpt lat="46.37786610983312" lon="6.170183205977082"><ele></ele><time>2013-7-29T4:29:39Z</time></trkpt>
<trkpt lat="46.377411223948" lon="6.169576104730368"><ele></ele><time>2013-7-29T4:29:42Z</time></trkpt>
<trkpt lat="46.37734425254166" lon="6.169490525498986"><ele></ele><time>2013-7-29T4:29:45Z</time></trkpt>
<trkpt lat="46.37687327340245" lon="6.16890630684793"><ele></ele><time>2013-7-29T4:29:48Z</time></trkpt>
<trkpt lat="46.37680781073868" lon="6.168818548321724"><ele></ele><time>2013-7-29T4:29:51Z</time></trkpt>
<trkpt lat="46.37642148882151" lon="6.168305575847626"><ele></ele><time>2013-7-29T4:29:54Z</time></trkpt>
<trkpt lat="46.37597322463989" lon="6.167679028585553"><ele></ele><time>2013-7-29T4:29:57Z</time></trkpt>
<trkpt lat="46.375917652621865" lon="6.16757676936686"><ele></ele><time>2013-7-29T4:30:0Z</time></trkpt>
<trkpt lat="46.37586166150868" lon="6.167463110759854"><ele></ele><time>2013-7-29T4:30:3Z</time></trkpt>
<trkpt lat="46.37581321410835" lon="6.167353140190244"><ele></ele><time>2013-7-29T4:30:6Z</time></trkpt>
<trkpt lat="46.37576686218381" lon="6.167242582887411"><ele></ele><time>2013-7-29T4:30:9Z</time></trkpt>
<trkpt lat="46.375629398971796" lon="6.166913593187928"><ele></ele><time>2013-7-29T4:30:12Z</time></trkpt>
<trkpt lat="46.375319017097354" lon="6.166145475581288"><ele></ele><time>2013-7-29T4:30:15Z</time></trkpt>
<trkpt lat="46.37527492828667" lon="6.166041037067771"><ele></ele><time>2013-7-29T4:30:18Z</time></trkpt>
<trkpt lat="46.37507879175246" lon="6.165473582223058"><ele></ele><time>2013-7-29T4:30:21Z</time></trkpt>
<trkpt lat="46.37505356222391" lon="6.165353134274483"><ele></ele><time>2013-7-29T4:30:24Z</time></trkpt>
<trkpt lat="46.37489262968302" lon="6.164526930078864"><ele></ele><time>2013-7-29T4:30:27Z</time></trkpt>
<trkpt lat="46.374818198382854" lon="6.1643121019005775"><ele></ele><time>2013-7-29T4:30:30Z</time></trkpt>
<trkpt lat="46.374723482877016" lon="6.164105823263526"><ele></ele><time>2013-7-29T4:30:33Z</time></trkpt>
<trkpt lat="46.37467763386667" lon="6.163998953998089"><ele></ele><time>2013-7-29T4:30:36Z</time></trkpt>
<trkpt lat="46.37463572435081" lon="6.163891665637493"><ele></ele><time>2013-7-29T4:30:39Z</time></trkpt>
<trkpt lat="46.374591970816255" lon="6.1637867242097855"><ele></ele><time>2013-7-29T4:30:42Z</time></trkpt>
<trkpt lat="46.374551653862" lon="6.163683794438839"><ele></ele><time>2013-7-29T4:30:45Z</time></trkpt>
<trkpt lat="46.37450781650841" lon="6.163588156923652"><ele></ele><time>2013-7-29T4:30:48Z</time></trkpt>
<trkpt lat="46.374463057145476" lon="6.16350207477808"><ele></ele><time>2013-7-29T4:30:51Z</time></trkpt>
<trkpt lat="46.3744084071368" lon="6.163417333737016"><ele></ele><time>2013-7-29T4:30:54Z</time></trkpt>
<trkpt lat="46.37436406686902" lon="6.163347931578755"><ele></ele><time>2013-7-29T4:30:57Z</time></trkpt>
<trkpt lat="46.374322324991226" lon="6.163292108103633"><ele></ele><time>2013-7-29T4:31:0Z</time></trkpt>
<trkpt lat="46.37427446432412" lon="6.163254473358393"><ele></ele><time>2013-7-29T4:31:3Z</time></trkpt>
<trkpt lat="46.374147310853004" lon="6.163278529420495"><ele></ele><time>2013-7-29T4:31:6Z</time></trkpt>
<trkpt lat="46.37404002249241" lon="6.1634088680148125"><ele></ele><time>2013-7-29T4:31:9Z</time></trkpt>
<trkpt lat="46.37398403137922" lon="6.16346544586122"><ele></ele><time>2013-7-29T4:31:12Z</time></trkpt>
<trkpt lat="46.37365462258458" lon="6.163696786388755"><ele></ele><time>2013-7-29T4:31:15Z</time></trkpt>
<trkpt lat="46.37344038113952" lon="6.163836680352688"><ele></ele><time>2013-7-29T4:31:18Z</time></trkpt>
<trkpt lat="46.373367458581924" lon="6.163893258199096"><ele></ele><time>2013-7-29T4:31:21Z</time></trkpt>
<trkpt lat="46.37329294346273" lon="6.16394966840744"><ele></ele><time>2013-7-29T4:31:24Z</time></trkpt>
<trkpt lat="46.3732201885432" lon="6.164012365043163"><ele></ele><time>2013-7-29T4:31:27Z</time></trkpt>
<trkpt lat="46.37315212748945" lon="6.164085371419787"><ele></ele><time>2013-7-29T4:31:30Z</time></trkpt>
<trkpt lat="46.37297635897994" lon="6.1643644887954"><ele></ele><time>2013-7-29T4:31:33Z</time></trkpt>
<trkpt lat="46.3729212898761" lon="6.1644634790718555"><ele></ele><time>2013-7-29T4:31:36Z</time></trkpt>
<trkpt lat="46.37253270484507" lon="6.165175186470151"><ele></ele><time>2013-7-29T4:31:39Z</time></trkpt>
<trkpt lat="46.372475204989314" lon="6.165271829813719"><ele></ele><time>2013-7-29T4:31:42Z</time></trkpt>
<trkpt lat="46.3720924872905" lon="6.165791591629386"><ele></ele><time>2013-7-29T4:31:45Z</time></trkpt>
<trkpt lat="46.37202266603708" lon="6.16586803458631"><ele></ele><time>2013-7-29T4:31:48Z</time></trkpt>
<trkpt lat="46.37195217423141" lon="6.16594229824841"><ele></ele><time>2013-7-29T4:31:51Z</time></trkpt>
<trkpt lat="46.37188017368317" lon="6.166013460606337"><ele></ele><time>2013-7-29T4:31:54Z</time></trkpt>
<trkpt lat="46.37158018536866" lon="6.166291991248727"><ele></ele><time>2013-7-29T4:31:57Z</time></trkpt>
<trkpt lat="46.37105103582144" lon="6.166776213794947"><ele></ele><time>2013-7-29T4:32:0Z</time></trkpt>
<trkpt lat="46.37090225704014" lon="6.166912754997611"><ele></ele><time>2013-7-29T4:32:3Z</time></trkpt>
<trkpt lat="46.37044929899275" lon="6.167337633669376"><ele></ele><time>2013-7-29T4:32:6Z</time></trkpt>
<trkpt lat="46.370375119149685" lon="6.167409047484398"><ele></ele><time>2013-7-29T4:32:9Z</time></trkpt>
<trkpt lat="46.37029901146889" lon="6.167478868737817"><ele></ele><time>2013-7-29T4:32:12Z</time></trkpt>
<trkpt lat="46.3702242448926" lon="6.167548522353172"><ele></ele><time>2013-7-29T4:32:15Z</time></trkpt>
<trkpt lat="46.37015190906823" lon="6.1676182597875595"><ele></ele><time>2013-7-29T4:32:18Z</time></trkpt>
<trkpt lat="46.36964773759246" lon="6.1681027337908745"><ele></ele><time>2013-7-29T4:32:21Z</time></trkpt>
<trkpt lat="46.36914876289666" lon="6.168578825891018"><ele></ele><time>2013-7-29T4:32:24Z</time></trkpt>
<trkpt lat="46.36901021003723" lon="6.1687135230749846"><ele></ele><time>2013-7-29T4:32:27Z</time></trkpt>
<trkpt lat="46.36872028000653" lon="6.168986018747091"><ele></ele><time>2013-7-29T4:32:30Z</time></trkpt>
<trkpt lat="46.3686493691057" lon="6.169053241610527"><ele></ele><time>2013-7-29T4:32:33Z</time></trkpt>
<trkpt lat="46.36857979930937" lon="6.169119207188487"><ele></ele><time>2013-7-29T4:32:36Z</time></trkpt>
<trkpt lat="46.36850922368467" lon="6.169187184423208"><ele></ele><time>2013-7-29T4:32:39Z</time></trkpt>
<trkpt lat="46.3684384804219" lon="6.169252060353756"><ele></ele><time>2013-7-29T4:32:42Z</time></trkpt>
<trkpt lat="46.36794948019087" lon="6.169698983430862"><ele></ele><time>2013-7-29T4:32:45Z</time></trkpt>
<trkpt lat="46.36761940084398" lon="6.16999645717442"><ele></ele><time>2013-7-29T4:32:48Z</time></trkpt>
<trkpt lat="46.36756969615817" lon="6.170077342540026"><ele></ele><time>2013-7-29T4:32:51Z</time></trkpt>
<trkpt lat="46.36756592430174" lon="6.170286303386092"><ele></ele><time>2013-7-29T4:32:54Z</time></trkpt>
<trkpt lat="46.36758822016418" lon="6.1705006286501884"><ele></ele><time>2013-7-29T4:32:57Z</time></trkpt>
<trkpt lat="46.36758679524064" lon="6.170602636411786"><ele></ele><time>2013-7-29T4:33:0Z</time></trkpt>
<trkpt lat="46.367590483278036" lon="6.170807154849172"><ele></ele><time>2013-7-29T4:33:3Z</time></trkpt>
<trkpt lat="46.36758520267904" lon="6.170905474573374"><ele></ele><time>2013-7-29T4:33:6Z</time></trkpt>
<trkpt lat="46.36756148189306" lon="6.171410735696554"><ele></ele><time>2013-7-29T4:33:9Z</time></trkpt>
<trkpt lat="46.36747078970075" lon="6.172273736447096"><ele></ele><time>2013-7-29T4:33:12Z</time></trkpt>
<trkpt lat="46.367404740303755" lon="6.173022072762251"><ele></ele><time>2013-7-29T4:33:15Z</time></trkpt>
<trkpt lat="46.36734874919057" lon="6.173320887610316"><ele></ele><time>2013-7-29T4:33:18Z</time></trkpt>
<trkpt lat="46.36728974059224" lon="6.173503026366234"><ele></ele><time>2013-7-29T4:33:21Z</time></trkpt>
<trkpt lat="46.367075415328145" lon="6.174017675220966"><ele></ele><time>2013-7-29T4:33:24Z</time></trkpt>
<trkpt lat="46.36679721996188" lon="6.174558727070689"><ele></ele><time>2013-7-29T4:33:27Z</time></trkpt>
<trkpt lat="46.36676142923534" lon="6.174632320180535"><ele></ele><time>2013-7-29T4:33:30Z</time></trkpt>
<trkpt lat="46.366725051775575" lon="6.174710355699062"><ele></ele><time>2013-7-29T4:33:33Z</time></trkpt>
<trkpt lat="46.366688841953874" lon="6.1747851222753525"><ele></ele><time>2013-7-29T4:33:36Z</time></trkpt>
<trkpt lat="46.36665154248476" lon="6.174857290461659"><ele></ele><time>2013-7-29T4:33:39Z</time></trkpt>
<trkpt lat="46.3664663862437" lon="6.175225926563144"><ele></ele><time>2013-7-29T4:33:42Z</time></trkpt>
<trkpt lat="46.366288270801306" lon="6.175675615668297"><ele></ele><time>2013-7-29T4:33:45Z</time></trkpt>
<trkpt lat="46.36626983061433" lon="6.175760356709361"><ele></ele><time>2013-7-29T4:33:48Z</time></trkpt>
<trkpt lat="46.3662541564554" lon="6.175852892920375"><ele></ele><time>2013-7-29T4:33:51Z</time></trkpt>
<trkpt lat="46.366243259981275" lon="6.17594257928431"><ele></ele><time>2013-7-29T4:33:54Z</time></trkpt>
<trkpt lat="46.366234039887786" lon="6.176038049161434"><ele></ele><time>2013-7-29T4:33:57Z</time></trkpt>
<trkpt lat="46.3662248197943" lon="6.176234437152743"><ele></ele><time>2013-7-29T4:34:0Z</time></trkpt>
<trkpt lat="46.36615818366408" lon="6.177026275545359"><ele></ele><time>2013-7-29T4:34:3Z</time></trkpt>
<trkpt lat="46.36603865772486" lon="6.17737521417439"><ele></ele><time>2013-7-29T4:34:6Z</time></trkpt>
<trkpt lat="46.36600052006543" lon="6.177452327683568"><ele></ele><time>2013-7-29T4:34:9Z</time></trkpt>
<trkpt lat="46.36583162471652" lon="6.177726164460182"><ele></ele><time>2013-7-29T4:34:12Z</time></trkpt>
<trkpt lat="46.365745374932885" lon="6.177855245769024"><ele></ele><time>2013-7-29T4:34:15Z</time></trkpt>
<trkpt lat="46.3655823469162" lon="6.1780868377536535"><ele></ele><time>2013-7-29T4:34:18Z</time></trkpt>
<trkpt lat="46.36553985066712" lon="6.1781463492661715"><ele></ele><time>2013-7-29T4:34:21Z</time></trkpt>
<trkpt lat="46.36549928225577" lon="6.17820443585515"><ele></ele><time>2013-7-29T4:34:24Z</time></trkpt>
<trkpt lat="46.36545871384442" lon="6.17826453410089"><ele></ele><time>2013-7-29T4:34:27Z</time></trkpt>
<trkpt lat="46.365415966138244" lon="6.178317675366998"><ele></ele><time>2013-7-29T4:34:30Z</time></trkpt>
<trkpt lat="46.36526081711054" lon="6.178544238209724"><ele></ele><time>2013-7-29T4:34:33Z</time></trkpt>
<trkpt lat="46.36517766863108" lon="6.1786590702831745"><ele></ele><time>2013-7-29T4:34:36Z</time></trkpt>
<trkpt lat="46.36506141163409" lon="6.178847998380661"><ele></ele><time>2013-7-29T4:34:39Z</time></trkpt>
<trkpt lat="46.36491439305246" lon="6.179083110764623"><ele></ele><time>2013-7-29T4:34:42Z</time></trkpt>
<trkpt lat="46.36487474665046" lon="6.17914748378098"><ele></ele><time>2013-7-29T4:34:45Z</time></trkpt>
<trkpt lat="46.36474147439003" lon="6.179453926160932"><ele></ele><time>2013-7-29T4:34:48Z</time></trkpt>
<trkpt lat="46.364712389186025" lon="6.1795473005622625"><ele></ele><time>2013-7-29T4:34:51Z</time></trkpt>
<trkpt lat="46.36459537781775" lon="6.179959774017334"><ele></ele><time>2013-7-29T4:34:54Z</time></trkpt>
<trkpt lat="46.36456067673862" lon="6.180065302178264"><ele></ele><time>2013-7-29T4:34:57Z</time></trkpt>
<trkpt lat="46.36452564038336" lon="6.180176949128509"><ele></ele><time>2013-7-29T4:35:0Z</time></trkpt>
<trkpt lat="46.364487670361996" lon="6.180278537794948"><ele></ele><time>2013-7-29T4:35:3Z</time></trkpt>
<trkpt lat="46.364438300952315" lon="6.180380126461387"><ele></ele><time>2013-7-29T4:35:6Z</time></trkpt>
<trkpt lat="46.3643854111433" lon="6.180476853623986"><ele></ele><time>2013-7-29T4:35:9Z</time></trkpt>
<trkpt lat="46.3643372990191" lon="6.180575508624315"><ele></ele><time>2013-7-29T4:35:12Z</time></trkpt>
<trkpt lat="46.36411459185183" lon="6.18094565346837"><ele></ele><time>2013-7-29T4:35:15Z</time></trkpt>
<trkpt lat="46.36406195349991" lon="6.1810398660600185"><ele></ele><time>2013-7-29T4:35:18Z</time></trkpt>
<trkpt lat="46.364005291834474" lon="6.181137263774872"><ele></ele><time>2013-7-29T4:35:21Z</time></trkpt>
<trkpt lat="46.36394946835935" lon="6.181229380890727"><ele></ele><time>2013-7-29T4:35:24Z</time></trkpt>
<trkpt lat="46.363895488902926" lon="6.1813246831297874"><ele></ele><time>2013-7-29T4:35:27Z</time></trkpt>
<trkpt lat="46.36367814615369" lon="6.181750064715743"><ele></ele><time>2013-7-29T4:35:30Z</time></trkpt>
<trkpt lat="46.36362140066922" lon="6.181871183216572"><ele></ele><time>2013-7-29T4:35:33Z</time></trkpt>
<trkpt lat="46.363566080108285" lon="6.181991044431925"><ele></ele><time>2013-7-29T4:35:36Z</time></trkpt>
<trkpt lat="46.3635100889951" lon="6.182114677503705"><ele></ele><time>2013-7-29T4:35:39Z</time></trkpt>
<trkpt lat="46.363456109538674" lon="6.18224392645061"><ele></ele><time>2013-7-29T4:35:42Z</time></trkpt>
<trkpt lat="46.36339928023517" lon="6.182369319722056"><ele></ele><time>2013-7-29T4:35:45Z</time></trkpt>
<trkpt lat="46.36334538459778" lon="6.182498736307025"><ele></ele><time>2013-7-29T4:35:48Z</time></trkpt>
<trkpt lat="46.36328863911331" lon="6.182625638321042"><ele></ele><time>2013-7-29T4:35:51Z</time></trkpt>
<trkpt lat="46.36317363940179" lon="6.182882962748408"><ele></ele><time>2013-7-29T4:35:54Z</time></trkpt>
<trkpt lat="46.3631178997457" lon="6.183003913611174"><ele></ele><time>2013-7-29T4:35:57Z</time></trkpt>
<trkpt lat="46.36305805295706" lon="6.183117488399148"><ele></ele><time>2013-7-29T4:36:0Z</time></trkpt>
<trkpt lat="46.36299468576908" lon="6.183223100379109"><ele></ele><time>2013-7-29T4:36:3Z</time></trkpt>
<trkpt lat="46.362932827323675" lon="6.18332477286458"><ele></ele><time>2013-7-29T4:36:6Z</time></trkpt>
<trkpt lat="46.36254801414907" lon="6.183910919353366"><ele></ele><time>2013-7-29T4:36:9Z</time></trkpt>
<trkpt lat="46.36248305439949" lon="6.184008987620473"><ele></ele><time>2013-7-29T4:36:12Z</time></trkpt>
<trkpt lat="46.3624151609838" lon="6.1841039545834064"><ele></ele><time>2013-7-29T4:36:15Z</time></trkpt>
<trkpt lat="46.36234684847295" lon="6.184199759736657"><ele></ele><time>2013-7-29T4:36:18Z</time></trkpt>
<trkpt lat="46.36228012852371" lon="6.184293050318956"><ele></ele><time>2013-7-29T4:36:21Z</time></trkpt>
<trkpt lat="46.36221081018448" lon="6.184392040595412"><ele></ele><time>2013-7-29T4:36:24Z</time></trkpt>
<trkpt lat="46.36208047159016" lon="6.184579627588391"><ele></ele><time>2013-7-29T4:36:27Z</time></trkpt>
<trkpt lat="46.36182306334376" lon="6.184950275346637"><ele></ele><time>2013-7-29T4:36:30Z</time></trkpt>
<trkpt lat="46.36163053102791" lon="6.185221765190363"><ele></ele><time>2013-7-29T4:36:33Z</time></trkpt>
<trkpt lat="46.36144571006298" lon="6.185485292226076"><ele></ele><time>2013-7-29T4:36:36Z</time></trkpt>
<trkpt lat="46.36107724159956" lon="6.186014274135232"><ele></ele><time>2013-7-29T4:36:39Z</time></trkpt>
<trkpt lat="46.36073802597821" lon="6.18643831461668"><ele></ele><time>2013-7-29T4:36:42Z</time></trkpt>
<trkpt lat="46.36065613478422" lon="6.186488941311836"><ele></ele><time>2013-7-29T4:36:45Z</time></trkpt>
<trkpt lat="46.360391434282064" lon="6.186512326821685"><ele></ele><time>2013-7-29T4:36:48Z</time></trkpt>
<trkpt lat="46.360215498134494" lon="6.1864532344043255"><ele></ele><time>2013-7-29T4:36:51Z</time></trkpt>
<trkpt lat="46.36004073545337" lon="6.186397327110171"><ele></ele><time>2013-7-29T4:36:54Z</time></trkpt>
<trkpt lat="46.35978617705405" lon="6.1863133404403925"><ele></ele><time>2013-7-29T4:36:57Z</time></trkpt>
<trkpt lat="46.359703950583935" lon="6.186281740665436"><ele></ele><time>2013-7-29T4:37:0Z</time></trkpt>
<trkpt lat="46.35962080210447" lon="6.186250476166606"><ele></ele><time>2013-7-29T4:37:3Z</time></trkpt>
<trkpt lat="46.359533462673426" lon="6.1862238217145205"><ele></ele><time>2013-7-29T4:37:6Z</time></trkpt>
<trkpt lat="46.35944603942335" lon="6.186196496710181"><ele></ele><time>2013-7-29T4:37:9Z</time></trkpt>
<trkpt lat="46.35883290320635" lon="6.18604201823473"><ele></ele><time>2013-7-29T4:37:12Z</time></trkpt>
<trkpt lat="46.35874757543206" lon="6.186028523370624"><ele></ele><time>2013-7-29T4:37:15Z</time></trkpt>
<trkpt lat="46.35814927518368" lon="6.18600589223206"><ele></ele><time>2013-7-29T4:37:18Z</time></trkpt>
<trkpt lat="46.35766161605716" lon="6.186133045703173"><ele></ele><time>2013-7-29T4:37:21Z</time></trkpt>
<trkpt lat="46.3574212230742" lon="6.186254918575287"><ele></ele><time>2013-7-29T4:37:24Z</time></trkpt>
<trkpt lat="46.35734444484115" lon="6.186303198337555"><ele></ele><time>2013-7-29T4:37:27Z</time></trkpt>
<trkpt lat="46.357267163693905" lon="6.186360027641058"><ele></ele><time>2013-7-29T4:37:30Z</time></trkpt>
<trkpt lat="46.35719373822212" lon="6.186421634629369"><ele></ele><time>2013-7-29T4:37:33Z</time></trkpt>
<trkpt lat="46.35711855255067" lon="6.186494138091803"><ele></ele><time>2013-7-29T4:37:36Z</time></trkpt>
<trkpt lat="46.35683826170862" lon="6.186799742281437"><ele></ele><time>2013-7-29T4:37:39Z</time></trkpt>
<trkpt lat="46.35677237994969" lon="6.186884650960565"><ele></ele><time>2013-7-29T4:37:42Z</time></trkpt>
<trkpt lat="46.356706749647856" lon="6.186973666772246"><ele></ele><time>2013-7-29T4:37:45Z</time></trkpt>
<trkpt lat="46.35664287954569" lon="6.187064694240689"><ele></ele><time>2013-7-29T4:37:48Z</time></trkpt>
<trkpt lat="46.35657750070095" lon="6.187160080298781"><ele></ele><time>2013-7-29T4:37:51Z</time></trkpt>
<trkpt lat="46.35634255595505" lon="6.187538858503103"><ele></ele><time>2013-7-29T4:37:54Z</time></trkpt>
<trkpt lat="46.35628782212734" lon="6.187631478533149"><ele></ele><time>2013-7-29T4:37:57Z</time></trkpt>
<trkpt lat="46.356228813529015" lon="6.1877284571528435"><ele></ele><time>2013-7-29T4:38:0Z</time></trkpt>
<trkpt lat="46.356185814365745" lon="6.187849240377545"><ele></ele><time>2013-7-29T4:38:3Z</time></trkpt>
<trkpt lat="46.35614449158311" lon="6.18796281516552"><ele></ele><time>2013-7-29T4:38:6Z</time></trkpt>
<trkpt lat="46.35609176941216" lon="6.188066331669688"><ele></ele><time>2013-7-29T4:38:9Z</time></trkpt>
<trkpt lat="46.35601758956909" lon="6.188142104074359"><ele></ele><time>2013-7-29T4:38:12Z</time></trkpt>
<trkpt lat="46.355923879891634" lon="6.1881716921925545"><ele></ele><time>2013-7-29T4:38:15Z</time></trkpt>
<trkpt lat="46.35582497343421" lon="6.188153252005577"><ele></ele><time>2013-7-29T4:38:18Z</time></trkpt>
<trkpt lat="46.35574299842119" lon="6.188100194558501"><ele></ele><time>2013-7-29T4:38:21Z</time></trkpt>
<trkpt lat="46.355677703395486" lon="6.188025092706084"><ele></ele><time>2013-7-29T4:38:24Z</time></trkpt>
<trkpt lat="46.35554979555309" lon="6.187859969213605"><ele></ele><time>2013-7-29T4:38:27Z</time></trkpt>
<trkpt lat="46.35520496405661" lon="6.187500134110451"><ele></ele><time>2013-7-29T4:38:30Z</time></trkpt>
<trkpt lat="46.35512818582356" lon="6.187430815771222"><ele></ele><time>2013-7-29T4:38:33Z</time></trkpt>
<trkpt lat="46.354679418727756" lon="6.187050612643361"><ele></ele><time>2013-7-29T4:38:36Z</time></trkpt>
<trkpt lat="46.35430784896016" lon="6.186743080615997"><ele></ele><time>2013-7-29T4:38:39Z</time></trkpt>
<trkpt lat="46.353981122374535" lon="6.186524648219347"><ele></ele><time>2013-7-29T4:38:42Z</time></trkpt>
<trkpt lat="46.353901075199246" lon="6.186546022072434"><ele></ele><time>2013-7-29T4:38:45Z</time></trkpt>
<trkpt lat="46.3538309186697" lon="6.186607209965587"><ele></ele><time>2013-7-29T4:38:48Z</time></trkpt>
<trkpt lat="46.35376486927271" lon="6.1866820603609085"><ele></ele><time>2013-7-29T4:38:51Z</time></trkpt>
<trkpt lat="46.35374081321061" lon="6.186800329014659"><ele></ele><time>2013-7-29T4:38:54Z</time></trkpt>
<trkpt lat="46.3537066988647" lon="6.186888590455055"><ele></ele><time>2013-7-29T4:38:57Z</time></trkpt>
<trkpt lat="46.35362916626036" lon="6.186986239627004"><ele></ele><time>2013-7-29T4:39:0Z</time></trkpt>
<trkpt lat="46.353559009730816" lon="6.186974085867405"><ele></ele><time>2013-7-29T4:39:3Z</time></trkpt>
<trkpt lat="46.35348843410611" lon="6.186963859945536"><ele></ele><time>2013-7-29T4:39:6Z</time></trkpt>
<trkpt lat="46.35344325564802" lon="6.186898481100798"><ele></ele><time>2013-7-29T4:39:9Z</time></trkpt>
<trkpt lat="46.35339899919927" lon="6.186820110306144"><ele></ele><time>2013-7-29T4:39:12Z</time></trkpt>
<trkpt lat="46.35334971360862" lon="6.186733357608318"><ele></ele><time>2013-7-29T4:39:15Z</time></trkpt>
<trkpt lat="46.35313999839127" lon="6.186302024871111"><ele></ele><time>2013-7-29T4:39:18Z</time></trkpt>
<trkpt lat="46.353013180196285" lon="6.18576399050653"><ele></ele><time>2013-7-29T4:39:21Z</time></trkpt>
<trkpt lat="46.35285912081599" lon="6.1849750857800245"><ele></ele><time>2013-7-29T4:39:24Z</time></trkpt>
<trkpt lat="46.35279047302902" lon="6.184772327542305"><ele></ele><time>2013-7-29T4:39:27Z</time></trkpt>
<trkpt lat="46.35267438367009" lon="6.1846384685486555"><ele></ele><time>2013-7-29T4:39:30Z</time></trkpt>
<trkpt lat="46.35244698263705" lon="6.184514248743653"><ele></ele><time>2013-7-29T4:39:33Z</time></trkpt>
<trkpt lat="46.352372551336884" lon="6.184474267065525"><ele></ele><time>2013-7-29T4:39:36Z</time></trkpt>
<trkpt lat="46.35229552164674" lon="6.184416515752673"><ele></ele><time>2013-7-29T4:39:39Z</time></trkpt>
<trkpt lat="46.35210793465376" lon="6.1842526495456696"><ele></ele><time>2013-7-29T4:39:42Z</time></trkpt>
<trkpt lat="46.35184398852289" lon="6.1840002704411745"><ele></ele><time>2013-7-29T4:39:45Z</time></trkpt>
<trkpt lat="46.35179394856095" lon="6.183947715908289"><ele></ele><time>2013-7-29T4:39:48Z</time></trkpt>
<trkpt lat="46.35164139792323" lon="6.1837944108992815"><ele></ele><time>2013-7-29T4:39:51Z</time></trkpt>
<trkpt lat="46.351496474817395" lon="6.18364286608994"><ele></ele><time>2013-7-29T4:39:54Z</time></trkpt>
<trkpt lat="46.351446183398366" lon="6.183592239394784"><ele></ele><time>2013-7-29T4:39:57Z</time></trkpt>
<trkpt lat="46.351393293589354" lon="6.1835432052612305"><ele></ele><time>2013-7-29T4:40:0Z</time></trkpt>
<trkpt lat="46.35134023614228" lon="6.183491488918662"><ele></ele><time>2013-7-29T4:40:3Z</time></trkpt>
<trkpt lat="46.3512908667326" lon="6.18344203568995"><ele></ele><time>2013-7-29T4:40:6Z</time></trkpt>
<trkpt lat="46.350972689688206" lon="6.183170881122351"><ele></ele><time>2013-7-29T4:40:9Z</time></trkpt>
<trkpt lat="46.350595001131296" lon="6.18283174932003"><ele></ele><time>2013-7-29T4:40:12Z</time></trkpt>
<trkpt lat="46.35027221404016" lon="6.182509632781148"><ele></ele><time>2013-7-29T4:40:15Z</time></trkpt>
<trkpt lat="46.35005436837673" lon="6.182282231748104"><ele></ele><time>2013-7-29T4:40:18Z</time></trkpt>
<trkpt lat="46.3499868940562" lon="6.18221995420754"><ele></ele><time>2013-7-29T4:40:21Z</time></trkpt>
<trkpt lat="46.349931405857205" lon="6.182165807113051"><ele></ele><time>2013-7-29T4:40:24Z</time></trkpt>
<trkpt lat="46.34987725876272" lon="6.182116186246276"><ele></ele><time>2013-7-29T4:40:27Z</time></trkpt>
<trkpt lat="46.3498143106699" lon="6.182071091607213"><ele></ele><time>2013-7-29T4:40:30Z</time></trkpt>
<trkpt lat="46.349557572975755" lon="6.181876128539443"><ele></ele><time>2013-7-29T4:40:33Z</time></trkpt>
<trkpt lat="46.349203269928694" lon="6.181560130789876"><ele></ele><time>2013-7-29T4:40:36Z</time></trkpt>
<trkpt lat="46.34884821251035" lon="6.181295430287719"><ele></ele><time>2013-7-29T4:40:39Z</time></trkpt>
<trkpt lat="46.34879079647362" lon="6.1812445521354675"><ele></ele><time>2013-7-29T4:40:42Z</time></trkpt>
<trkpt lat="46.348582841455936" lon="6.181080769747496"><ele></ele><time>2013-7-29T4:40:45Z</time></trkpt>
<trkpt lat="46.34814421646297" lon="6.180699812248349"><ele></ele><time>2013-7-29T4:40:48Z</time></trkpt>
<trkpt lat="46.347648007795215" lon="6.180135793983936"><ele></ele><time>2013-7-29T4:40:51Z</time></trkpt>
<trkpt lat="46.34734198451042" lon="6.179591808468103"><ele></ele><time>2013-7-29T4:40:54Z</time></trkpt>
<trkpt lat="46.34720426984131" lon="6.179172629490495"><ele></ele><time>2013-7-29T4:40:57Z</time></trkpt>
<trkpt lat="46.34717191569507" lon="6.1790696159005165"><ele></ele><time>2013-7-29T4:41:0Z</time></trkpt>
<trkpt lat="46.34713562205434" lon="6.178970038890839"><ele></ele><time>2013-7-29T4:41:3Z</time></trkpt>
<trkpt lat="46.34710435755551" lon="6.178868617862463"><ele></ele><time>2013-7-29T4:41:6Z</time></trkpt>
<trkpt lat="46.347069991752505" lon="6.178768957033753"><ele></ele><time>2013-7-29T4:41:9Z</time></trkpt>
<trkpt lat="46.34687569923699" lon="6.17818146944046"><ele></ele><time>2013-7-29T4:41:12Z</time></trkpt>
<trkpt lat="46.346745947375894" lon="6.177801936864853"><ele></ele><time>2013-7-29T4:41:15Z</time></trkpt>
<trkpt lat="46.34670412167907" lon="6.177719626575708"><ele></ele><time>2013-7-29T4:41:18Z</time></trkpt>
<trkpt lat="46.34666204452515" lon="6.177643099799752"><ele></ele><time>2013-7-29T4:41:21Z</time></trkpt>
<trkpt lat="46.346615608781576" lon="6.17757068015635"><ele></ele><time>2013-7-29T4:41:24Z</time></trkpt>
<trkpt lat="46.346565736457705" lon="6.177499769255519"><ele></ele><time>2013-7-29T4:41:27Z</time></trkpt>
<trkpt lat="46.34626314975321" lon="6.177102215588093"><ele></ele><time>2013-7-29T4:41:30Z</time></trkpt>
<trkpt lat="46.34582385420799" lon="6.176557224243879"><ele></ele><time>2013-7-29T4:41:33Z</time></trkpt>
<trkpt lat="46.34576350450516" lon="6.17650936357677"><ele></ele><time>2013-7-29T4:41:36Z</time></trkpt>
<trkpt lat="46.34568387642503" lon="6.176504082977772"><ele></ele><time>2013-7-29T4:41:39Z</time></trkpt>
<trkpt lat="46.3456042483449" lon="6.176550518721342"><ele></ele><time>2013-7-29T4:41:42Z</time></trkpt>
<trkpt lat="46.345528392121196" lon="6.176623189821839"><ele></ele><time>2013-7-29T4:41:45Z</time></trkpt>
<trkpt lat="46.34539327584207" lon="6.176818571984768"><ele></ele><time>2013-7-29T4:41:48Z</time></trkpt>
<trkpt lat="46.34533409960568" lon="6.176930218935013"><ele></ele><time>2013-7-29T4:41:51Z</time></trkpt>
<trkpt lat="46.34528070688248" lon="6.177045302465558"><ele></ele><time>2013-7-29T4:41:54Z</time></trkpt>
<trkpt lat="46.34522647596896" lon="6.177158877253532"><ele></ele><time>2013-7-29T4:41:57Z</time></trkpt>
<trkpt lat="46.34517886675894" lon="6.177269015461206"><ele></ele><time>2013-7-29T4:42:0Z</time></trkpt>
<trkpt lat="46.345020197331905" lon="6.177545869722962"><ele></ele><time>2013-7-29T4:42:3Z</time></trkpt>
<trkpt lat="46.344954231753945" lon="6.177578559145331"><ele></ele><time>2013-7-29T4:42:6Z</time></trkpt>
<trkpt lat="46.34471115656197" lon="6.177568752318621"><ele></ele><time>2013-7-29T4:42:9Z</time></trkpt>
<trkpt lat="46.34412023238838" lon="6.177613008767366"><ele></ele><time>2013-7-29T4:42:12Z</time></trkpt>
<trkpt lat="46.343549927696586" lon="6.177679309621453"><ele></ele><time>2013-7-29T4:42:15Z</time></trkpt>
<trkpt lat="46.34331372566521" lon="6.177671095356345"><ele></ele><time>2013-7-29T4:42:18Z</time></trkpt>
<trkpt lat="46.34324138984084" lon="6.177627258002758"><ele></ele><time>2013-7-29T4:42:21Z</time></trkpt>
<trkpt lat="46.34281391277909" lon="6.177365826442838"><ele></ele><time>2013-7-29T4:42:24Z</time></trkpt>
<trkpt lat="46.34241744875908" lon="6.177041195333004"><ele></ele><time>2013-7-29T4:42:27Z</time></trkpt>
<trkpt lat="46.342295575886965" lon="6.176902307197452"><ele></ele><time>2013-7-29T4:42:30Z</time></trkpt>
<trkpt lat="46.34213053621352" lon="6.176676582545042"><ele></ele><time>2013-7-29T4:42:33Z</time></trkpt>
<trkpt lat="46.34193532168865" lon="6.17650693282485"><ele></ele><time>2013-7-29T4:42:36Z</time></trkpt>
<trkpt lat="46.34159459732473" lon="6.176237119361758"><ele></ele><time>2013-7-29T4:42:39Z</time></trkpt>
<trkpt lat="46.34116510860622" lon="6.175933610647917"><ele></ele><time>2013-7-29T4:42:42Z</time></trkpt>
<trkpt lat="46.34109377861023" lon="6.175883738324046"><ele></ele><time>2013-7-29T4:42:45Z</time></trkpt>
<trkpt lat="46.34101708419621" lon="6.175828669220209"><ele></ele><time>2013-7-29T4:42:48Z</time></trkpt>
<trkpt lat="46.34094374254346" lon="6.175770666450262"><ele></ele><time>2013-7-29T4:42:51Z</time></trkpt>
<trkpt lat="46.34086755104363" lon="6.175708808004856"><ele></ele><time>2013-7-29T4:42:54Z</time></trkpt>
<trkpt lat="46.340706115588546" lon="6.175585174933076"><ele></ele><time>2013-7-29T4:42:57Z</time></trkpt>
<trkpt lat="46.34062414057553" lon="6.175525411963463"><ele></ele><time>2013-7-29T4:43:0Z</time></trkpt>
<trkpt lat="46.34054459631443" lon="6.17546321824193"><ele></ele><time>2013-7-29T4:43:3Z</time></trkpt>
<trkpt lat="46.34046396240592" lon="6.175405718386173"><ele></ele><time>2013-7-29T4:43:6Z</time></trkpt>
<trkpt lat="46.34037788026035" lon="6.175346123054624"><ele></ele><time>2013-7-29T4:43:9Z</time></trkpt>
<trkpt lat="46.34030713699758" lon="6.175296921283007"><ele></ele><time>2013-7-29T4:43:12Z</time></trkpt>
<trkpt lat="46.340239914134145" lon="6.175282588228583"><ele></ele><time>2013-7-29T4:43:15Z</time></trkpt>
<trkpt lat="46.34016891941428" lon="6.175312763080001"><ele></ele><time>2013-7-29T4:43:18Z</time></trkpt>
<trkpt lat="46.34010530076921" lon="6.175382332876325"><ele></ele><time>2013-7-29T4:43:21Z</time></trkpt>
<trkpt lat="46.34005350060761" lon="6.1754716001451015"><ele></ele><time>2013-7-29T4:43:24Z</time></trkpt>
<trkpt lat="46.3400072325021" lon="6.175569584593177"><ele></ele><time>2013-7-29T4:43:27Z</time></trkpt>
<trkpt lat="46.33995618671179" lon="6.175670754164457"><ele></ele><time>2013-7-29T4:43:30Z</time></trkpt>
<trkpt lat="46.3399004470557" lon="6.175757423043251"><ele></ele><time>2013-7-29T4:43:33Z</time></trkpt>
<trkpt lat="46.33983573876321" lon="6.175824226811528"><ele></ele><time>2013-7-29T4:43:36Z</time></trkpt>
<trkpt lat="46.33959501050413" lon="6.1758792120963335"><ele></ele><time>2013-7-29T4:43:39Z</time></trkpt>
<trkpt lat="46.33939677849412" lon="6.175740575417876"><ele></ele><time>2013-7-29T4:43:42Z</time></trkpt>
<trkpt lat="46.339279264211655" lon="6.175657343119383"><ele></ele><time>2013-7-29T4:43:45Z</time></trkpt>
<trkpt lat="46.339162923395634" lon="6.175611326470971"><ele></ele><time>2013-7-29T4:43:48Z</time></trkpt>
<trkpt lat="46.33892077021301" lon="6.175529602915049"><ele></ele><time>2013-7-29T4:43:51Z</time></trkpt>
<trkpt lat="46.338877100497484" lon="6.175503870472312"><ele></ele><time>2013-7-29T4:43:54Z</time></trkpt>
<trkpt lat="46.33882999420166" lon="6.175478557124734"><ele></ele><time>2013-7-29T4:43:57Z</time></trkpt>
<trkpt lat="46.33878540247679" lon="6.175452740862966"><ele></ele><time>2013-7-29T4:44:0Z</time></trkpt>
<trkpt lat="46.338736368343234" lon="6.175431534647942"><ele></ele><time>2013-7-29T4:44:3Z</time></trkpt>
<trkpt lat="46.338691944256425" lon="6.175402365624905"><ele></ele><time>2013-7-29T4:44:6Z</time></trkpt>
<trkpt lat="46.33864475414157" lon="6.175365317612886"><ele></ele><time>2013-7-29T4:44:9Z</time></trkpt>
<trkpt lat="46.3384585082531" lon="6.1752198077738285"><ele></ele><time>2013-7-29T4:44:12Z</time></trkpt>
<trkpt lat="46.338308807462454" lon="6.1750575341284275"><ele></ele><time>2013-7-29T4:44:15Z</time></trkpt>
<trkpt lat="46.33796255104244" lon="6.174606587737799"><ele></ele><time>2013-7-29T4:44:18Z</time></trkpt>
<trkpt lat="46.33762199431658" lon="6.1742162425071"><ele></ele><time>2013-7-29T4:44:21Z</time></trkpt>
<trkpt lat="46.337424432858825" lon="6.174007868394256"><ele></ele><time>2013-7-29T4:44:24Z</time></trkpt>
<trkpt lat="46.33730842731893" lon="6.173901250585914"><ele></ele><time>2013-7-29T4:44:27Z</time></trkpt>
<trkpt lat="46.337014054879546" lon="6.173561699688435"><ele></ele><time>2013-7-29T4:44:30Z</time></trkpt>
<trkpt lat="46.33695999160409" lon="6.173472097143531"><ele></ele><time>2013-7-29T4:44:33Z</time></trkpt>
<trkpt lat="46.33678841404617" lon="6.173195410519838"><ele></ele><time>2013-7-29T4:44:36Z</time></trkpt>
<trkpt lat="46.336708618327975" lon="6.173117458820343"><ele></ele><time>2013-7-29T4:44:39Z</time></trkpt>
<trkpt lat="46.33663401938975" lon="6.173042943701148"><ele></ele><time>2013-7-29T4:44:42Z</time></trkpt>
<trkpt lat="46.336558163166046" lon="6.172965662553906"><ele></ele><time>2013-7-29T4:44:45Z</time></trkpt>
<trkpt lat="46.336475098505616" lon="6.172886285930872"><ele></ele><time>2013-7-29T4:44:48Z</time></trkpt>
<trkpt lat="46.33623965084553" lon="6.172668356448412"><ele></ele><time>2013-7-29T4:44:51Z</time></trkpt>
<trkpt lat="46.335932621732354" lon="6.172425029799342"><ele></ele><time>2013-7-29T4:44:54Z</time></trkpt>
<trkpt lat="46.3358558434993" lon="6.1723757442086935"><ele></ele><time>2013-7-29T4:44:57Z</time></trkpt>
<trkpt lat="46.335776299238205" lon="6.172335930168629"><ele></ele><time>2013-7-29T4:45:0Z</time></trkpt>
<trkpt lat="46.335696168243885" lon="6.172296367585659"><ele></ele><time>2013-7-29T4:45:3Z</time></trkpt>
<trkpt lat="46.33561788126826" lon="6.172254793345928"><ele></ele><time>2013-7-29T4:45:6Z</time></trkpt>
<trkpt lat="46.33515729568899" lon="6.172011466696858"><ele></ele><time>2013-7-29T4:45:9Z</time></trkpt>
<trkpt lat="46.33476594462991" lon="6.171738971024752"><ele></ele><time>2013-7-29T4:45:12Z</time></trkpt>
<trkpt lat="46.334599647670984" lon="6.171745005995035"><ele></ele><time>2013-7-29T4:45:15Z</time></trkpt>
<trkpt lat="46.334506860002875" lon="6.171948937699199"><ele></ele><time>2013-7-29T4:45:18Z</time></trkpt>
<trkpt lat="46.334406696259975" lon="6.172098973765969"><ele></ele><time>2013-7-29T4:45:21Z</time></trkpt>
<trkpt lat="46.3342949654907" lon="6.172289410606027"><ele></ele><time>2013-7-29T4:45:24Z</time></trkpt>
<trkpt lat="46.33422698825598" lon="6.172370882704854"><ele></ele><time>2013-7-29T4:45:27Z</time></trkpt>
<trkpt lat="46.3341620285064" lon="6.172448415309191"><ele></ele><time>2013-7-29T4:45:30Z</time></trkpt>
<trkpt lat="46.33409128524363" lon="6.17251924239099"><ele></ele><time>2013-7-29T4:45:33Z</time></trkpt>
<trkpt lat="46.33401467464864" lon="6.172581687569618"><ele></ele><time>2013-7-29T4:45:36Z</time></trkpt>
<trkpt lat="46.33376816287637" lon="6.172743374481797"><ele></ele><time>2013-7-29T4:45:39Z</time></trkpt>
<trkpt lat="46.33359155617654" lon="6.172838173806667"><ele></ele><time>2013-7-29T4:45:42Z</time></trkpt>
<trkpt lat="46.333064921200275" lon="6.1730271857231855"><ele></ele><time>2013-7-29T4:45:45Z</time></trkpt>
<trkpt lat="46.33274079300463" lon="6.173184514045715"><ele></ele><time>2013-7-29T4:45:48Z</time></trkpt>
<trkpt lat="46.3325974624604" lon="6.1733184568583965"><ele></ele><time>2013-7-29T4:45:51Z</time></trkpt>
<trkpt lat="46.332354890182614" lon="6.1736727599054575"><ele></ele><time>2013-7-29T4:45:54Z</time></trkpt>
<trkpt lat="46.33196957409382" lon="6.174324285238981"><ele></ele><time>2013-7-29T4:45:57Z</time></trkpt>
<trkpt lat="46.33191014640033" lon="6.17441413924098"><ele></ele><time>2013-7-29T4:46:0Z</time></trkpt>
<trkpt lat="46.33185189217329" lon="6.174507010728121"><ele></ele><time>2013-7-29T4:46:3Z</time></trkpt>
<trkpt lat="46.33179045282304" lon="6.174597451463342"><ele></ele><time>2013-7-29T4:46:6Z</time></trkpt>
<trkpt lat="46.33172834292054" lon="6.17469166405499"><ele></ele><time>2013-7-29T4:46:9Z</time></trkpt>
<trkpt lat="46.33166799321771" lon="6.174791324883699"><ele></ele><time>2013-7-29T4:46:12Z</time></trkpt>
<trkpt lat="46.33155031129718" lon="6.174986371770501"><ele></ele><time>2013-7-29T4:46:15Z</time></trkpt>
<trkpt lat="46.33139641955495" lon="6.175110675394535"><ele></ele><time>2013-7-29T4:46:18Z</time></trkpt>
<trkpt lat="46.331301871687174" lon="6.175103802233934"><ele></ele><time>2013-7-29T4:46:21Z</time></trkpt>
<trkpt lat="46.3308444712311" lon="6.175091648474336"><ele></ele><time>2013-7-29T4:46:24Z</time></trkpt>
<trkpt lat="46.330750258639455" lon="6.175092486664653"><ele></ele><time>2013-7-29T4:46:27Z</time></trkpt>
<trkpt lat="46.33065906353295" lon="6.175094917416573"><ele></ele><time>2013-7-29T4:46:30Z</time></trkpt>
<trkpt lat="46.33056912571192" lon="6.175103886052966"><ele></ele><time>2013-7-29T4:46:33Z</time></trkpt>
<trkpt lat="46.3304752483964" lon="6.17511042393744"><ele></ele><time>2013-7-29T4:46:36Z</time></trkpt>
<trkpt lat="46.330296294763684" lon="6.175125930458307"><ele></ele><time>2013-7-29T4:46:39Z</time></trkpt>
<trkpt lat="46.32977016270161" lon="6.175111681222916"><ele></ele><time>2013-7-29T4:46:42Z</time></trkpt>
<trkpt lat="46.329686092212796" lon="6.175107825547457"><ele></ele><time>2013-7-29T4:46:45Z</time></trkpt>
<trkpt lat="46.3296062964946" lon="6.1750872898846865"><ele></ele><time>2013-7-29T4:46:48Z</time></trkpt>
<trkpt lat="46.32938090711832" lon="6.174997435882688"><ele></ele><time>2013-7-29T4:46:51Z</time></trkpt>
<trkpt lat="46.32922802120447" lon="6.17493205703795"><ele></ele><time>2013-7-29T4:46:54Z</time></trkpt>
<trkpt lat="46.329002883285284" lon="6.174834407866001"><ele></ele><time>2013-7-29T4:46:57Z</time></trkpt>
<trkpt lat="46.32877950556576" lon="6.1747463978827"><ele></ele><time>2013-7-29T4:47:0Z</time></trkpt>
<trkpt lat="46.32822621613741" lon="6.174537939950824"><ele></ele><time>2013-7-29T4:47:3Z</time></trkpt>
<trkpt lat="46.32813275791705" lon="6.174546824768186"><ele></ele><time>2013-7-29T4:47:6Z</time></trkpt>
<trkpt lat="46.32795958779752" lon="6.174604073166847"><ele></ele><time>2013-7-29T4:47:9Z</time></trkpt>
<trkpt lat="46.32787333801389" lon="6.174657046794891"><ele></ele><time>2013-7-29T4:47:12Z</time></trkpt>
<trkpt lat="46.32779220119119" lon="6.174720665439963"><ele></ele><time>2013-7-29T4:47:15Z</time></trkpt>
<trkpt lat="46.32771500386298" lon="6.17479233071208"><ele></ele><time>2013-7-29T4:47:18Z</time></trkpt>
<trkpt lat="46.3276397343725" lon="6.174866845831275"><ele></ele><time>2013-7-29T4:47:21Z</time></trkpt>
<trkpt lat="46.327566811814904" lon="6.174939265474677"><ele></ele><time>2013-7-29T4:47:24Z</time></trkpt>
<trkpt lat="46.32733907550573" lon="6.175148729234934"><ele></ele><time>2013-7-29T4:47:27Z</time></trkpt>
<trkpt lat="46.32725307717919" lon="6.175185441970825"><ele></ele><time>2013-7-29T4:47:30Z</time></trkpt>
<trkpt lat="46.3268315512687" lon="6.175347212702036"><ele></ele><time>2013-7-29T4:47:33Z</time></trkpt>
<trkpt lat="46.326665338128805" lon="6.175407143309712"><ele></ele><time>2013-7-29T4:47:36Z</time></trkpt>
<trkpt lat="46.326583279296756" lon="6.175436312332749"><ele></ele><time>2013-7-29T4:47:39Z</time></trkpt>
<trkpt lat="46.32649694569409" lon="6.175464810803533"><ele></ele><time>2013-7-29T4:47:42Z</time></trkpt>
<trkpt lat="46.32641036063433" lon="6.175498338416219"><ele></ele><time>2013-7-29T4:47:45Z</time></trkpt>
<trkpt lat="46.32632603868842" lon="6.175552569329739"><ele></ele><time>2013-7-29T4:47:48Z</time></trkpt>
<trkpt lat="46.326164016500115" lon="6.175662539899349"><ele></ele><time>2013-7-29T4:47:51Z</time></trkpt>
<trkpt lat="46.32608765736222" lon="6.175728086382151"><ele></ele><time>2013-7-29T4:47:54Z</time></trkpt>
<trkpt lat="46.32601372897625" lon="6.175800170749426"><ele></ele><time>2013-7-29T4:47:57Z</time></trkpt>
<trkpt lat="46.3259403873235" lon="6.1758751049637794"><ele></ele><time>2013-7-29T4:48:0Z</time></trkpt>
<trkpt lat="46.32587241008878" lon="6.175952637568116"><ele></ele><time>2013-7-29T4:48:3Z</time></trkpt>
<trkpt lat="46.32580476813018" lon="6.176032768562436"><ele></ele><time>2013-7-29T4:48:6Z</time></trkpt>
<trkpt lat="46.32532808929682" lon="6.176554625853896"><ele></ele><time>2013-7-29T4:48:9Z</time></trkpt>
<trkpt lat="46.32492173463106" lon="6.1769400257617235"><ele></ele><time>2013-7-29T4:48:12Z</time></trkpt>
<trkpt lat="46.32450926117599" lon="6.177437240257859"><ele></ele><time>2013-7-29T4:48:15Z</time></trkpt>
<trkpt lat="46.32438168860972" lon="6.177554000169039"><ele></ele><time>2013-7-29T4:48:18Z</time></trkpt>
<trkpt lat="46.324069295078516" lon="6.177662713453174"><ele></ele><time>2013-7-29T4:48:21Z</time></trkpt>
<trkpt lat="46.32398195564747" lon="6.177669754251838"><ele></ele><time>2013-7-29T4:48:24Z</time></trkpt>
<trkpt lat="46.323900651186705" lon="6.177693475037813"><ele></ele><time>2013-7-29T4:48:27Z</time></trkpt>
<trkpt lat="46.32382798008621" lon="6.177750388160348"><ele></ele><time>2013-7-29T4:48:30Z</time></trkpt>
<trkpt lat="46.32377198897302" lon="6.177842086181045"><ele></ele><time>2013-7-29T4:48:33Z</time></trkpt>
<trkpt lat="46.32372957654297" lon="6.1779428366571665"><ele></ele><time>2013-7-29T4:48:36Z</time></trkpt>
<trkpt lat="46.32369118742645" lon="6.1780488677322865"><ele></ele><time>2013-7-29T4:48:39Z</time></trkpt>
<trkpt lat="46.32365271449089" lon="6.178156491369009"><ele></ele><time>2013-7-29T4:48:42Z</time></trkpt>
<trkpt lat="46.32343025878072" lon="6.178816901519895"><ele></ele><time>2013-7-29T4:48:45Z</time></trkpt>
<trkpt lat="46.32323060184717" lon="6.179361892864108"><ele></ele><time>2013-7-29T4:48:48Z</time></trkpt>
<trkpt lat="46.32319489493966" lon="6.179476976394653"><ele></ele><time>2013-7-29T4:48:51Z</time></trkpt>
<trkpt lat="46.323164803907275" lon="6.179601363837719"><ele></ele><time>2013-7-29T4:48:54Z</time></trkpt>
<trkpt lat="46.323144268244505" lon="6.179721895605326"><ele></ele><time>2013-7-29T4:48:57Z</time></trkpt>
<trkpt lat="46.32312465459108" lon="6.179846283048391"><ele></ele><time>2013-7-29T4:49:0Z</time></trkpt>
<trkpt lat="46.32303396239877" lon="6.180342910811305"><ele></ele><time>2013-7-29T4:49:3Z</time></trkpt>
<trkpt lat="46.32290379144251" lon="6.1808190029114485"><ele></ele><time>2013-7-29T4:49:6Z</time></trkpt>
<trkpt lat="46.322868755087256" lon="6.180933332070708"><ele></ele><time>2013-7-29T4:49:9Z</time></trkpt>
<trkpt lat="46.322833970189095" lon="6.181047074496746"><ele></ele><time>2013-7-29T4:49:12Z</time></trkpt>
<trkpt lat="46.322799269109964" lon="6.181160984560847"><ele></ele><time>2013-7-29T4:49:15Z</time></trkpt>
<trkpt lat="46.32276875898242" lon="6.181274224072695"><ele></ele><time>2013-7-29T4:49:18Z</time></trkpt>
<trkpt lat="46.32273548282683" lon="6.181369023397565"><ele></ele><time>2013-7-29T4:49:21Z</time></trkpt>
<trkpt lat="46.32268921472132" lon="6.181444963440299"><ele></ele><time>2013-7-29T4:49:24Z</time></trkpt>
<trkpt lat="46.3226333912462" lon="6.181492656469345"><ele></ele><time>2013-7-29T4:49:27Z</time></trkpt>
<trkpt lat="46.322565246373415" lon="6.1815048940479755"><ele></ele><time>2013-7-29T4:49:30Z</time></trkpt>
<trkpt lat="46.32248972542584" lon="6.181495590135455"><ele></ele><time>2013-7-29T4:49:33Z</time></trkpt>
<trkpt lat="46.32241303101182" lon="6.181471701711416"><ele></ele><time>2013-7-29T4:49:36Z</time></trkpt>
<trkpt lat="46.32233625277877" lon="6.181436665356159"><ele></ele><time>2013-7-29T4:49:39Z</time></trkpt>
<trkpt lat="46.32226559333503" lon="6.181375226005912"><ele></ele><time>2013-7-29T4:49:42Z</time></trkpt>
<trkpt lat="46.32192964665592" lon="6.181109854951501"><ele></ele><time>2013-7-29T4:49:45Z</time></trkpt>
<trkpt lat="46.32185647264123" lon="6.18106828071177"><ele></ele><time>2013-7-29T4:49:48Z</time></trkpt>
<trkpt lat="46.321519603952765" lon="6.180857392027974"><ele></ele><time>2013-7-29T4:49:51Z</time></trkpt>
<trkpt lat="46.321453638374805" lon="6.180819505825639"><ele></ele><time>2013-7-29T4:49:54Z</time></trkpt>
<trkpt lat="46.32112615741789" lon="6.180599397048354"><ele></ele><time>2013-7-29T4:49:57Z</time></trkpt>
<trkpt lat="46.321067065000534" lon="6.180542232468724"><ele></ele><time>2013-7-29T4:50:0Z</time></trkpt>
<trkpt lat="46.320919040590525" lon="6.180320614948869"><ele></ele><time>2013-7-29T4:50:3Z</time></trkpt>
<trkpt lat="46.32075500674546" lon="6.180005287751555"><ele></ele><time>2013-7-29T4:50:6Z</time></trkpt>
<trkpt lat="46.32070907391608" lon="6.17993806488812"><ele></ele><time>2013-7-29T4:50:9Z</time></trkpt>
<trkpt lat="46.32066045887768" lon="6.179882911965251"><ele></ele><time>2013-7-29T4:50:12Z</time></trkpt>
<trkpt lat="46.320610251277685" lon="6.179828429594636"><ele></ele><time>2013-7-29T4:50:15Z</time></trkpt>
<trkpt lat="46.32056976668537" lon="6.179760955274105"><ele></ele><time>2013-7-29T4:50:18Z</time></trkpt>
<trkpt lat="46.32054981775582" lon="6.179669592529535"><ele></ele><time>2013-7-29T4:50:21Z</time></trkpt>
<trkpt lat="46.320540346205235" lon="6.179575212299824"><ele></ele><time>2013-7-29T4:50:24Z</time></trkpt>
<trkpt lat="46.32053389213979" lon="6.179479910060763"><ele></ele><time>2013-7-29T4:50:27Z</time></trkpt>
<trkpt lat="46.32051846943796" lon="6.179091492667794"><ele></ele><time>2013-7-29T4:50:30Z</time></trkpt>
<trkpt lat="46.3204884622246" lon="6.178900636732578"><ele></ele><time>2013-7-29T4:50:33Z</time></trkpt>
<trkpt lat="46.32040246389806" lon="6.178747666999698"><ele></ele><time>2013-7-29T4:50:36Z</time></trkpt>
<trkpt lat="46.320283859968185" lon="6.178636439144611"><ele></ele><time>2013-7-29T4:50:39Z</time></trkpt>
<trkpt lat="46.32008210755885" lon="6.1784744169563055"><ele></ele><time>2013-7-29T4:50:42Z</time></trkpt>
<trkpt lat="46.319775246083736" lon="6.178222456946969"><ele></ele><time>2013-7-29T4:50:45Z</time></trkpt>
<trkpt lat="46.31969125941396" lon="6.178141990676522"><ele></ele><time>2013-7-29T4:50:48Z</time></trkpt>
<trkpt lat="46.31960593163967" lon="6.178063368424773"><ele></ele><time>2013-7-29T4:50:51Z</time></trkpt>
<trkpt lat="46.319512808695436" lon="6.177993798628449"><ele></ele><time>2013-7-29T4:50:54Z</time></trkpt>
<trkpt lat="46.319409208372235" lon="6.177936382591724"><ele></ele><time>2013-7-29T4:50:57Z</time></trkpt>
<trkpt lat="46.31930250674486" lon="6.177895395085216"><ele></ele><time>2013-7-29T4:51:0Z</time></trkpt>
<trkpt lat="46.31919438019395" lon="6.177861951291561"><ele></ele><time>2013-7-29T4:51:3Z</time></trkpt>
<trkpt lat="46.31908533163369" lon="6.177826579660177"><ele></ele><time>2013-7-29T4:51:6Z</time></trkpt>
<trkpt lat="46.318979635834694" lon="6.177786095067859"><ele></ele><time>2013-7-29T4:51:9Z</time></trkpt>
<trkpt lat="46.31887326948345" lon="6.177733121439815"><ele></ele><time>2013-7-29T4:51:12Z</time></trkpt>
<trkpt lat="46.318779811263084" lon="6.177657768130302"><ele></ele><time>2013-7-29T4:51:15Z</time></trkpt>
<trkpt lat="46.3187116663903" lon="6.177581744268537"><ele></ele><time>2013-7-29T4:51:18Z</time></trkpt>
<trkpt lat="46.318665565922856" lon="6.177520724013448"><ele></ele><time>2013-7-29T4:51:21Z</time></trkpt>
<trkpt lat="46.318628350272775" lon="6.1774698458611965"><ele></ele><time>2013-7-29T4:51:24Z</time></trkpt>
<trkpt lat="46.31858501583338" lon="6.177422488108277"><ele></ele><time>2013-7-29T4:51:27Z</time></trkpt>
<trkpt lat="46.31853975355625" lon="6.177377225831151"><ele></ele><time>2013-7-29T4:51:30Z</time></trkpt>
<trkpt lat="46.3184939045459" lon="6.177328443154693"><ele></ele><time>2013-7-29T4:51:33Z</time></trkpt>
<trkpt lat="46.318447552621365" lon="6.177279744297266"><ele></ele><time>2013-7-29T4:51:36Z</time></trkpt>
<trkpt lat="46.318401703611016" lon="6.177230291068554"><ele></ele><time>2013-7-29T4:51:39Z</time></trkpt>
<trkpt lat="46.31821093149483" lon="6.17703365162015"><ele></ele><time>2013-7-29T4:51:42Z</time></trkpt>
<trkpt lat="46.31816642358899" lon="6.176985707134008"><ele></ele><time>2013-7-29T4:51:45Z</time></trkpt>
<trkpt lat="46.31812082603574" lon="6.176937343552709"><ele></ele><time>2013-7-29T4:51:48Z</time></trkpt>
<trkpt lat="46.3180710375309" lon="6.176885459572077"><ele></ele><time>2013-7-29T4:51:51Z</time></trkpt>
<trkpt lat="46.31802376359701" lon="6.176837766543031"><ele></ele><time>2013-7-29T4:51:54Z</time></trkpt>
<trkpt lat="46.31774473004043" lon="6.176550351083279"><ele></ele><time>2013-7-29T4:51:57Z</time></trkpt>
<trkpt lat="46.31768614053726" lon="6.176507603377104"><ele></ele><time>2013-7-29T4:52:0Z</time></trkpt>
<trkpt lat="46.317563597112894" lon="6.176421772688627"><ele></ele><time>2013-7-29T4:52:3Z</time></trkpt>
<trkpt lat="46.31750710308552" lon="6.17637793533504"><ele></ele><time>2013-7-29T4:52:6Z</time></trkpt>
<trkpt lat="46.317456644028425" lon="6.1763327568769455"><ele></ele><time>2013-7-29T4:52:9Z</time></trkpt>
<trkpt lat="46.31740836426616" lon="6.176287662237883"><ele></ele><time>2013-7-29T4:52:12Z</time></trkpt>
<trkpt lat="46.317360838875175" lon="6.176240807399154"><ele></ele><time>2013-7-29T4:52:15Z</time></trkpt>
<trkpt lat="46.31731431931257" lon="6.1761893425136805"><ele></ele><time>2013-7-29T4:52:18Z</time></trkpt>
<trkpt lat="46.31722270511091" lon="6.176098063588142"><ele></ele><time>2013-7-29T4:52:21Z</time></trkpt>
<trkpt lat="46.317069651558995" lon="6.175972167402506"><ele></ele><time>2013-7-29T4:52:24Z</time></trkpt>
<trkpt lat="46.31701466627419" lon="6.1759313475340605"><ele></ele><time>2013-7-29T4:52:27Z</time></trkpt>
<trkpt lat="46.31695657968521" lon="6.175888851284981"><ele></ele><time>2013-7-29T4:52:30Z</time></trkpt>
<trkpt lat="46.31689530797303" lon="6.17584484629333"><ele></ele><time>2013-7-29T4:52:33Z</time></trkpt>
<trkpt lat="46.31684065796435" lon="6.17580084130168"><ele></ele><time>2013-7-29T4:52:36Z</time></trkpt>
<trkpt lat="46.31668081507087" lon="6.175664886832237"><ele></ele><time>2013-7-29T4:52:39Z</time></trkpt>
<trkpt lat="46.3162921462208" lon="6.1753317900002"><ele></ele><time>2013-7-29T4:52:42Z</time></trkpt>
<trkpt lat="46.31623330526054" lon="6.17528485134244"><ele></ele><time>2013-7-29T4:52:45Z</time></trkpt>
<trkpt lat="46.316173458471894" lon="6.175238415598869"><ele></ele><time>2013-7-29T4:52:48Z</time></trkpt>
<trkpt lat="46.31611218675971" lon="6.175188543274999"><ele></ele><time>2013-7-29T4:52:51Z</time></trkpt>
<trkpt lat="46.316056279465556" lon="6.175138335675001"><ele></ele><time>2013-7-29T4:52:54Z</time></trkpt>
<trkpt lat="46.31577263586223" lon="6.174906324595213"><ele></ele><time>2013-7-29T4:52:57Z</time></trkpt>
<trkpt lat="46.31560005247593" lon="6.17476643063128"><ele></ele><time>2013-7-29T4:53:0Z</time></trkpt>
<trkpt lat="46.31555990315974" lon="6.174701889976859"><ele></ele><time>2013-7-29T4:53:3Z</time></trkpt>
<trkpt lat="46.31541975773871" lon="6.17456903681159"><ele></ele><time>2013-7-29T4:53:6Z</time></trkpt>
<trkpt lat="46.31529084406793" lon="6.174536682665348"><ele></ele><time>2013-7-29T4:53:9Z</time></trkpt>
<trkpt lat="46.315226471051574" lon="6.17452553473413"><ele></ele><time>2013-7-29T4:53:12Z</time></trkpt>
<trkpt lat="46.315161511301994" lon="6.174511620774865"><ele></ele><time>2013-7-29T4:53:15Z</time></trkpt>
<trkpt lat="46.315028155222535" lon="6.174483792856336"><ele></ele><time>2013-7-29T4:53:18Z</time></trkpt>
<trkpt lat="46.31474970839918" lon="6.174423443153501"><ele></ele><time>2013-7-29T4:53:21Z</time></trkpt>
<trkpt lat="46.314394399523735" lon="6.174352699890733"><ele></ele><time>2013-7-29T4:53:24Z</time></trkpt>
<trkpt lat="46.31409172900021" lon="6.17429687641561"><ele></ele><time>2013-7-29T4:53:27Z</time></trkpt>
<trkpt lat="46.313868686556816" lon="6.174233928322792"><ele></ele><time>2013-7-29T4:53:30Z</time></trkpt>
<trkpt lat="46.313324281945825" lon="6.17412487976253"><ele></ele><time>2013-7-29T4:53:33Z</time></trkpt>
<trkpt lat="46.31324633024633" lon="6.174110127612948"><ele></ele><time>2013-7-29T4:53:36Z</time></trkpt>
<trkpt lat="46.31269169971347" lon="6.17398900911212"><ele></ele><time>2013-7-29T4:53:39Z</time></trkpt>
<trkpt lat="46.312610395252705" lon="6.173972832038999"><ele></ele><time>2013-7-29T4:53:42Z</time></trkpt>
<trkpt lat="46.31228190846741" lon="6.173907453194261"><ele></ele><time>2013-7-29T4:53:45Z</time></trkpt>
<trkpt lat="46.31219984963536" lon="6.173891946673393"><ele></ele><time>2013-7-29T4:53:48Z</time></trkpt>
<trkpt lat="46.31211762316525" lon="6.17387761361897"><ele></ele><time>2013-7-29T4:53:51Z</time></trkpt>
<trkpt lat="46.312035312876105" lon="6.173861352726817"><ele></ele><time>2013-7-29T4:53:54Z</time></trkpt>
<trkpt lat="46.31144774146378" lon="6.173740737140179"><ele></ele><time>2013-7-29T4:53:57Z</time></trkpt>
<trkpt lat="46.31084768101573" lon="6.173626994714141"><ele></ele><time>2013-7-29T4:54:0Z</time></trkpt>
<trkpt lat="46.31067828275263" lon="6.173597993329167"><ele></ele><time>2013-7-29T4:54:3Z</time></trkpt>
<trkpt lat="46.31027100607753" lon="6.173528088256717"><ele></ele><time>2013-7-29T4:54:6Z</time></trkpt>
<trkpt lat="46.31012289784849" lon="6.173497075214982"><ele></ele><time>2013-7-29T4:54:9Z</time></trkpt>
<trkpt lat="46.310057854279876" lon="6.173481652513146"><ele></ele><time>2013-7-29T4:54:12Z</time></trkpt>
<trkpt lat="46.30999515764415" lon="6.17345935665071"><ele></ele><time>2013-7-29T4:54:15Z</time></trkpt>
<trkpt lat="46.30993849597871" lon="6.1734383180737495"><ele></ele><time>2013-7-29T4:54:18Z</time></trkpt>
<trkpt lat="46.3098787330091" lon="6.173431528732181"><ele></ele><time>2013-7-29T4:54:21Z</time></trkpt>
<trkpt lat="46.309741605073214" lon="6.173437228426337"><ele></ele><time>2013-7-29T4:54:24Z</time></trkpt>
<trkpt lat="46.3096699398011" lon="6.173432786017656"><ele></ele><time>2013-7-29T4:54:27Z</time></trkpt>
<trkpt lat="46.309599950909615" lon="6.173418369144201"><ele></ele><time>2013-7-29T4:54:30Z</time></trkpt>
<trkpt lat="46.30953021347523" lon="6.173397749662399"><ele></ele><time>2013-7-29T4:54:33Z</time></trkpt>
<trkpt lat="46.30945771001279" lon="6.173375537618995"><ele></ele><time>2013-7-29T4:54:36Z</time></trkpt>
<trkpt lat="46.309388894587755" lon="6.173351984471083"><ele></ele><time>2013-7-29T4:54:39Z</time></trkpt>
<trkpt lat="46.30909728817642" lon="6.1732374876737595"><ele></ele><time>2013-7-29T4:54:42Z</time></trkpt>
<trkpt lat="46.308933505788445" lon="6.173146963119507"><ele></ele><time>2013-7-29T4:54:45Z</time></trkpt>
<trkpt lat="46.308858739212155" lon="6.173090972006321"><ele></ele><time>2013-7-29T4:54:48Z</time></trkpt>
<trkpt lat="46.30878858268261" lon="6.173022072762251"><ele></ele><time>2013-7-29T4:54:51Z</time></trkpt>
<trkpt lat="46.30871775560081" lon="6.172946635633707"><ele></ele><time>2013-7-29T4:54:54Z</time></trkpt>
<trkpt lat="46.3086421508342" lon="6.1728752218186855"><ele></ele><time>2013-7-29T4:54:57Z</time></trkpt>
<trkpt lat="46.3085644505918" lon="6.172804646193981"><ele></ele><time>2013-7-29T4:55:0Z</time></trkpt>
<trkpt lat="46.30840075202286" lon="6.1726681888103485"><ele></ele><time>2013-7-29T4:55:3Z</time></trkpt>
<trkpt lat="46.30832246504724" lon="6.1726101860404015"><ele></ele><time>2013-7-29T4:55:6Z</time></trkpt>
<trkpt lat="46.30825063213706" lon="6.172553692013025"><ele></ele><time>2013-7-29T4:55:9Z</time></trkpt>
<trkpt lat="46.30818190053105" lon="6.1725059151649475"><ele></ele><time>2013-7-29T4:55:12Z</time></trkpt>
<trkpt lat="46.308122305199504" lon="6.172466184943914"><ele></ele><time>2013-7-29T4:55:15Z</time></trkpt>
<trkpt lat="46.30807955749333" lon="6.172416312620044"><ele></ele><time>2013-7-29T4:55:18Z</time></trkpt>
<trkpt lat="46.308059273287654" lon="6.172351352870464"><ele></ele><time>2013-7-29T4:55:21Z</time></trkpt>
</trkseg></trk></gpx>